[[{"header":{"parameterUnit":"m.s-1","parameterCategory":1,"la1":30.6,"la2":28.766,"lo1":-90.7593,"lo2":-88.6598,"dy":0.0162,"dx":0.0183,"nx":116,"ny":114,"refTime":"2023-08-03T00:00:00:Z","depth":0,"parameterNumber":2,"parameterNumberName":"U-component_of_WINDS"},"data":[0.0,0.0,0.0,0.0,0.0,0.0,0.0,0.0,0.0,0.0,0.0,0.0,0.0,0.0,0.0,0.0,0.0,0.0,0.0,0.0,0.0,0.0,0.0,0.0,0.0,0.0,0.0,0.0,0.0,0.0,0.0,0.0,0.0,0.0,0.0,0.0,0.0,0.0,0.0,0.0,0.0,0.0,0.0,0.0,0.0,0.0,0.0,0.0,0.0,0.0,0.0,0.0,0.0,0.0,0.0,0.0,0.0,0.0,0.0,0.0,0.0,0.0,0.0,0.0,0.0,0.0,0.0,0.0,0.0,0.0,0.0,0.0,0.0,0.0,0.0,0.0,0.0,0.0,0.0,0.0,0.0,0.0,0.0,0.0,0.0,0.0,0.0,0.0,0.0,0.0,0.0,0.0,0.0,0.0,0.0,0.0,0.0,0.0,0.0,0.0,0.0,0.0,0.0,0.0,0.0,0.0,0.0,0.0,0.0,0.0,0.0,0.0,0.0,0.0,0.0,0.0,0.0,0.0,0.0,0.0,0.0,0.0,0.0,0.0,0.0,0.0,0.0,0.0,0.0,0.0,0.0,0.0,0.0,0.0,0.0,0.0,0.0,0.0,0.0,0.0,0.0,0.0,0.0,0.0,0.0,0.0,0.0,0.0,0.0,0.0,0.0,0.0,0.0,0.0,0.0,0.0,0.0,0.0,0.0,0.0,0.0,0.0,0.0,0.0,0.0,0.0,0.0,0.0,0.0,0.0,0.0,0.0,0.0,0.0,0.0,0.0,0.0,0.0,0.0,0.0,0.0,0.0,0.0,0.0,0.0,0.0,0.0,0.0,0.0,0.0,0.0,0.0,0.0,0.0,0.0,0.0,0.0,0.0,0.0,0.0,0.0,0.0,0.0,0.0,0.0,0.0,0.0,0.0,0.0,0.0,0.0,0.0,0.0,0.0,0.0,0.0,0.0,0.0,0.0,0.0,0.0,0.0,0.0,0.0,0.0,0.0,0.0,0.0,0.0,0.0,0.0,0.0,0.0,0.0,0.0,0.0,0.0,0.0,0.0,0.0,0.0,0.0,0.0,0.0,0.0,0.0,0.0,0.0,0.0,0.0,0.0,0.0,0.0,0.0,0.0,0.0,0.0,0.0,0.0,0.0,0.0,0.0,0.0,0.0,0.0,0.0,0.0,0.0,0.0,0.0,0.0,0.0,0.0,0.0,0.0,0.0,0.0,0.0,0.0,0.0,0.0,0.0,0.0,0.0,0.0,0.0,0.0,0.0,0.0,0.0,0.0,0.0,0.0,0.0,0.0,0.0,0.0,0.0,0.0,0.0,0.0,0.0,0.0,0.0,0.0,0.0,0.0,0.0,0.0,0.0,0.0,0.0,0.0,0.0,0.0,0.0,0.0,0.0,0.0,0.0,0.0,0.0,0.0,0.0,0.0,0.0,0.0,0.0,0.0,0.0,0.0,0.0,0.0,0.0,0.0,0.0,0.0,0.0,0.0,0.0,0.0,0.0,0.0,0.0,0.0,0.0,0.0,0.0,0.0,0.0,0.0,0.0,0.0,0.0,0.0,0.0,0.0,0.0,0.0,0.0,0.0,0.0,0.0,0.0,0.0,0.0,0.0,0.0,0.0,0.0,0.0,0.0,0.0,0.0,0.0,0.0,0.0,0.0,0.0,0.0,0.0,0.0,0.0,0.0,0.0,0.0,0.0,0.0,0.0,0.0,0.0,0.0,0.0,0.0,0.0,0.0,0.0,0.0,0.0,0.0,0.0,0.0,0.0,0.0,0.0,0.0,0.0,0.0,0.0,0.0,0.0,0.0,0.0,0.0,0.0,0.0,0.0,0.0,0.0,0.0,0.0,0.0,0.0,0.0,0.0,0.0,0.0,0.0,0.0,0.0,0.0,0.0,0.0,0.0,0.0,0.0,0.0,0.0,0.0,0.0,0.0,0.0,0.0,0.0,0.0,0.0,0.0,0.0,0.0,0.0,0.0,0.0,0.0,0.0,0.0,0.0,0.0,0.0,0.0,0.0,0.0,0.0,0.0,0.0,0.0,0.0,0.0,0.0,0.0,0.0,0.0,0.0,0.0,0.0,0.0,0.0,0.0,0.0,0.0,0.0,0.0,0.0,0.0,0.0,0.0,0.0,0.0,0.0,0.0,0.0,0.0,0.0,0.0,0.0,0.0,0.0,0.0,0.0,0.0,0.0,0.0,0.0,0.0,0.0,0.0,0.0,0.0,0.0,0.0,0.0,0.0,0.0,0.0,0.0,0.0,0.0,0.0,0.0,0.0,0.0,0.0,0.0,0.0,0.0,0.0,0.0,0.0,0.0,0.0,0.0,0.0,0.0,0.0,0.0,0.0,0.0,0.0,0.0,0.0,0.0,0.0,0.0,0.0,0.0,0.0,0.0,0.0,0.0,0.0,0.0,0.0,0.0,0.0,0.0,0.0,0.0,0.0,0.0,0.0,0.0,0.0,0.0,0.0,0.0,0.0,0.0,0.0,0.0,0.0,0.0,0.0,0.0,0.0,0.0,0.0,0.0,0.0,0.0,0.0,0.0,0.0,0.0,0.0,0.0,0.0,0.0,0.0,0.0,0.0,0.0,0.0,0.0,0.0,0.0,0.0,0.0,0.0,0.0,0.0,0.0,0.0,0.0,0.0,0.0,0.0,0.0,0.0,0.0,0.0,0.0,0.0,0.0,0.0,0.0,0.0,0.0,0.0,0.0,0.0,0.0,0.0,0.0,0.0,0.0,0.0,0.0,0.0,0.0,0.0,0.0,0.0,0.0,0.0,0.0,0.0,0.0,0.0,0.0,0.0,0.0,0.0,0.0,0.0,0.0,0.0,0.0,0.0,0.0,0.0,0.0,0.0,0.0,0.0,0.0,0.0,0.0,0.0,0.0,0.0,0.0,0.0,0.0,0.0,0.0,0.0,0.0,0.0,0.0,0.0,0.0,0.0,0.0,0.0,0.0,0.0,0.0,0.0,0.0,0.0,0.0,0.0,0.0,0.0,0.0,0.0,0.0,0.0,0.0,0.0,0.0,0.0,0.0,0.0,0.0,0.0,0.0,0.0,0.0,0.0,0.0,0.0,0.0,0.0,0.0,0.0,0.0,0.0,0.0,0.0,0.0,0.0,0.0,0.0,0.0,0.0,0.0,0.0,0.0,0.0,0.0,0.0,0.0,0.0,0.0,0.0,0.0,0.0,0.0,0.0,0.0,0.0,0.0,0.0,0.0,0.0,0.0,0.0,0.0,0.0,0.0,0.0,0.0,0.0,0.0,0.0,0.0,0.0,0.0,0.0,0.0,0.0,0.0,0.0,0.0,0.0,0.0,0.0,0.0,0.0,0.0,0.0,0.0,0.0,0.0,0.0,0.0,0.0,0.0,0.0,0.0,0.0,0.0,0.0,0.0,0.0,0.0,0.0,0.0,0.0,0.0,0.0,0.0,0.0,0.0,0.0,0.0,0.0,0.0,0.0,0.0,0.0,0.0,0.0,0.0,0.0,0.0,0.0,0.0,0.0,0.0,0.0,0.0,0.0,0.0,0.0,0.0,0.0,0.0,0.0,0.0,0.0,0.0,0.0,0.0,0.0,0.0,0.0,0.0,0.0,0.0,0.0,0.0,0.0,0.0,0.0,0.0,0.0,0.0,0.0,0.0,0.0,0.0,0.0,0.0,0.0,0.0,0.0,0.0,0.0,0.0,0.0,0.0,0.0,0.0,0.0,0.0,0.0,0.0,0.0,0.0,0.0,0.0,0.0,0.0,0.0,0.0,0.0,0.0,0.0,0.0,0.0,0.0,0.0,0.0,0.0,0.0,0.0,0.0,0.0,0.0,0.0,0.0,0.0,0.0,0.0,0.0,0.0,0.0,0.0,0.0,0.0,0.0,0.0,0.0,0.0,0.0,0.0,0.0,0.0,0.0,0.0,0.0,0.0,0.0,0.0,0.0,0.0,0.0,0.0,0.0,0.0,0.0,0.0,0.0,0.0,0.0,0.0,0.0,0.0,0.0,0.0,0.0,0.0,0.0,0.0,0.0,0.0,0.0,0.0,0.0,0.0,0.0,0.0,0.0,0.0,0.0,0.0,0.0,0.0,0.0,0.0,0.0,0.0,0.0,0.0,0.0,0.0,0.0,0.0,0.0,0.0,0.0,0.0,0.0,0.0,0.0,0.0,0.0,0.0,0.0,0.0,0.0,0.0,0.0,0.0,0.0,0.0,0.0,0.0,0.0,0.0,0.0,0.0,0.0,0.0,0.0,0.0,0.0,0.0,0.0,0.0,0.0,0.0,0.0,0.0,0.0,0.0,0.0,0.0,0.0,0.0,0.0,0.0,0.0,0.0,0.0,0.0,0.0,0.0,0.0,0.0,0.0,0.0,0.0,0.0,0.0,0.0,0.0,0.0,0.0,0.0,0.0,0.0,0.0,0.0,0.0,0.0,0.0,0.0,0.0,0.0,0.0,0.0,0.0,0.0,0.0,0.0,0.0,0.0,0.0,0.0,0.0,0.0,0.0,0.0,0.0,0.0,0.0,0.0,0.0,0.0,0.0,0.0,0.0,0.0,0.0,0.0,0.0,0.0,0.0,0.0,0.0,0.0,0.0,0.0,0.0,0.0,0.0,0.0,0.0,0.0,0.0,0.0,0.0,0.0,0.0,0.0,0.0,0.0,0.0,0.0,0.0,0.0,0.0,0.0,0.0,0.0,0.0,0.0,0.0,0.0,0.0,0.0,0.0,0.0,0.0,0.0,0.0,0.0,0.0,0.0,0.0,0.0,0.0,0.0,0.0,0.0,0.0,0.0,0.0,0.0,0.0,0.0,0.0,0.0,0.0,0.0,0.0,0.0,0.0,0.0,0.0,0.0,0.0,0.0,0.0,0.0,0.0,0.0,0.0,0.0,0.0,0.0,0.0,0.0,0.0,0.0,0.0,0.0,0.0,0.0,0.0,0.0,0.0,0.0,0.0,0.0,0.0,0.0,0.0,0.0,0.0,0.0,0.0,0.0,0.0,0.0,0.0,0.0,0.0,0.0,0.0,0.0,0.0,0.0,0.0,0.0,0.0,0.0,0.0,0.0,0.0,0.0,0.0,0.0,0.0,0.0,0.0,0.0,0.0,0.0,0.0,0.0,0.0,0.0,0.0,0.0,0.0,0.0,0.0,0.0,0.0,0.0,0.0,0.0,0.0,0.0,0.0,0.0,0.0,0.0,0.0,0.0,0.0,0.0,0.0,0.0,0.0,0.0,0.0,0.0,0.0,0.0,0.0,0.0,0.0,0.0,0.0,0.0,0.0,0.0,0.0,0.0,0.0,0.0,0.0,0.0,0.0,0.0,0.0,0.0,0.0,0.0,0.0,0.0,0.0,0.0,0.0,0.0,0.0,0.0,0.0,0.0,0.0,0.0,0.0,0.0,0.0,0.0,0.0,0.0,0.0,0.0,0.0,0.0,0.0,0.0,0.0,0.0,0.0,0.0,0.0,0.0,0.0,0.0,0.0,0.0,0.0,0.0,0.0,0.0,0.0,0.0,0.0,0.0,0.0,0.0,0.0,0.0,0.0,0.0,0.0,0.0,0.0,0.0,0.0,0.0,0.0,0.0,0.0,0.0,0.0,0.0,0.0,0.0,0.0,0.0,0.0,0.0,0.0,0.0,0.0,0.0,0.0,0.0,0.0,0.0,0.0,0.0,0.0,0.0,0.0,0.0,0.0,0.0,0.0,0.0,0.0,0.0,0.0,0.0,0.0,0.0,0.0,0.0,0.0,0.0,0.0,0.0,0.0,0.0,0.0,0.0,0.0,0.0,0.0,0.0,0.0,0.0,0.0,0.0,0.0,0.0,0.0,0.0,0.0,0.0,0.0,0.0,0.0,0.0,0.0,0.0,0.0,0.0,0.0,0.0,0.0,0.0,0.0,0.0,0.0,0.0,0.0,0.0,0.0,0.0,0.0,0.0,0.0,0.0,0.0,0.0,0.0,0.0,0.0,0.0,0.0,0.0,0.0,0.0,0.0,0.0,0.0,0.0,0.0,0.0,0.0,0.0,0.0,0.0,0.0,0.0,0.0,0.0,0.0,0.0,0.0,0.0,0.0,-4.615,-4.4715,0.0,0.0,0.0,0.0,0.0,0.0,0.0,0.0,0.0,0.0,0.0,0.0,0.0,0.0,0.0,0.0,0.0,0.0,0.0,0.0,0.0,0.0,0.0,0.0,0.0,0.0,0.0,0.0,0.0,0.0,0.0,0.0,0.0,0.0,0.0,0.0,0.0,0.0,0.0,0.0,0.0,0.0,0.0,0.0,0.0,0.0,0.0,0.0,0.0,0.0,0.0,0.0,0.0,0.0,0.0,0.0,0.0,0.0,0.0,0.0,0.0,0.0,0.0,0.0,0.0,0.0,0.0,0.0,0.0,0.0,0.0,0.0,0.0,0.0,0.0,0.0,0.0,0.0,0.0,0.0,0.0,0.0,0.0,0.0,0.0,0.0,0.0,0.0,0.0,0.0,0.0,0.0,0.0,0.0,0.0,0.0,0.0,0.0,0.0,0.0,0.0,0.0,0.0,0.0,0.0,0.0,0.0,0.0,0.0,0.0,0.0,0.0,0.0,0.0,-4.8342,-4.7246,0.0,0.0,0.0,0.0,0.0,0.0,0.0,0.0,0.0,0.0,0.0,0.0,0.0,0.0,0.0,0.0,0.0,0.0,0.0,0.0,0.0,0.0,0.0,0.0,0.0,0.0,0.0,0.0,0.0,0.0,0.0,0.0,0.0,0.0,0.0,0.0,0.0,0.0,0.0,0.0,0.0,0.0,0.0,0.0,0.0,0.0,0.0,0.0,0.0,0.0,0.0,0.0,0.0,0.0,0.0,0.0,0.0,0.0,0.0,0.0,0.0,0.0,0.0,0.0,0.0,0.0,0.0,0.0,0.0,0.0,0.0,0.0,0.0,0.0,0.0,0.0,0.0,0.0,0.0,0.0,0.0,0.0,0.0,0.0,0.0,0.0,0.0,0.0,0.0,0.0,0.0,0.0,0.0,0.0,0.0,0.0,0.0,0.0,0.0,0.0,0.0,0.0,0.0,0.0,0.0,0.0,0.0,0.0,-5.1239,-5.1723,-5.3053,-5.2032,-5.1775,-5.2077,-5.0801,-5.015,-4.9732,-4.7688,0.0,0.0,0.0,0.0,0.0,0.0,0.0,0.0,0.0,0.0,0.0,0.0,0.0,0.0,0.0,0.0,0.0,0.0,0.0,0.0,0.0,0.0,0.0,0.0,0.0,0.0,0.0,0.0,0.0,0.0,0.0,0.0,0.0,0.0,0.0,0.0,0.0,0.0,-3.8035,-3.867,-3.9104,-3.9306,0.0,0.0,0.0,0.0,0.0,0.0,0.0,0.0,0.0,0.0,0.0,0.0,0.0,0.0,0.0,0.0,0.0,0.0,0.0,0.0,0.0,0.0,0.0,0.0,0.0,0.0,0.0,0.0,0.0,0.0,0.0,0.0,0.0,0.0,0.0,0.0,0.0,0.0,0.0,0.0,0.0,0.0,0.0,0.0,-4.4458,-4.6936,0.0,0.0,0.0,0.0,0.0,0.0,0.0,0.0,0.0,0.0,0.0,0.0,0.0,-4.8916,-4.9495,-5.1688,-5.3064,-5.3598,-5.5508,-5.6789,-5.7339,-5.6578,-5.6104,-5.5848,-5.5004,0.0,-5.061,-4.8537,0.0,0.0,0.0,0.0,0.0,0.0,0.0,0.0,0.0,0.0,0.0,0.0,0.0,0.0,0.0,0.0,0.0,0.0,0.0,0.0,0.0,0.0,0.0,0.0,0.0,0.0,0.0,0.0,0.0,0.0,0.0,0.0,0.0,0.0,0.0,0.0,-3.8209,-3.9041,-3.9867,-4.0068,-4.0289,-4.0429,-3.9222,-3.8859,-3.9092,-3.8884,0.0,0.0,0.0,0.0,0.0,0.0,0.0,0.0,0.0,0.0,0.0,0.0,0.0,0.0,0.0,0.0,0.0,0.0,0.0,0.0,0.0,0.0,0.0,0.0,0.0,0.0,0.0,0.0,0.0,0.0,0.0,0.0,0.0,0.0,0.0,0.0,0.0,0.0,0.0,-4.397,-4.6467,-4.6167,-4.6692,-4.6373,0.0,0.0,0.0,0.0,0.0,0.0,0.0,0.0,0.0,-5.1682,-5.2091,-5.2936,-5.4299,-5.5772,-5.651,-5.6595,-5.7089,-5.738,-5.7565,-5.6629,-5.61,-5.5964,-5.5314,-5.4269,-5.291,-5.113,-4.966,-4.8336,0.0,0.0,0.0,0.0,-4.3215,-4.3352,0.0,0.0,0.0,0.0,0.0,0.0,0.0,0.0,0.0,0.0,0.0,0.0,0.0,0.0,0.0,-3.3186,0.0,0.0,0.0,0.0,0.0,0.0,0.0,0.0,0.0,0.0,0.0,0.0,-3.9683,-4.0448,-4.103,-4.1223,-4.1177,-4.0958,-4.0642,-4.061,-4.0792,-4.06,-3.8327,0.0,0.0,0.0,0.0,0.0,0.0,0.0,0.0,0.0,0.0,0.0,0.0,0.0,0.0,0.0,0.0,0.0,0.0,0.0,0.0,0.0,0.0,0.0,0.0,0.0,0.0,0.0,0.0,0.0,0.0,0.0,0.0,0.0,0.0,0.0,0.0,0.0,0.0,-4.6674,-4.8457,-4.6617,-4.8589,-4.8765,0.0,0.0,0.0,0.0,0.0,0.0,-5.0344,-5.0802,-5.2118,-5.4526,-5.5377,-5.6443,-5.7836,-5.8589,-5.8816,-5.849,-5.7671,-5.727,-5.7253,-5.6258,-5.5729,-5.5592,-5.4983,-5.4506,-5.4051,-5.2602,-5.127,-4.9931,-4.8229,-4.7046,-4.6238,-4.5323,-4.5107,-4.5403,0.0,0.0,0.0,0.0,0.0,0.0,0.0,0.0,0.0,0.0,0.0,0.0,0.0,0.0,-3.2159,-3.2857,-3.2992,-3.338,0.0,0.0,0.0,0.0,0.0,0.0,0.0,0.0,0.0,-3.9535,-4.0547,-4.1054,-4.111,-4.1811,-4.2054,-4.1916,-4.1701,-4.1722,-4.18,-3.9826,-3.8132,-3.6588,0.0,0.0,0.0,0.0,0.0,0.0,0.0,0.0,0.0,0.0,0.0,0.0,0.0,0.0,0.0,0.0,0.0,0.0,0.0,0.0,0.0,0.0,0.0,0.0,0.0,0.0,0.0,0.0,0.0,0.0,0.0,0.0,0.0,0.0,0.0,0.0,0.0,0.0,0.0,-5.1536,-5.3733,0.0,0.0,0.0,0.0,-4.9197,-4.9866,-5.1231,-5.3378,-5.3494,-5.4599,-5.6953,-5.7804,-5.8015,-5.7543,-5.831,-5.8414,-5.7851,-5.7754,-5.7737,-5.7719,-5.6912,-5.63,-5.583,-5.5022,-5.3895,-5.2547,-5.1529,-5.0824,-5.0092,-4.7441,-4.638,-4.6125,-4.4781,-4.4872,-4.5665,0.0,0.0,0.0,0.0,0.0,0.0,0.0,0.0,0.0,0.0,0.0,0.0,0.0,-3.1178,-3.1711,-3.1977,-3.2509,-3.2721,-3.2471,0.0,0.0,0.0,0.0,0.0,0.0,0.0,-3.7967,-3.9471,-3.9909,-4.0125,-4.0129,-3.9917,-3.975,-3.9585,-3.8825,-3.8963,-3.98,-4.0469,-3.9053,-3.6261,-3.554,-3.3635,0.0,0.0,0.0,0.0,0.0,0.0,0.0,0.0,0.0,0.0,0.0,0.0,0.0,0.0,0.0,0.0,0.0,0.0,0.0,0.0,0.0,0.0,0.0,0.0,0.0,0.0,0.0,0.0,0.0,0.0,0.0,0.0,0.0,0.0,0.0,0.0,0.0,-5.21,-5.4366,0.0,-5.1301,-5.1839,-5.238,-5.2407,-5.39,-5.5347,-5.6663,-5.7224,-5.7876,-5.8728,-5.8878,-5.8681,-5.8274,-5.8405,-5.8255,-5.779,-5.728,-5.6834,-5.6568,-5.5723,-5.5109,-5.4565,-5.3949,-5.3365,-5.2786,-5.1885,-5.0824,-4.9774,-4.9192,-4.8599,-4.7882,-4.6961,-4.6782,-4.6992,0.0,0.0,0.0,0.0,0.0,0.0,0.0,0.0,0.0,0.0,0.0,-3.0453,-3.0413,-3.0784,-3.0997,-3.0905,-3.1401,-3.1447,-3.0795,0.0,0.0,0.0,0.0,0.0,0.0,-3.6397,-3.7635,-3.8832,-3.8734,-3.8558,-3.8302,-3.7514,-3.7094,-3.6988,-3.6251,-3.6323,-3.709,-3.8727,-3.8122,-3.6047,-3.5856,-3.4341,-3.2109,0.0,0.0,0.0,0.0,0.0,0.0,0.0,0.0,0.0,0.0,0.0,0.0,0.0,0.0,0.0,0.0,0.0,0.0,0.0,0.0,0.0,0.0,0.0,0.0,0.0,0.0,0.0,0.0,0.0,0.0,0.0,0.0,0.0,0.0,-5.29,-5.4699,-5.2521,-5.538,-5.6063,-5.2438,-5.3823,-5.4894,-5.4765,-5.6255,-5.7677,-5.8746,-5.9202,-5.9438,-5.9438,-5.9437,-5.9033,-5.8196,-5.8231,-5.8012,-5.7386,-5.6659,-5.5951,-5.5137,-5.4626,-5.3969,-5.3275,-5.2977,-5.2616,-5.2034,-5.1296,-5.0225,-4.903,-4.9569,-4.9464,-4.8746,-4.7609,-4.7324,-4.7356,0.0,0.0,0.0,0.0,0.0,0.0,0.0,0.0,0.0,0.0,-3.0433,-3.0328,-3.0161,-3.0085,-2.9912,-2.9643,-2.9588,-2.9476,-2.9282,-3.0023,0.0,0.0,0.0,0.0,-3.4502,-3.4969,-3.5967,-3.7568,-3.7057,-3.642,-3.5651,-3.4804,-3.4413,-3.4421,-3.4302,-3.4119,-3.3949,-3.4356,-3.5119,-3.597,-3.5397,-3.4122,-3.261,0.0,0.0,0.0,0.0,0.0,0.0,0.0,0.0,0.0,0.0,0.0,0.0,0.0,0.0,0.0,0.0,0.0,0.0,0.0,0.0,0.0,0.0,0.0,0.0,0.0,0.0,0.0,0.0,0.0,0.0,0.0,0.0,0.0,-5.1703,-5.3831,-5.4819,-5.334,-5.713,-5.8164,-5.392,-5.6813,-5.8148,-5.6192,-5.6808,-5.7949,-5.9524,-5.924,-5.9059,-5.9149,-5.957,-5.8926,-5.7069,-5.7777,-5.7641,-5.6526,-5.6018,-5.5033,-5.355,-5.3729,-5.3124,-5.1883,-5.228,-5.1476,-4.9985,-4.9598,-4.8779,-4.7937,-4.8313,-4.8652,-4.8604,-4.6582,-4.6218,-4.6645,0.0,0.0,0.0,0.0,0.0,0.0,0.0,0.0,0.0,0.0,-3.019,-2.973,-2.9106,-2.8827,-2.839,-2.7737,-2.8184,-2.8501,-2.8423,0.0,0.0,0.0,0.0,0.0,-3.3629,-3.4472,-3.4832,-3.4642,-3.4759,-3.4063,-3.2676,-3.2641,-3.2639,-3.2616,-3.1198,-3.1222,-3.2265,-3.1343,-3.1418,-3.2344,-3.3774,-3.3575,-3.2562,0.0,0.0,0.0,0.0,0.0,0.0,0.0,0.0,0.0,0.0,0.0,0.0,0.0,0.0,0.0,0.0,0.0,0.0,0.0,0.0,0.0,0.0,0.0,0.0,0.0,0.0,0.0,0.0,0.0,0.0,0.0,-5.0912,-5.3442,-5.4185,-5.5903,-5.702,-5.6796,-5.787,-5.7904,-5.6098,-5.7387,-5.8065,-5.7457,-5.8178,-5.8826,-5.9276,-5.8664,-5.825,-5.8067,-5.743,-5.6794,-5.6237,-5.5671,-5.5273,-5.4928,-5.3878,-5.303,-5.2186,-5.2132,-5.1178,-4.9538,-4.9916,-4.9463,-4.8534,-4.7621,-4.7389,-4.7579,-4.7898,-4.808,-4.8035,-4.6929,-4.5997,-4.5254,0.0,0.0,0.0,0.0,0.0,0.0,0.0,0.0,0.0,0.0,-3.0119,-2.9668,-2.9115,-2.8201,-2.7381,-2.6838,-2.6874,-2.7015,-2.7138,0.0,0.0,0.0,0.0,-3.1321,-3.183,-3.2577,-3.2553,-3.175,-3.1803,-3.1339,-3.0424,-3.0304,-3.0292,-3.0325,-2.9201,-2.9249,-3.0098,-2.9193,-2.8902,-2.923,-3.1177,-3.2032,-3.2302,-3.3178,-3.3008,-3.2475,-3.4066,-3.4576,-3.4616,-3.6062,0.0,0.0,0.0,0.0,0.0,0.0,0.0,0.0,0.0,0.0,0.0,0.0,0.0,0.0,0.0,0.0,0.0,0.0,0.0,0.0,0.0,0.0,0.0,0.0,-5.2883,-5.517,-5.6105,-5.7335,-5.8052,-5.7648,-5.807,-5.7989,-5.6982,-5.7495,-5.7693,-5.737,-5.7442,-5.7657,-5.7998,-5.7154,-5.6616,-5.6413,-5.5688,-5.5129,-5.4794,-5.4165,-5.3707,-5.3515,-5.226,-5.1226,-5.0282,-4.9926,-4.8923,-4.7463,-4.7831,-4.7577,-4.6781,-4.5991,-4.5754,-4.5961,0.0,0.0,0.0,0.0,-4.5412,-4.467,0.0,0.0,0.0,0.0,0.0,0.0,0.0,0.0,0.0,0.0,0.0,-2.9741,-2.943,-2.781,-2.6598,-2.6321,-2.5693,-2.5466,0.0,0.0,0.0,-2.9242,-2.9394,-2.95,-2.9559,-2.9913,-2.9734,-2.9001,-2.8732,-2.8593,-2.8567,-2.8058,-2.7865,-2.7935,-2.7906,-2.7879,-2.7865,-2.7713,-2.73,-2.6885,-2.8422,-3.007,-3.1727,-3.2474,-3.2541,-3.2403,-3.3628,-3.4083,-3.4433,-3.6586,0.0,0.0,0.0,0.0,0.0,0.0,0.0,0.0,0.0,0.0,0.0,0.0,0.0,0.0,0.0,0.0,0.0,0.0,0.0,0.0,0.0,0.0,0.0,0.0,-5.47,-5.6543,-5.7268,-5.7992,-5.7955,-5.6691,-5.7562,-5.7878,-5.6737,-5.7011,-5.7005,-5.6381,-5.5579,-5.5491,-5.6186,-5.5147,0.0,0.0,0.0,-5.3734,-5.305,-5.2962,-5.263,-5.2042,-5.0789,-4.9385,-4.7975,-4.7457,-4.668,-4.5629,-4.5945,-4.5693,-4.4936,-4.4526,-4.4101,-4.3848,-4.5175,-4.5744,-4.5713,-4.4891,-4.4473,-4.4299,0.0,0.0,0.0,0.0,0.0,0.0,0.0,0.0,0.0,-3.0403,-2.9538,-2.8563,-2.7706,-2.6451,-2.5333,-2.4426,-2.4701,-2.5198,0.0,0.0,-2.7583,-2.7881,-2.8009,-2.8085,-2.8114,-2.825,-2.7911,-2.7122,-2.7214,-2.7029,-2.6555,-2.6612,-2.6757,-2.6941,-2.6318,-2.6402,-2.7027,-2.6825,-2.661,-2.653,-2.8018,-2.9178,-3.0166,-3.1888,-3.2738,-3.319,-3.4644,-3.5019,-3.5074,-3.6861,-3.7473,-3.7577,-3.8136,0.0,0.0,0.0,0.0,0.0,0.0,0.0,0.0,0.0,0.0,0.0,0.0,0.0,0.0,0.0,0.0,0.0,0.0,0.0,0.0,-5.3952,-5.538,-5.6218,-5.6506,-5.6673,-5.6348,-5.5229,-5.5585,-5.5582,-5.4892,-5.5122,-5.5535,-5.594,-5.5322,-5.495,-5.5092,-5.3725,-5.3138,-5.3496,-5.2843,-5.24,-5.2242,-5.1628,-5.0649,-4.935,-4.8038,0.0,-4.605,-4.5794,-4.4986,-4.3762,-4.4077,-4.386,-4.3162,-4.2509,-4.2789,-4.3801,-4.4606,-4.5286,-4.5665,-4.4244,-4.334,-4.2648,0.0,0.0,0.0,0.0,0.0,0.0,0.0,0.0,0.0,0.0,-2.8579,-2.7823,-2.7129,-2.6098,-2.5185,-2.4553,-2.4982,0.0,0.0,-2.6284,-2.6765,-2.6468,-2.6559,-2.6435,-2.6063,-2.625,-2.5962,-2.5142,-2.5448,-2.548,-2.5274,-2.5525,-2.5779,-2.5981,-2.5648,-2.5759,-2.6197,-2.6091,-2.5939,-2.5848,-2.695,-2.801,-2.9067,-3.0658,-3.1747,-3.2561,-3.3473,-3.4248,-3.5131,-3.6471,-3.7551,-3.8356,-3.9057,-3.9676,-3.9765,0.0,0.0,0.0,0.0,0.0,0.0,0.0,0.0,0.0,0.0,0.0,0.0,0.0,0.0,-4.8198,0.0,0.0,-5.2755,-5.4478,-5.5443,-5.5895,-5.5547,-5.5492,-5.5146,-5.4205,-5.4586,-5.4643,-5.3813,-5.4257,-5.4543,-5.4543,-5.419,-5.3802,-5.3415,-5.2304,-5.1615,-5.1435,-5.0994,-5.0554,-5.0151,-4.973,-4.882,-4.7537,-4.654,-4.5457,-4.435,-4.3877,-4.3243,-4.2407,-4.2572,-4.2457,-4.2141,-4.2059,-4.2417,-4.3094,-4.334,-4.4126,-4.4984,-4.3497,-4.2469,-4.1565,0.0,0.0,0.0,0.0,0.0,0.0,0.0,0.0,0.0,0.0,-2.7663,-2.7261,-2.6827,-2.5946,-2.5245,0.0,0.0,0.0,0.0,-2.5597,-2.5928,-2.5077,-2.5128,-2.4878,-2.4293,-2.4567,-2.44,-2.3735,-2.408,-2.4337,-2.4495,-2.4762,-2.503,-2.5253,-2.5381,-2.5493,-2.5585,-2.5586,-2.5467,-2.5337,-2.6235,-2.7197,-2.8256,-2.944,-3.0693,-3.1809,-3.1929,-3.3003,-3.4568,-3.5906,-3.7259,-3.8657,-3.9975,-4.0902,-4.1059,-3.8599,-3.8884,0.0,0.0,0.0,0.0,0.0,0.0,0.0,0.0,0.0,-4.5954,-4.8568,-4.9545,-5.0431,-5.2142,-5.3198,-5.4054,-5.4717,-5.5281,-5.542,-5.4773,-5.4423,-5.3934,-5.3078,-5.3718,-5.3886,-5.3039,-5.3506,-5.3682,-5.3151,-5.3032,-5.2681,-5.1938,-5.124,-5.0451,-4.9661,-4.9537,-4.9029,-4.805,-4.7927,-4.721,-4.595,-4.5345,-4.4268,-4.2892,-4.2236,-4.1851,-4.1588,-4.1446,-4.1396,-4.1503,-4.1826,-4.2009,-4.2134,-4.1966,-4.2575,-4.3451,-4.2166,-4.1283,-4.0504,0.0,0.0,0.0,0.0,0.0,0.0,0.0,0.0,0.0,0.0,0.0,0.0,0.0,0.0,0.0,0.0,0.0,0.0,-2.3525,-2.4812,-2.5075,-2.3838,-2.388,-2.3894,-2.3865,-2.3958,-2.3967,-2.3876,-2.4036,-2.421,-2.4407,-2.451,-2.4727,-2.5043,-2.5168,-2.5333,-2.5523,-2.5562,-2.5551,-2.5582,-2.7058,-2.757,-2.7652,-2.9026,-3.0632,-3.2087,-3.1635,-3.2027,-3.3104,-3.5364,-3.6209,-3.6911,-4.028,-4.0999,-4.0332,-3.9258,0.0,-3.8307,-3.7276,-3.9037,-4.1669,-4.3886,-4.4714,-4.5961,0.0,0.0,-5.1832,-5.2352,-5.417,-5.5367,-5.4301,-5.4785,-5.5441,-5.5638,-5.5085,-5.4649,-5.47,-5.3462,-5.2179,-5.1228,-5.1903,-5.2337,-5.2011,-5.2169,-5.2467,-5.2932,-5.2411,-5.2008,-5.1655,-5.0983,-5.027,-4.9356,-4.9338,-4.8641,-4.7178,-4.7108,-4.6106,-4.4023,-4.3939,-4.3129,-4.1765,-4.1686,-4.1654,-4.1557,-4.081,-4.0708,-4.1138,-4.0575,-4.07,-4.1247,-4.1247,-4.0831,-4.0215,-3.9455,-3.9129,-3.8828,0.0,0.0,0.0,0.0,0.0,0.0,0.0,0.0,0.0,0.0,0.0,0.0,0.0,0.0,0.0,0.0,0.0,0.0,-2.3547,-2.4492,-2.4599,-2.3534,-2.3508,-2.3535,-2.358,-2.3819,-2.3899,-2.3789,-2.4078,-2.4229,-2.4229,-2.4461,-2.467,-2.4891,-2.5053,-2.5197,-2.5365,-2.6054,-2.6306,-2.6302,-2.7537,-2.8141,-2.839,-2.8893,-3.002,-3.1219,-3.052,-3.1064,0.0,0.0,-3.4553,-3.5647,-3.7668,-3.8028,-3.7562,-3.6733,-3.6611,0.0,-3.8241,-3.9114,-4.0435,0.0,-4.4964,-4.6501,-4.9161,-5.0569,-5.1726,-5.3217,-5.4364,-5.4903,-5.4378,-5.4569,-5.4704,0.0,-5.3989,-5.3768,-5.381,-5.2817,-5.204,-5.1782,-5.1728,-5.1359,-5.0427,-5.1507,-5.2036,-5.1468,-5.1664,-5.1503,-5.0937,-5.0645,-4.9896,-4.864,-4.8551,-4.775,-4.6222,-4.61,-4.5432,-4.4169,-4.3789,-4.3015,-4.2013,-4.1573,-4.1406,-4.1272,-4.0923,-4.0903,-4.1117,-4.1059,-4.1028,-4.0904,-4.0365,-3.9725,-3.9025,-3.8877,-3.8456,-3.8003,0.0,0.0,0.0,0.0,0.0,0.0,0.0,0.0,0.0,0.0,0.0,0.0,0.0,0.0,0.0,0.0,0.0,0.0,0.0,-2.4459,-2.4495,-2.3848,-2.2159,-2.126,-2.1312,-2.0072,-1.9378,-1.9308,-1.9553,-1.9631,-1.9536,-1.9737,-2.0755,-2.2436,-2.2596,-2.3613,-2.5292,-2.6403,-2.6838,-2.6889,-2.8303,-2.9123,-2.9486,-2.9555,-3.011,-3.0731,-2.9874,-3.0305,0.0,0.0,-3.2922,-3.3913,-3.5102,-3.542,-3.5222,-3.4568,-3.476,-3.5636,-3.7822,-3.8496,-3.9278,-4.221,-4.4389,-4.6198,-4.7716,-4.9171,-5.0714,-5.2717,-5.3581,-5.3936,-5.3807,-5.3814,-5.3694,-5.3195,-5.2981,-5.2949,-5.3188,-5.2509,-5.2102,-5.2345,-5.19,-5.1166,-5.0048,-5.1247,-5.167,-5.0637,-5.0993,-5.0967,-5.0337,-5.0302,-4.9646,-4.8045,-4.7902,-4.7103,-4.5546,-4.5476,-4.5086,-4.4502,-4.3764,-4.3031,-4.2253,-4.1573,-4.1044,-4.0738,-4.0551,-4.0406,-4.0422,-4.0582,-4.0344,-3.9833,-3.9139,-3.8473,-3.7874,-3.8003,-3.771,-3.7244,0.0,0.0,0.0,0.0,0.0,0.0,0.0,0.0,0.0,0.0,0.0,0.0,0.0,0.0,0.0,0.0,0.0,0.0,0.0,-2.4723,-2.4751,-2.4865,-1.9009,-1.5871,-1.6109,-1.071,-0.8023,-0.827,-0.8078,-0.8009,-0.8017,-0.7886,-1.0915,-1.6458,-1.653,-1.9811,-2.5361,-2.6365,-2.6833,-2.7114,-2.9626,-3.0624,-3.0714,-3.1293,-3.1372,-3.1086,-3.0287,0.0,0.0,0.0,-3.1516,-3.129,-3.3466,-3.4133,0.0,-3.3894,-3.3995,-3.4351,-3.5364,0.0,-3.9272,-4.1368,-4.333,-4.515,-4.6686,-4.8506,-5.0073,-5.1004,-5.2617,-5.3672,-5.297,-5.2974,-5.3017,-5.2999,-5.2443,-5.2307,-5.3096,-5.2509,-5.2084,-5.2354,-5.2163,-5.1832,0.0,-5.1329,-5.1175,-5.0982,-5.062,-5.0337,-5.0011,-5.0149,-4.9439,-4.7751,-4.7717,-4.6975,-4.5441,-4.5423,-4.5086,-4.4502,-4.3663,-4.2925,-4.2253,-4.1472,-4.066,-3.9776,-3.9175,-3.8766,-3.8523,-3.7877,-3.7615,-3.7584,-3.7345,-3.6853,-3.6257,-3.6161,-3.6272,-3.6411,0.0,0.0,0.0,0.0,0.0,0.0,0.0,0.0,0.0,0.0,0.0,0.0,0.0,0.0,0.0,0.0,0.0,0.0,0.0,-2.4765,-2.3094,-1.847,-1.7277,-1.4603,-1.0149,-0.844,-0.769,-0.7854,-0.7754,-0.7643,-0.7571,-0.7536,-0.8486,-1.0441,-1.4959,-1.8088,-2.0365,-2.6002,-2.9065,-3.0185,-3.0543,-3.1714,-3.3063,-3.1576,-3.1135,-3.1192,0.0,0.0,0.0,0.0,-3.0369,-3.0315,-3.1434,-3.1724,-3.1751,-3.214,-3.3246,-3.4693,-3.6429,0.0,-3.978,-4.2068,-4.3344,-4.43,-4.5577,-4.6934,-4.8048,-4.8326,-4.8965,-4.945,-4.9318,-4.9489,-4.9997,-5.1224,-5.1669,-5.2168,-5.3096,-5.2509,-5.2229,-5.2846,-5.2865,0.0,0.0,0.0,0.0,-5.091,-5.0397,-5.0109,-4.9993,-4.9551,-4.8808,-4.7751,-4.709,-4.6261,-4.5264,-4.5194,-4.478,-4.4169,-4.2386,-4.1502,-4.1292,-4.0401,-4.0121,-4.0238,-4.0023,-3.9601,-3.9036,-3.8821,-3.8387,-3.7781,-3.7273,-3.6953,-3.6694,-3.6204,-3.5767,-3.5499,0.0,0.0,0.0,0.0,0.0,0.0,0.0,0.0,0.0,0.0,0.0,0.0,0.0,0.0,0.0,0.0,0.0,0.0,0.0,0.0,-2.2321,-1.6242,-1.4681,-1.0976,-0.4619,-0.2658,-0.1743,-0.1884,-0.1555,-0.1229,-0.0888,-0.0997,-0.2004,-0.3942,-0.8295,-1.3089,-1.8121,-2.3198,-2.7661,-3.132,-3.1172,-3.2303,-3.3891,-3.2244,-3.1941,0.0,0.0,0.0,0.0,-2.9539,-2.9432,-2.9577,-3.0243,-3.0736,-3.1172,-3.1742,-3.3101,-3.4907,-3.7271,-3.8569,-3.9793,-4.1866,-4.2769,-4.3358,-4.4138,-4.5062,-4.5881,-4.6167,-4.6283,-4.6413,-4.6567,-4.7006,-4.7775,-4.9017,-4.988,-5.0877,-5.2035,-5.204,-5.2339,-5.3414,-5.3586,-5.383,0.0,0.0,0.0,-5.1953,-5.1161,-5.0501,-5.0028,-4.9252,-4.8299,-4.7265,-4.6605,-4.5932,-4.514,-4.5032,-4.4541,-4.3555,-4.1911,-4.0826,-4.0276,-3.9724,-3.9358,-3.9296,-3.9244,-3.8794,-3.8132,-3.8376,-3.8004,-3.7233,-3.697,-3.6743,-3.6421,-3.5709,-3.509,-3.4748,0.0,0.0,0.0,0.0,0.0,0.0,0.0,0.0,0.0,0.0,0.0,0.0,0.0,0.0,0.0,0.0,0.0,0.0,0.0,0.0,0.0,-1.8095,-1.1567,-0.5484,0.0048,0.6009,0.8961,0.8863,0.9608,1.0355,1.1106,1.0763,0.7825,0.2813,0.2383,-0.5428,-1.8313,-1.8512,-2.3269,-3.0707,-3.1616,-3.2558,-3.3415,-3.3327,0.0,0.0,0.0,0.0,0.0,0.0,0.0,-2.9126,-3.0075,-3.1279,-3.2365,-3.2755,-3.3641,-3.508,-3.7678,-3.8776,-3.9427,-4.0703,-4.1672,-4.2329,-4.2458,-4.301,-4.3739,-4.4474,-4.461,-4.4628,0.0,0.0,-4.6372,-4.6702,-4.7492,-4.8685,-5.0289,-5.131,-5.2413,0.0,0.0,0.0,0.0,0.0,0.0,-5.3901,-5.2714,-5.1389,-4.9976,-4.9143,-4.795,-4.6327,-4.6241,-4.5843,-4.4995,-4.4889,-4.4135,-4.272,-4.1981,-4.0871,-3.9395,-3.9244,-3.8458,-3.725,-3.7086,-3.6626,-3.6019,-3.6656,-3.652,-3.5988,-3.6401,-3.6215,-3.5544,-3.4618,-3.4151,-3.3958,0.0,0.0,0.0,0.0,0.0,0.0,0.0,0.0,0.0,0.0,0.0,0.0,0.0,0.0,0.0,0.0,0.0,0.0,0.0,0.0,0.0,0.0,0.0,0.0,0.0,0.0,0.0,0.0,0.0,0.889,0.9479,0.8836,0.8122,0.7109,0.1647,-0.531,-1.3278,-1.9012,-2.5703,-3.2479,0.0,-3.3866,-3.51,0.0,0.0,0.0,0.0,0.0,0.0,0.0,0.0,0.0,0.0,-3.319,-3.3911,-3.4686,-3.556,-3.6535,-3.7775,-3.8795,-3.9846,-4.0981,-4.1117,-4.1155,-4.2069,-4.2499,-4.2633,-4.2315,-4.2669,-4.2803,0.0,0.0,0.0,-4.7006,-4.8678,0.0,-5.1967,-5.2368,0.0,-5.3123,0.0,-5.4143,-5.425,-5.4602,0.0,0.0,-5.2732,-5.0941,-4.8912,-4.8049,-4.7175,-4.6161,-4.5486,-4.5073,-4.4831,-4.3665,-4.2642,-4.1788,-3.9927,-3.8902,-3.857,-3.7918,-3.7633,-3.777,-3.777,-3.697,-3.5767,-3.6027,-3.5582,-3.4868,-3.5033,-3.5239,-3.5415,-3.4164,-3.3331,-3.275,0.0,0.0,0.0,0.0,0.0,0.0,0.0,0.0,0.0,0.0,0.0,0.0,0.0,0.0,0.0,0.0,0.0,0.0,0.0,0.0,0.0,0.0,0.0,0.0,0.0,0.0,0.0,0.0,0.0,0.0,0.0,0.8334,0.8201,0.8218,0.1732,-0.5213,-1.2447,0.0,0.0,0.0,0.0,0.0,0.0,0.0,0.0,0.0,0.0,0.0,0.0,0.0,0.0,-3.3588,-3.3616,-3.4306,-3.5187,-3.5485,0.0,-3.7056,-3.808,-3.8867,-3.9689,-4.0703,-4.1016,-4.1071,-4.1105,-4.1337,-4.1373,-4.0672,-4.076,0.0,-4.049,-4.2235,-4.4147,0.0,0.0,0.0,-5.1373,-5.1988,-5.2334,0.0,-5.3453,0.0,-5.3624,-5.3926,-5.366,-5.252,-5.1829,-5.0675,-4.8855,-4.7472,-4.6379,-4.5572,-4.5052,-4.4623,-4.4173,-4.2394,-4.1314,-4.0938,-3.9062,-3.8018,-3.7735,-3.7142,-3.6773,-3.6576,-3.6511,-3.5793,-3.4703,-3.4796,-3.4508,-3.4053,-3.3991,-3.4166,-3.4386,-3.3202,-3.2373,-3.1595,0.0,0.0,0.0,0.0,0.0,0.0,0.0,0.0,0.0,0.0,0.0,0.0,0.0,0.0,0.0,0.0,0.0,0.0,0.0,0.0,0.0,0.0,0.0,0.0,0.0,0.0,0.0,0.0,0.0,0.0,0.0,0.0,0.0,0.0,0.0,0.0,0.0,0.0,0.0,0.0,0.0,0.0,0.0,0.0,0.0,0.0,0.0,0.0,0.0,0.0,-3.5941,-3.5621,-3.4502,-3.522,-3.638,-3.581,-3.6206,-3.7091,-3.8366,-3.8815,-3.9121,-4.0041,-4.0908,-4.125,-3.9981,-4.0065,-4.02,-3.9486,0.0,-3.9226,-3.9381,-4.1594,-4.3448,-4.3595,0.0,-4.8037,-5.0144,-5.1147,-5.1882,-5.2518,-5.3317,-5.349,-5.2688,-5.2597,-5.1836,-5.0016,-5.0394,-5.0119,-4.8809,-4.6948,-4.5499,-4.4657,-4.4623,-4.419,-4.342,-4.1453,-4.0345,-4.0047,-3.881,-3.7728,-3.6838,-3.6627,-3.5929,-3.4781,-3.467,-3.4188,-3.3499,-3.3499,-3.344,-3.3304,-3.3211,-3.3208,-3.3129,-3.2033,-3.126,-3.0593,0.0,0.0,0.0,0.0,0.0,0.0,0.0,0.0,0.0,0.0,-3.0075,-3.0065,0.0,0.0,0.0,0.0,0.0,0.0,0.0,0.0,0.0,0.0,0.0,0.0,0.0,0.0,0.0,0.0,0.0,0.0,0.0,0.0,0.0,0.0,0.0,0.0,0.0,0.0,0.0,0.0,0.0,0.0,0.0,0.0,0.0,0.0,0.0,0.0,0.0,0.0,-3.7783,-3.737,-3.6297,-3.6927,-3.7942,-3.7204,-3.7166,-3.7488,-3.8057,-3.8061,-3.8133,-3.9282,-3.9695,-3.9783,-3.9644,-3.9714,0.0,0.0,-3.9191,-3.9465,-3.9531,-4.0782,-4.2688,-4.5395,-4.6699,-4.8478,-5.1665,-5.2236,-5.2381,0.0,-5.2653,-5.2481,-5.1773,-5.1637,0.0,0.0,-4.8816,-4.7474,-4.6346,-4.5399,-4.4473,-4.3639,-4.366,-4.3555,-4.342,-4.1711,-4.0354,-3.9366,-3.8241,-3.7064,-3.5933,-3.5769,-3.5599,-3.5389,-3.5325,-3.4637,-3.3499,-3.3499,-3.3124,-3.2526,-3.2481,-3.2716,-3.2838,-3.1005,-3.0238,-2.9962,0.0,0.0,0.0,0.0,0.0,0.0,0.0,0.0,-2.9267,-2.9872,-3.0133,-3.0095,-2.9706,-3.0148,0.0,0.0,0.0,0.0,0.0,0.0,0.0,0.0,0.0,0.0,0.0,0.0,0.0,0.0,0.0,0.0,0.0,0.0,0.0,0.0,0.0,0.0,0.0,0.0,0.0,0.0,0.0,0.0,0.0,0.0,0.0,0.0,0.0,0.0,0.0,0.0,-3.8411,-3.8091,-3.7403,-3.7941,-3.8571,-3.7393,-3.7416,-3.7809,-3.7703,-3.7649,-3.7846,-3.8977,-3.9317,-3.9238,-3.8514,0.0,0.0,0.0,-3.8407,-3.9203,-3.9234,-4.1037,0.0,-4.4562,-4.6023,-4.8109,-5.1411,-5.1502,-5.1719,-5.2987,-5.2389,-5.1765,-5.1429,-5.0587,-4.9739,-4.899,-4.7186,-4.6058,-4.5978,-4.4343,-4.3162,-4.2753,-4.2348,-4.2109,-4.2055,-4.0571,-3.9335,-3.8334,-3.7528,-3.66,-3.5589,-3.5554,-3.531,-3.4966,-3.4902,-3.4271,-3.3332,-3.2882,-3.2509,-3.2077,-3.1677,-3.1661,-3.1684,-3.0284,-2.9536,-2.9111,0.0,0.0,0.0,0.0,0.0,0.0,0.0,-2.8834,-2.9203,-3.0068,-3.0254,-3.0318,-3.0387,-3.0529,-3.0606,0.0,0.0,0.0,0.0,0.0,0.0,0.0,0.0,0.0,0.0,0.0,0.0,-1.5397,0.0,0.0,0.0,0.0,0.0,0.0,0.0,0.0,0.0,0.0,0.0,0.0,0.0,0.0,0.0,0.0,0.0,0.0,0.0,0.0,0.0,0.0,-3.8472,-3.8135,-3.8028,-3.8505,-3.8785,-3.7204,-3.7497,-3.8217,-3.7685,-3.7702,-3.7988,-3.869,-3.885,-3.8479,-3.7007,-3.7179,0.0,0.0,-3.7282,-3.8427,-3.8865,-4.0964,-4.2818,0.0,-4.4948,-4.7288,-5.0675,-5.0558,-5.1012,0.0,-5.2172,0.0,-5.1049,-4.9601,0.0,-4.7493,-4.5441,-4.4458,-4.5082,-4.3271,-4.2112,-4.1816,-4.1244,-4.0889,-4.0799,-3.9566,-3.8495,-3.7589,-3.7071,-3.6383,-3.5504,-3.5504,-3.5205,-3.4696,-3.449,-3.3966,-3.3193,-3.2505,-3.2029,-3.1659,-3.1026,-3.0702,-3.0447,-2.9685,-2.8903,-2.8249,0.0,0.0,0.0,0.0,0.0,0.0,0.0,-2.881,-2.915,-3.0075,-3.0249,-3.0646,-3.1548,-3.1224,-3.1074,0.0,0.0,0.0,0.0,0.0,0.0,0.0,0.0,0.0,0.0,0.0,0.0,-2.1853,-2.1758,0.0,0.0,0.0,0.0,0.0,0.0,-2.9671,0.0,0.0,0.0,0.0,0.0,0.0,0.0,0.0,0.0,0.0,0.0,0.0,0.0,0.0,0.0,-3.7511,-3.8085,-3.8611,-3.8692,-3.7082,0.0,0.0,-3.8434,-3.8472,-3.8506,-3.8097,-3.7605,-3.6844,-3.5351,0.0,0.0,-3.5366,-3.5844,-3.6831,-3.8739,-3.9454,-4.0653,0.0,0.0,-4.6121,-5.0044,-5.0495,-5.0994,-5.2454,0.0,0.0,-5.0271,-4.8749,-4.7476,-4.6675,-4.3588,-4.1643,-4.1476,-4.1909,-4.1732,-4.097,-4.0833,-4.0799,-4.0799,-3.9904,-3.8843,-3.7589,-3.7429,-3.6662,-3.5504,-3.5504,-3.5474,-3.5415,-3.5204,-3.4426,-3.3268,-3.3007,-3.21,-3.0909,-3.085,-3.0326,-2.9608,-2.8889,-2.8182,-2.7484,0.0,0.0,0.0,0.0,0.0,0.0,-2.8438,-2.9043,-2.9944,-3.1289,-3.1908,-3.2617,-3.36,-3.3189,-3.2385,0.0,0.0,0.0,0.0,0.0,0.0,0.0,0.0,0.0,0.0,0.0,0.0,-2.8005,-2.7971,0.0,0.0,0.0,0.0,0.0,0.0,-3.0751,-3.0337,0.0,0.0,0.0,0.0,0.0,0.0,0.0,0.0,0.0,0.0,0.0,0.0,0.0,0.0,0.0,-3.6217,-3.6855,0.0,0.0,-3.7752,-3.8411,-3.8106,-3.8277,-3.8302,-3.7416,-3.7048,-3.6512,-3.5132,0.0,-3.6163,-3.57,-3.6583,-3.7648,-3.8264,-3.9543,-4.0882,0.0,0.0,0.0,-4.7931,-4.7929,-4.8466,-5.0786,-4.9908,0.0,0.0,0.0,-4.5287,-4.2892,-4.1306,-3.9962,-3.8824,-3.9126,-3.9159,-3.8705,-3.8688,-3.887,-3.9215,-3.888,-3.8487,-3.7994,-3.7589,-3.689,-3.6022,-3.5539,-3.5135,-3.4684,-3.441,-3.378,-3.2941,-3.2328,-3.1737,-3.118,-3.0848,-3.0507,-3.0054,-2.8953,-2.8298,-2.7973,0.0,0.0,0.0,0.0,0.0,-2.7926,-2.829,-2.9194,-3.0358,-3.181,-3.2683,-3.3642,-3.488,-3.4347,-3.3382,-3.2107,0.0,0.0,0.0,0.0,0.0,0.0,0.0,0.0,0.0,0.0,-3.0907,-3.159,-3.1847,-3.2204,0.0,0.0,-3.2263,-3.1707,0.0,0.0,0.0,0.0,0.0,0.0,0.0,0.0,0.0,0.0,0.0,0.0,0.0,0.0,0.0,0.0,0.0,0.0,0.0,0.0,0.0,0.0,-3.768,-3.8147,-3.805,-3.8331,-3.8397,-3.7343,-3.6795,-3.6254,0.0,0.0,-3.649,-3.5828,-3.7088,-3.8372,-3.854,-4.0033,-4.1193,0.0,0.0,-4.4457,-4.6121,-4.6287,-4.7126,-4.9488,0.0,-4.7995,-4.8496,-4.6295,-4.3458,-4.0061,-3.9599,-3.8682,-3.6987,-3.6802,-3.6886,-3.722,-3.7236,-3.7435,-3.788,-3.7975,-3.7986,-3.7875,-3.7377,-3.6829,-3.618,-3.525,-3.4599,-3.4125,-3.3627,-3.3074,0.0,-3.1776,-3.1409,-3.1192,-3.0756,-3.0372,-2.9856,-2.8889,-2.8247,-2.7789,0.0,0.0,0.0,0.0,0.0,0.0,0.0,-2.9186,-3.0087,-3.1185,-3.1963,-3.3058,-3.4807,-3.4202,-3.3797,-3.4068,0.0,0.0,0.0,0.0,0.0,0.0,0.0,0.0,0.0,0.0,-3.1058,-3.1804,-3.2664,-3.2991,-3.279,-3.2732,-3.2688,-3.2634,0.0,0.0,0.0,0.0,0.0,0.0,0.0,0.0,0.0,0.0,0.0,0.0,0.0,0.0,0.0,0.0,0.0,0.0,0.0,0.0,0.0,0.0,-3.7719,-3.8591,-3.8523,-3.8867,-3.9082,-3.8217,-3.6942,-3.5739,0.0,-3.5055,-3.5174,-3.5388,-3.6886,-3.8601,-3.9872,-4.0565,-4.1112,-4.1438,0.0,0.0,-4.4879,-4.644,-4.785,0.0,0.0,-4.7861,-4.7717,-4.5341,-4.2448,-3.9171,-3.8729,-3.7837,-3.6091,-3.5313,-3.5595,-3.7069,-3.7102,-3.7119,-3.7119,-3.7538,-3.7438,-3.683,-3.6667,-3.6259,-3.5657,-3.4515,-3.3977,-3.3932,-3.3138,-3.2416,0.0,-3.1587,-3.1148,-3.0582,-3.0568,-2.9732,-2.8492,-2.8492,-2.767,-2.6465,0.0,0.0,0.0,0.0,0.0,0.0,0.0,-2.9503,-3.0921,-3.1963,-3.3762,-3.4914,-3.4924,-3.5789,-3.5919,-3.4788,0.0,0.0,0.0,0.0,0.0,0.0,0.0,0.0,0.0,0.0,-3.2559,-3.3306,-3.3628,-3.4005,-3.4446,-3.4318,-3.3982,-3.3429,-3.3195,0.0,0.0,0.0,0.0,0.0,0.0,0.0,0.0,0.0,0.0,0.0,0.0,0.0,0.0,0.0,0.0,0.0,0.0,0.0,0.0,0.0,0.0,0.0,-3.8534,-3.8897,-3.8815,-3.7564,-3.6572,-3.5891,-3.5878,-3.6407,-3.6998,-3.7485,-3.8839,-3.9995,-4.0266,-4.1061,-4.1776,-4.2075,-4.3258,0.0,0.0,0.0,0.0,-4.731,-4.713,-4.649,0.0,-4.3862,-4.1627,-3.8325,-3.8374,-3.7553,-3.5361,-3.5495,-3.5876,-3.634,-3.586,-3.5843,-3.634,-3.6304,-3.6408,-3.6739,-3.5739,-3.5208,-3.4985,-3.3716,-3.2952,-3.2434,-3.2057,-3.1544,-3.0993,-3.0933,-3.0756,-3.0568,-3.0568,-2.9993,-2.8967,-2.8505,-2.7657,-2.6637,0.0,0.0,0.0,0.0,0.0,0.0,0.0,-2.9533,-3.1046,-3.1819,-3.3881,-3.532,-3.5467,-3.6223,-3.6537,-3.6057,0.0,0.0,0.0,0.0,0.0,0.0,0.0,0.0,0.0,-3.2979,-3.3672,-3.4079,-3.4461,-3.4841,-3.5219,-3.5102,-3.4767,-3.4291,-3.3965,0.0,0.0,0.0,0.0,0.0,0.0,0.0,-3.5691,0.0,0.0,0.0,0.0,0.0,0.0,0.0,0.0,0.0,0.0,0.0,0.0,0.0,-3.8442,0.0,0.0,-3.875,-3.8361,-3.7767,-3.6888,0.0,-3.7124,-3.783,-3.8479,-3.9031,-4.0345,-4.1261,-4.1069,-4.1695,-4.2327,-4.2508,-4.337,-4.4121,0.0,0.0,0.0,-4.6202,0.0,0.0,0.0,-4.2997,-4.1359,-3.8377,-3.8391,-3.745,-3.5013,-3.5346,-3.553,-3.5432,-3.4723,-3.4605,-3.5068,-3.4676,-3.4834,-3.5548,-3.4516,-3.4152,-3.4324,-3.2971,-3.2043,-3.162,-3.1078,-3.0582,0.0,-2.9958,-2.9798,-2.9665,-2.9473,-2.8904,-2.8042,-2.732,-2.6622,-2.5803,0.0,0.0,0.0,0.0,0.0,0.0,0.0,0.0,0.0,-3.1003,-3.2755,-3.4576,-3.6168,-3.5818,-3.6093,-3.7562,0.0,0.0,0.0,0.0,0.0,0.0,0.0,0.0,0.0,-3.4005,-3.443,-3.4295,-3.5098,-3.5449,-3.5308,-3.519,-3.5124,-3.5072,-3.4204,0.0,0.0,0.0,0.0,0.0,0.0,0.0,0.0,0.0,0.0,0.0,0.0,0.0,0.0,0.0,0.0,0.0,0.0,0.0,0.0,0.0,0.0,0.0,0.0,-3.8707,0.0,0.0,0.0,0.0,-3.8822,-3.9352,0.0,-4.0189,-4.147,-4.2441,-4.2239,-4.2535,-4.2828,-4.288,-4.3119,-4.3258,0.0,-4.4962,0.0,0.0,-4.5581,-4.4828,-4.3174,-4.2691,-4.152,-3.9101,-3.8712,-3.7496,-3.5013,-3.4949,-3.4853,-3.4497,-3.3807,-3.343,-3.3479,-3.2951,-3.299,-3.3578,-3.3039,-3.3122,-3.3638,-3.2088,-3.138,-3.1322,-3.0029,-2.9493,-2.945,-2.8856,-2.844,-2.814,-2.7692,-2.6909,-2.6008,-2.5508,-2.4898,-2.4222,0.0,0.0,0.0,0.0,0.0,0.0,0.0,0.0,0.0,0.0,-3.3471,-3.5143,-3.5584,-3.6626,-3.7431,0.0,0.0,0.0,0.0,0.0,0.0,0.0,0.0,0.0,0.0,-3.4757,-3.5225,-3.5194,-3.5437,-3.5534,-3.5451,-3.5422,-3.5369,-3.532,-3.5063,0.0,0.0,0.0,0.0,0.0,0.0,0.0,0.0,0.0,0.0,0.0,-3.7625,-3.8565,0.0,0.0,0.0,0.0,0.0,0.0,0.0,0.0,-3.9909,-3.9848,-4.064,0.0,-3.9872,-4.0001,-3.9807,-3.9826,0.0,-4.1203,-4.1528,0.0,0.0,-4.3495,-4.3302,-4.3416,-4.3652,-4.3903,-4.4046,-4.4327,-4.4899,-4.603,0.0,-4.6533,-4.5927,-4.5103,-4.4086,-4.2605,-4.0913,-3.9066,-3.8668,-3.745,-3.5013,-3.5429,-3.5382,-3.4513,-3.311,-3.2624,-3.3177,-3.2852,-3.2618,-3.242,-3.2235,-3.2025,-3.1885,-3.0646,-3.0074,-2.9957,-2.9001,-2.8541,-2.8527,-2.8139,-2.7967,-2.7909,-2.7778,-2.6982,-2.5834,-2.5709,-2.4963,-2.3845,0.0,0.0,0.0,0.0,0.0,0.0,0.0,0.0,0.0,0.0,0.0,0.0,0.0,0.0,0.0,0.0,0.0,0.0,0.0,0.0,0.0,0.0,0.0,0.0,-3.5786,-3.6306,-3.6593,-3.6652,-3.6312,-3.6312,-3.6593,-3.6157,-3.6136,-3.645,-3.6036,0.0,0.0,0.0,0.0,0.0,-3.652,0.0,0.0,0.0,0.0,0.0,-3.7959,-3.9035,0.0,-3.995,-4.0088,-4.0508,0.0,0.0,0.0,0.0,-4.0611,-4.0826,-4.1264,-4.0776,-4.0303,-4.1031,-4.099,-4.0985,-4.1758,0.0,0.0,0.0,0.0,-4.325,-4.3474,-4.3679,-4.3998,-4.4606,-4.4434,-4.4442,0.0,0.0,-4.592,-4.5807,-4.533,-4.4543,-4.3304,-4.21,-4.0556,-3.85,-3.8131,-3.6939,-3.4499,-3.4767,-3.4508,-3.3403,-3.2138,-3.1817,-3.2402,-3.1534,-3.1019,-3.0885,-3.0654,-3.0463,-3.0372,-2.9391,-2.8958,-2.8915,-2.7983,-2.7541,-2.7485,-2.6806,-2.6469,-2.626,-2.5548,-2.4744,-2.3955,-2.3539,-2.296,-2.2282,0.0,0.0,0.0,0.0,0.0,0.0,0.0,0.0,0.0,0.0,0.0,0.0,0.0,0.0,0.0,0.0,0.0,0.0,0.0,0.0,0.0,0.0,0.0,-3.6691,-3.7759,-3.7792,-3.7855,-3.7973,-3.7313,-3.7319,-3.7886,-3.7229,-3.7297,-3.7915,-3.7075,-3.7094,0.0,0.0,-3.7105,-3.8854,-3.6857,0.0,0.0,0.0,0.0,0.0,0.0,0.0,0.0,-4.0579,-4.0593,-4.0588,-4.0642,0.0,0.0,0.0,0.0,0.0,-4.1666,-4.0898,-4.0397,-4.2035,-4.2059,-4.1855,0.0,0.0,0.0,0.0,0.0,0.0,0.0,-4.3494,0.0,0.0,0.0,0.0,-4.4799,-4.4782,-4.4691,-4.4602,-4.4382,-4.3597,-4.2032,-4.1377,-4.0149,-3.793,-3.7342,-3.6112,-3.3977,-3.3719,-3.3113,-3.2028,-3.1267,-3.1048,-3.1374,-2.9974,-2.9391,-2.9596,-2.9205,-2.9079,-2.9114,-2.8293,-2.7869,-2.7683,-2.6708,0.0,-2.6245,-2.5154,-2.4577,-2.4255,-2.287,-2.2146,-2.1788,-2.1018,-2.0644,-2.061,0.0,0.0,0.0,0.0,0.0,0.0,0.0,0.0,0.0,0.0,0.0,0.0,0.0,0.0,0.0,0.0,0.0,0.0,0.0,0.0,0.0,0.0,-3.8355,-3.726,-3.7622,-3.7814,-3.7859,-3.7824,-3.7877,-3.7918,-3.7993,-3.859,-3.8945,-3.9012,-3.8082,-3.7794,-3.7993,-3.8424,-3.8827,-3.915,-3.877,0.0,0.0,0.0,0.0,0.0,0.0,0.0,0.0,-4.0438,-4.0469,-4.0519,-4.0534,0.0,0.0,0.0,0.0,0.0,-4.2386,-4.2103,-4.1724,-4.3118,-4.3895,-4.4364,-4.4454,0.0,0.0,0.0,0.0,0.0,0.0,-4.301,-4.3417,0.0,0.0,-4.4397,0.0,0.0,-4.4691,-4.4602,-4.3889,-4.2978,-4.1978,-4.042,-3.9079,-3.8201,-3.6475,-3.5086,-3.4269,-3.3356,-3.2586,-3.2012,-3.1267,-3.076,-3.0434,-3.018,-2.9878,-2.9546,-2.9648,-2.9192,-2.8106,-2.7126,-2.6272,-2.5533,0.0,-2.4177,-2.4149,-2.3656,-2.3469,-2.3363,-2.2764,-2.2281,-2.1843,-2.1344,-2.0917,-2.061,0.0,0.0,0.0,0.0,0.0,0.0,0.0,0.0,0.0,0.0,0.0,0.0,0.0,0.0,0.0,0.0,0.0,0.0,0.0,0.0,0.0,-4.1233,-4.0068,-3.9275,-3.8994,-3.9103,-3.9188,-3.9253,-3.8959,-3.9006,-3.9413,-3.9807,-4.0,-3.9967,-3.9105,-3.897,-3.9369,-3.8835,-3.9143,-3.9875,0.0,0.0,0.0,0.0,0.0,0.0,0.0,0.0,0.0,0.0,-4.0489,-4.0554,-4.0549,0.0,0.0,0.0,0.0,0.0,-4.2194,-4.2085,-4.2115,-4.3637,-4.4263,-4.4328,-4.3869,0.0,0.0,0.0,0.0,0.0,0.0,0.0,-4.3074,-4.3634,0.0,-4.4423,-4.4579,-4.4251,-4.3979,-4.3961,-4.2721,-4.1486,-4.0527,-3.8744,-3.7218,-3.6236,-3.5047,-3.4157,-3.3708,-3.2586,-3.1761,-3.1396,-3.0593,-2.995,-2.9611,-2.9232,-2.8936,-2.8633,-2.8438,-2.7688,-2.65,-2.5531,-2.4845,-2.4319,0.0,-2.345,-2.3409,-2.2926,-2.2585,-2.235,-2.1603,-2.1054,-2.0618,-2.02,-1.994,-1.9744,0.0,0.0,0.0,0.0,0.0,0.0,0.0,0.0,0.0,0.0,0.0,0.0,0.0,0.0,0.0,0.0,0.0,0.0,0.0,0.0,-4.1442,-4.1909,-4.1502,-4.0914,-4.0139,-3.9986,-3.9962,-4.0134,-3.9436,-3.9528,-4.0356,-4.0552,-4.0662,-4.0629,-3.9992,-4.0152,-4.0847,-3.9573,-3.9882,-4.1117,0.0,0.0,0.0,0.0,0.0,0.0,0.0,0.0,0.0,0.0,0.0,0.0,0.0,0.0,0.0,-4.0841,-4.1079,-4.1624,-4.1856,-4.175,-4.1956,-4.3602,0.0,-4.3829,-4.3713,0.0,0.0,0.0,0.0,0.0,0.0,-4.252,0.0,-4.3385,-4.4011,-4.4268,-4.3811,-4.341,-4.3101,-4.3031,-4.1338,-3.9801,-3.8993,-3.7201,-3.567,-3.4598,-3.3835,-3.3267,-3.2993,-3.1692,-3.0831,-3.059,-2.9733,-2.9141,-2.8884,-2.816,-2.7857,-2.7913,-2.7081,-2.6098,-2.5034,-2.4112,-2.3529,-2.3165,-2.291,-2.2769,-2.2728,-2.2291,-2.1851,-2.1391,-2.0552,-1.9926,-1.9408,-1.9093,-1.8987,-1.8987,0.0,0.0,0.0,0.0,0.0,0.0,0.0,0.0,0.0,0.0,0.0,0.0,0.0,0.0,0.0,0.0,0.0,0.0,0.0,0.0,-4.2042,-4.3729,-4.2316,-4.0996,-3.9951,-3.9299,-3.8992,-3.9029,-3.8455,-3.869,-3.968,-4.0447,-4.0804,-4.0788,-4.0667,-4.11,-4.188,-4.1776,-4.2259,-4.3079,-4.2916,0.0,0.0,0.0,0.0,0.0,0.0,0.0,0.0,0.0,0.0,0.0,0.0,0.0,-4.0866,-4.0808,-4.0831,-4.1036,-4.179,-4.1441,-4.1235,-4.2787,-4.314,0.0,-4.5839,-4.4702,0.0,0.0,0.0,0.0,0.0,-4.1981,-4.2595,-4.3351,-4.3534,-4.3793,-4.4419,-4.3211,-4.2225,-4.2014,-3.9922,-3.835,-3.8023,-3.636,-3.5171,-3.4978,-3.3352,-3.2405,-3.2364,-3.0813,-2.9802,-2.9595,-2.8846,-2.8363,-2.8158,-2.7391,-2.7303,-2.7886,-2.6412,-2.5161,-2.4168,-2.3293,-2.2385,-2.1545,-2.1559,-2.1559,-2.1545,-2.1505,-2.1233,-2.0812,-2.0385,-1.9708,-1.904,-1.8987,-1.8987,-1.8987,0.0,0.0,0.0,0.0,0.0,0.0,0.0,0.0,0.0,0.0,0.0,0.0,0.0,0.0,0.0,0.0,0.0,0.0,0.0,0.0,-4.2544,-4.3233,-4.2641,-4.1628,-4.0195,-3.9375,-3.8973,-3.8973,-3.8892,-3.9348,-4.0297,-4.1183,-4.1892,-4.2404,-4.1831,-4.2051,-4.2846,-4.2286,-4.2563,-4.3312,-4.256,-4.2155,0.0,0.0,0.0,0.0,0.0,0.0,0.0,0.0,-3.9762,-4.0612,0.0,-4.0688,-4.08,-4.08,-4.0804,-4.0873,-4.1183,-4.1434,-4.1744,-4.2284,0.0,0.0,0.0,0.0,0.0,0.0,0.0,0.0,0.0,0.0,-4.2818,-4.2121,-4.2399,-4.2622,-4.2388,-4.1752,-4.1247,-4.1177,-3.8862,-3.7228,-3.704,-3.4938,-3.3439,-3.3106,-3.2128,-3.1449,-3.1247,-3.0201,-2.9351,-2.8814,-2.8427,-2.7917,-2.7375,-2.6639,-2.619,-2.5937,-2.5259,-2.4515,-2.3692,-2.2656,-2.1883,-2.1423,-2.1423,-2.1423,-2.1375,-2.1104,-2.0598,-1.9842,-1.9196,-1.8544,-1.8049,-1.8168,-1.8235,-1.8235,0.0,0.0,0.0,0.0,0.0,0.0,0.0,0.0,0.0,0.0,0.0,0.0,0.0,0.0,0.0,0.0,0.0,0.0,0.0,-4.2393,-4.2507,-4.2794,-4.2545,-4.1858,-4.0711,-3.9584,-3.9011,-3.9011,-3.8888,-3.9191,-3.9876,-4.1067,-4.1931,-4.2479,-4.215,-4.2467,-4.3208,-4.2369,-4.2491,-4.3197,-4.2665,-4.2203,0.0,0.0,0.0,0.0,0.0,0.0,0.0,0.0,-3.958,-4.0406,0.0,0.0,0.0,0.0,-4.0919,-4.11,-4.119,-4.1603,-4.2073,0.0,0.0,0.0,0.0,0.0,0.0,0.0,-4.2191,0.0,0.0,0.0,0.0,-4.091,-4.1339,-4.1601,-4.1019,-4.0573,-4.0215,-3.9857,-3.7749,-3.6141,-3.5703,-3.3771,-3.237,-3.1841,-3.1261,-3.0788,-3.0402,-2.9539,-2.8793,-2.824,-2.7696,-2.7107,-2.6522,-2.579,-2.5137,-2.4474,-2.4149,-2.3664,-2.3041,-2.213,-2.1568,-2.1423,-2.1423,-2.1423,-2.1348,-2.0917,-2.0105,-1.9022,-1.8202,-1.7649,-1.7325,-1.742,-1.7436,-1.7447,0.0,0.0,0.0,0.0,0.0,0.0,0.0,0.0,0.0,0.0,0.0,0.0,0.0,0.0,0.0,0.0,0.0,0.0,0.0,-4.1495,-4.1877,-4.2737,-4.1953,-4.1495,-4.1495,-3.9852,-3.9011,-3.8992,-3.8249,-3.795,-3.8053,-3.9816,-4.0579,-4.0554,-4.142,-4.2252,-4.2931,-4.214,-4.2225,-4.2964,-4.377,-4.3005,-4.1495,0.0,0.0,0.0,0.0,0.0,0.0,0.0,-3.947,-4.0233,0.0,0.0,0.0,-4.0626,-4.1161,-4.1771,-4.2015,-4.195,-4.2035,0.0,0.0,0.0,0.0,0.0,0.0,0.0,0.0,-4.0025,-4.0007,-3.9963,0.0,-3.9882,-4.0514,-4.0928,-4.0789,-4.0029,-3.9093,-3.8023,-3.6476,-3.505,-3.3913,-3.3016,-3.2232,-3.1657,-3.0988,-3.0402,-2.9946,-2.8782,-2.8034,-2.7913,-2.6518,-2.577,-2.5701,-2.4922,-2.4276,-2.3782,-2.3201,-2.2663,-2.2184,-2.1664,-2.1423,-2.1423,-2.1423,-2.1423,-2.1321,-2.0711,-1.9688,-1.841,-1.746,-1.7093,-1.7032,-1.6811,-1.67,-1.67,0.0,0.0,0.0,0.0,0.0,0.0,0.0,0.0,0.0,0.0,0.0,0.0,0.0,0.0,0.0,0.0,0.0,0.0,0.0,-4.1189,-4.1361,-4.1055,-4.1342,-4.1246,-4.0673,-4.0177,-3.9317,-3.8094,-3.7961,-3.8501,-3.9738,-4.1523,-4.2054,-4.1514,-4.2348,-4.2541,-4.2213,-4.1917,-4.2271,-4.3044,-4.31,-4.2544,-4.1677,0.0,0.0,0.0,0.0,0.0,0.0,0.0,0.0,0.0,-4.0042,0.0,0.0,-4.0523,-4.1078,-4.1759,-4.1152,-4.1373,0.0,-4.2106,0.0,0.0,0.0,0.0,0.0,0.0,-4.1886,-4.0791,-3.9464,-4.0068,0.0,-3.9239,-3.9589,-3.9801,-3.9185,-3.834,-3.7576,-3.7122,-3.5567,-3.4311,-3.3793,-3.2844,-3.2108,-3.1637,-3.0988,-3.046,-3.0113,-2.8738,-2.7709,-2.7209,-2.6255,-2.5441,-2.4834,-2.4606,-2.4051,-2.3157,-2.2979,-2.2663,-2.2184,-2.1568,-2.1277,-2.1277,-2.1277,-2.1062,-2.0556,-1.8976,-1.7911,-1.7254,-1.6515,-1.602,-1.5707,-1.5813,-1.5841,-1.5841,0.0,0.0,0.0,0.0,0.0,0.0,0.0,0.0,0.0,0.0,0.0,0.0,0.0,0.0,0.0,0.0,0.0,0.0,0.0,0.0,-4.0807,-4.0329,-4.1074,-4.1437,-4.1304,-4.096,-4.0425,-3.9737,-3.881,-3.9071,-4.0396,-4.1841,-4.222,-4.1758,-4.2242,-4.2011,-4.1239,-4.0844,-4.0946,-4.143,-4.1954,-4.1705,-4.1036,0.0,0.0,0.0,0.0,0.0,0.0,0.0,0.0,0.0,0.0,0.0,0.0,-4.0253,-4.0824,-4.1564,-4.1411,-4.1663,0.0,-4.2467,-4.2063,-4.1581,-4.1601,0.0,0.0,0.0,0.0,-4.0234,-3.9076,-3.9522,0.0,-3.8774,-3.8885,-3.8773,-3.7889,-3.725,-3.6561,-3.5661,-3.4599,-3.3702,-3.316,-3.2476,-3.1912,-3.1449,-3.0828,-3.0309,-2.9913,-2.8351,-2.7199,-2.6764,-2.5768,-2.4942,-2.4416,-2.44,-2.3867,-2.2844,-2.2844,-2.2434,-2.1712,-2.1375,-2.1046,-2.0796,-2.1037,-2.0566,-1.9582,-1.8219,-1.7127,-1.6248,-1.5649,-1.5233,-1.496,-1.5032,-1.5048,-1.5048,0.0,0.0,0.0,0.0,0.0,0.0,0.0,0.0,0.0,0.0,0.0,0.0,0.0,0.0,0.0,0.0,0.0,0.0,0.0,0.0,-4.031,-4.031,-4.1113,-4.1953,-4.2775,-4.1991,-4.1972,-4.2794,-4.0385,-3.9619,-4.0444,-4.1208,-4.1475,-4.1285,-4.1361,-4.0903,-4.0024,-3.9221,-3.8861,-3.8956,-4.0554,-4.0701,-4.0027,-4.0821,0.0,0.0,0.0,0.0,0.0,0.0,0.0,0.0,-3.9665,-3.975,-3.9834,-3.9958,-4.046,-4.1241,-4.2292,0.0,0.0,-4.3477,-4.2525,0.0,-4.1453,-4.0654,-3.9878,-3.9892,0.0,-3.8892,-3.8822,-3.8652,-3.851,-3.851,-3.8314,-3.786,-3.6934,-3.6618,-3.5787,-3.4002,-3.367,-3.3213,-3.2284,-3.202,-3.1674,-3.1201,-3.0666,-3.0123,-2.9589,-2.7778,-2.6673,-2.6525,-2.5195,-2.44,-2.4302,-2.4302,-2.3767,-2.274,-2.2637,-2.2011,-2.0953,-2.1051,-2.077,-2.0193,-2.0678,-2.004,-1.8626,-1.8226,-1.7078,-1.5572,-1.4948,-1.4695,-1.4651,-1.4477,-1.4373,-1.4373,0.0,0.0,0.0,0.0,0.0,0.0,0.0,0.0,0.0,0.0,0.0,0.0,0.0,0.0,0.0,0.0,0.0,0.0,0.0,0.0,-4.031,-4.031,-4.1466,-4.2341,-4.2794,-4.2341,-4.2343,-4.2795,-4.0959,-4.0444,-4.1246,0.0,0.0,-3.9565,0.0,-3.9699,-3.8247,-3.8056,-3.8363,-3.9051,-4.0101,-4.0387,-4.0291,-4.0992,-4.0677,0.0,0.0,0.0,0.0,0.0,0.0,0.0,-3.9626,-4.0113,-4.058,-3.9892,-4.0413,-4.1271,-4.1399,-4.094,0.0,0.0,-4.1825,-4.0919,-4.0577,-4.0156,-4.0,-4.0624,-3.994,-3.9129,-3.8833,-3.8652,-3.851,-3.851,-3.7725,-3.7058,-3.6844,-3.5565,-3.4436,-3.3861,-3.3175,-3.2581,-3.2161,-3.1929,-3.1746,-3.1487,-3.1004,-3.046,-3.0011,-2.8137,-2.6902,-2.6525,-2.5095,-2.4317,-2.4302,-2.4234,-2.3882,-2.3231,-2.2323,-2.1502,-2.0737,-2.0388,-2.0205,-2.0038,-2.0157,-1.9812,-1.9083,-1.8065,-1.6943,-1.5823,-1.523,-1.4818,-1.4466,-1.443,-1.4373,-1.4373,0.0,0.0,0.0,0.0,0.0,0.0,0.0,0.0,0.0,0.0,0.0,0.0,0.0,0.0,0.0,0.0,0.0,0.0,0.0,0.0,0.0,-4.1029,-4.21,-4.2853,-4.318,-4.3388,-4.327,-4.2795,-4.1934,0.0,0.0,0.0,0.0,-3.9659,0.0,-3.979,-3.7819,-3.8221,-3.8412,-3.8567,-3.9812,-4.0309,-4.0329,-4.0692,-4.0478,-3.9994,-3.9848,0.0,0.0,0.0,0.0,0.0,0.0,0.0,-4.0145,-3.9226,-3.9684,-4.0465,-4.0396,0.0,0.0,-4.2417,0.0,-4.0858,-4.0561,-4.0141,-3.9879,-4.0131,-3.9682,-3.9137,-3.8725,-3.8541,-3.8287,-3.7758,-3.7163,-3.6422,-3.5482,-3.4528,-3.3684,-3.309,-3.2546,-3.2144,-3.1965,-3.1819,-3.1634,-3.1466,-3.1004,-3.0502,-2.9968,-2.818,-2.6918,-2.6483,-2.5025,-2.4234,-2.4234,-2.4166,-2.3696,-2.286,-2.2259,-2.136,-2.0234,-2.0025,-2.004,-2.0351,-2.0351,-1.9729,-1.8734,-1.8105,-1.7093,-1.5856,-1.529,-1.4952,-1.4701,-1.446,-1.4373,-1.4373,0.0,0.0,0.0,0.0,0.0,0.0,0.0,0.0,0.0,0.0,0.0,0.0,0.0,0.0,0.0,0.0,0.0,0.0,0.0,0.0,0.0,0.0,-4.264,-4.3198,-4.3515,-4.4128,-4.3872,-4.2673,0.0,0.0,0.0,0.0,0.0,-4.0537,0.0,-4.0224,-3.8137,-3.8671,-3.8594,-3.8213,-3.9559,-4.0173,-4.0307,-4.031,-4.0215,-4.0096,-3.9975,-3.9829,-3.9693,-3.9631,0.0,0.0,0.0,0.0,-3.9358,-3.8496,-3.8783,-3.9408,-3.9564,0.0,-4.2096,-4.2595,-4.1818,0.0,-4.0798,-4.0217,-3.9595,-3.9331,-3.9219,-3.9027,-3.8585,-3.8446,-3.8067,-3.7166,-3.6708,-3.5876,-3.4233,-3.3653,-3.3125,-3.2301,-3.202,-3.1839,-3.18,-3.1671,-3.1504,-3.1295,-3.0925,-3.0418,-2.9837,-2.8153,-2.6934,-2.638,-2.4912,-2.4166,-2.4166,-2.4024,-2.3465,-2.2466,-2.2235,-2.1321,-1.9799,-1.9904,-2.0152,-2.0568,-2.066,-1.98,-1.8353,-1.8353,-1.7392,-1.5851,-1.5421,-1.5181,-1.505,-1.4559,-1.4373,-1.4326,0.0,0.0,0.0,0.0,0.0,0.0,0.0,0.0,0.0,0.0,0.0,0.0,0.0,0.0,0.0,0.0,0.0,0.0,-3.9156,0.0,0.0,-4.1849,-4.2445,-4.2922,-4.3262,-4.3072,-4.2707,-4.2189,0.0,0.0,0.0,0.0,0.0,-4.1397,0.0,0.0,-3.8889,-3.8326,-3.8402,-3.8958,-3.9157,-3.9675,-4.0307,-4.031,-4.0215,-4.0096,-4.0077,-3.9892,-3.9693,-3.9693,-3.9477,0.0,0.0,0.0,-3.9088,-3.8268,-3.8247,-3.8638,0.0,0.0,-4.1734,0.0,-4.0663,-4.0505,0.0,0.0,-3.9253,0.0,-3.9063,-3.8915,-3.8585,-3.8401,-3.8219,-3.7873,-3.6516,-3.5276,-3.4748,-3.3371,-3.2336,-3.2126,-3.1929,-3.18,-3.18,-3.1504,-3.1334,-3.1295,-3.1213,-3.0757,-2.9853,-2.8349,-2.7116,-2.6274,-2.4783,-2.4024,-2.4024,-2.3882,-2.3566,-2.2979,-2.1969,-2.0919,-1.9826,-2.0358,-2.0358,-1.9943,-2.0489,-1.9991,-1.8879,-1.8879,-1.7926,-1.6383,-1.5872,-1.5476,-1.505,-1.4559,-1.4373,-1.4326,0.0,0.0,0.0,0.0,0.0,0.0,0.0,0.0,0.0,0.0,0.0,0.0,0.0,0.0,0.0,-3.8707,-3.8851,-3.895,-3.895,-3.9777,-4.0399,-4.0752,-4.1872,-4.2174,-4.1586,-4.231,-4.2006,0.0,0.0,0.0,0.0,-4.2066,-4.2082,0.0,0.0,0.0,0.0,-3.9989,-3.997,-3.9874,-3.9842,-4.0306,0.0,0.0,-4.0058,-3.9854,-3.9739,-3.9532,-3.9294,-3.9253,-3.9137,-3.9036,-3.9036,0.0,0.0,0.0,-3.7678,0.0,-3.9277,-3.9982,-4.0558,0.0,-4.0698,-4.0298,-4.0308,0.0,-3.896,-3.8884,-3.867,-3.8455,-3.83,-3.8186,-3.7695,-3.6434,-3.5545,-3.4624,-3.3441,-3.2526,-3.1965,-3.1946,-3.1709,-3.1504,-3.1504,-3.1274,-3.1117,-3.1117,-3.0781,-3.0128,-2.9065,-2.7785,-2.66,-2.5574,-2.4483,-2.3882,-2.3882,-2.3739,-2.329,-2.2512,-2.1506,-2.0766,-2.0283,-2.0594,-2.0568,-2.0296,-2.0231,-1.9759,-1.8987,-1.8655,-1.7881,-1.6896,-1.6404,-1.6088,-1.5804,-1.5061,-1.4788,-1.4649,0.0,0.0,0.0,0.0,0.0,0.0,0.0,0.0,0.0,0.0,0.0,0.0,0.0,0.0,0.0,0.0,-3.8676,-3.8479,-3.8479,-3.916,-3.968,-3.9882,-4.124,-4.1443,-4.023,-4.1563,0.0,0.0,0.0,0.0,-4.148,-4.1801,-4.2011,0.0,-4.3595,-4.2945,0.0,0.0,0.0,0.0,0.0,0.0,0.0,0.0,0.0,0.0,-3.9958,-3.9693,-3.9296,-3.9256,-3.9058,-3.8803,-3.8725,-3.8596,0.0,0.0,0.0,0.0,0.0,0.0,-3.9175,-4.0606,-4.0389,-3.9875,0.0,0.0,-3.8701,0.0,-3.8303,-3.8,-3.7879,-3.7862,-3.7309,-3.5631,-3.4991,-3.4214,-3.2767,-3.2061,-3.1709,-3.1651,-3.1406,-3.1218,-3.1218,-3.1078,-3.0975,-3.0975,-3.0576,-2.9727,-2.8485,-2.7411,-2.6259,-2.4999,-2.4187,-2.3739,-2.3739,-2.3421,-2.286,-2.2081,-2.1166,-2.0699,-2.0699,-2.0699,-2.0699,-2.0662,-2.0067,-1.95,-1.8934,-1.8375,-1.7788,-1.7234,-1.6721,-1.6514,-1.6415,-1.5596,-1.5191,-1.4928,0.0,0.0,0.0,0.0,0.0,0.0,0.0,0.0,0.0,0.0,0.0,0.0,-3.9827,-3.9827,-3.9827,-3.9827,-3.8462,-3.7581,-3.7581,-3.8322,-3.9093,-3.9863,-4.0708,0.0,-3.9932,-4.0758,0.0,0.0,0.0,0.0,-4.0,-4.0306,-4.0821,-4.1613,-4.3409,-4.3215,-4.1551,0.0,0.0,0.0,0.0,0.0,0.0,0.0,0.0,0.0,0.0,-4.0896,-4.015,-4.0121,-3.9405,-3.851,-3.83,-3.7758,-3.7171,0.0,0.0,0.0,0.0,-3.6988,0.0,-3.8876,0.0,0.0,0.0,0.0,-3.8478,-3.8354,-3.8052,-3.7703,-3.7339,-3.7339,-3.7321,-3.6943,-3.5545,-3.4359,-3.3864,-3.2471,-3.1445,-3.1269,-3.1095,-3.1015,-3.1015,-3.0952,-3.0912,-3.0912,-3.0871,-3.0137,-2.8485,-2.7668,-2.6502,-2.4851,-2.4041,-2.3595,-2.3595,-2.2634,-2.2175,-2.2081,-2.1166,-2.0699,-2.0699,-2.0699,-2.0699,-2.0662,-2.0067,-1.95,-1.8934,-1.8375,-1.7788,-1.7234,-1.6721,-1.6514,-1.6459,-1.5978,-1.5474,-1.505,0.0,0.0,0.0,0.0,0.0,0.0,0.0,0.0,0.0,0.0,0.0,0.0,0.0,-4.0212,-3.99,-3.99,-3.8891,-3.8297,-3.8339,-3.8554,-3.8836,-3.9129,-4.0414,-4.0726,-3.9918,-4.0689,0.0,0.0,0.0,-3.9111,-3.99,-4.0174,-4.0448,-4.0783,-4.2153,-4.2538,-4.2081,-4.1607,0.0,0.0,0.0,0.0,0.0,0.0,0.0,0.0,-3.9771,-3.9638,-3.9685,-3.9685,-3.9337,-3.8882,-3.8813,-3.8149,-3.7216,-3.632,0.0,0.0,0.0,0.0,0.0,-3.7076,-3.7085,-3.6953,-3.7754,-3.7685,-3.7584,-3.8029,-3.7756,-3.7339,-3.6995,-3.6974,-3.6777,-3.5948,-3.5192,-3.4266,-3.3106,-3.2343,-3.1635,-3.0962,-3.0658,-3.0535,-3.0485,-3.03,-3.0284,-3.0493,-3.0054,-2.9145,-2.7843,-2.6854,-2.5663,-2.4217,-2.3744,-2.3581,-2.3595,-2.2543,-2.1988,-2.1941,-2.0908,-2.0448,-2.0562,-2.0562,-2.0562,-2.0511,-1.9527,-1.8992,-1.8738,-1.8213,-1.7579,-1.6965,-1.6883,-1.6807,-1.6753,-1.6395,-1.6157,-1.585,0.0,0.0,0.0,0.0,0.0,0.0,0.0,0.0,0.0,0.0,0.0,0.0,0.0,0.0,-4.0487,-3.9937,-3.9662,-3.9417,-3.9185,-3.9381,-3.9386,-3.9111,-4.0653,-4.1001,-3.9918,0.0,0.0,0.0,0.0,0.0,0.0,-3.9686,-3.9756,-3.9793,-4.0542,-4.1222,0.0,0.0,0.0,-4.3599,0.0,0.0,-4.3202,0.0,0.0,-4.0732,-4.016,-4.0051,-4.0166,-4.0095,-3.9644,-3.9049,-3.8921,-3.8219,-3.7254,-3.5988,0.0,0.0,-3.5432,0.0,0.0,0.0,0.0,-3.5544,-3.6083,-3.6407,-3.6645,-3.6934,-3.7013,-3.6751,-3.5946,-3.6017,-3.601,-3.5479,-3.4959,-3.4117,-3.2714,-3.2135,-3.1508,-3.0509,-3.0225,-3.0097,-3.0087,-2.9897,-2.9881,-3.014,-2.9661,-2.8742,-2.738,-2.6525,-2.5333,-2.3756,-2.3538,-2.3494,-2.3566,-2.2238,-2.1541,-2.1541,-2.0272,-1.9821,-2.0114,-2.0114,-2.0217,-2.0347,-1.9371,-1.8821,-1.8566,-1.7831,-1.7245,-1.6807,-1.6909,-1.6955,-1.6968,-1.6721,-1.6373,-1.5991,0.0,0.0,0.0,0.0,0.0,0.0,0.0,0.0,0.0,-4.0348,0.0,0.0,0.0,0.0,0.0,-4.0065,-4.0653,-4.0781,-3.9992,-4.0671,-4.0763,-3.9955,-4.146,-4.157,-3.9992,0.0,0.0,0.0,0.0,0.0,0.0,0.0,-3.8707,-3.8707,-3.8707,-3.9415,-4.0647,0.0,-4.1701,-4.3058,0.0,-4.1687,-4.3053,0.0,-4.2373,-4.2437,-4.2705,-4.2339,-4.1686,-4.1461,-4.0416,-3.9066,0.0,0.0,0.0,0.0,0.0,0.0,0.0,0.0,0.0,0.0,0.0,0.0,-3.5047,0.0,-3.5691,-3.5094,-3.5792,-3.5914,-3.4108,-3.4392,-3.5078,-3.5599,-3.4857,-3.3879,-3.2802,-3.1946,-3.0991,-2.9967,-2.9814,-2.9814,-2.9798,-2.9826,-2.9826,-2.981,-2.975,-2.8978,-2.7205,-2.6761,-2.5584,-2.3554,-2.3363,-2.3363,-2.3509,-2.1794,-2.09,-2.0913,-1.9384,-1.8922,-1.9425,-1.9425,-1.9707,-2.0182,-1.9592,-1.9044,-1.8417,-1.729,-1.6807,-1.6818,-1.6807,-1.6853,-1.6955,-1.6807,-1.6228,-1.541,0.0,0.0,0.0,0.0,0.0,0.0,0.0,0.0,0.0,0.0,0.0,0.0,-4.3059,-4.2653,-4.1882,-4.0873,-4.0983,-4.102,-4.0781,-4.0983,-4.102,-4.0781,-4.1705,-4.202,-4.1562,0.0,0.0,0.0,0.0,0.0,0.0,0.0,0.0,0.0,-3.8707,-3.8891,-3.9283,-3.9527,0.0,-4.3031,-4.122,-4.1801,0.0,0.0,-4.1601,-4.2024,-4.1397,-4.1287,-4.1481,-4.1405,-4.0924,-4.0073,-3.8624,0.0,0.0,0.0,0.0,0.0,-3.5451,0.0,0.0,0.0,0.0,0.0,-3.4581,0.0,-3.4579,-3.4445,-3.426,-3.3948,-3.3289,-3.2958,-3.2812,-3.2749,-3.2868,-3.2562,-3.1391,-3.1101,-3.0863,-3.0348,-3.0482,-3.0434,-3.01,-3.0099,-2.9938,0.0,-2.912,-2.8512,-2.7737,-2.5984,-2.4448,-2.3245,-2.3171,-2.3201,-2.3363,-2.1987,-2.1304,-2.1395,-2.0025,-1.9549,-1.9801,-1.9801,-1.9889,-1.9978,-1.9044,-1.8459,-1.8147,-1.7501,-1.6965,-1.6545,-1.6637,-1.6684,-1.6684,-1.6285,-1.5989,-1.5575,0.0,0.0,0.0,0.0,0.0,0.0,0.0,0.0,0.0,0.0,0.0,0.0,-4.3866,-4.3883,-4.3608,-4.3149,-4.2488,-4.2249,-4.2598,-4.2304,-4.1922,-4.1559,-4.2294,-4.2518,-4.2136,0.0,0.0,0.0,0.0,0.0,0.0,0.0,0.0,0.0,0.0,0.0,0.0,0.0,0.0,0.0,-4.113,0.0,0.0,-4.2297,-4.2067,-4.2377,-4.1742,-4.174,-4.2006,-4.183,-4.1296,-4.0299,-3.8274,0.0,0.0,0.0,0.0,0.0,0.0,0.0,0.0,0.0,0.0,0.0,-3.3792,-3.3722,-3.3642,-3.3219,-3.3102,-3.2794,-3.1982,-3.1751,-3.1358,-3.0354,-3.0597,-3.072,-3.0307,-3.0555,-3.0529,-2.9906,-2.999,-2.9983,-2.9695,-2.9399,-2.9138,-2.8858,-2.8352,-2.7649,-2.6579,-2.5151,-2.3953,-2.2933,-2.2978,-2.3082,-2.3201,-2.1552,-2.0737,-2.0808,-1.9409,-1.8894,-1.927,-1.9497,-1.9712,-1.9875,-1.8727,-1.819,-1.8038,-1.7279,-1.6751,-1.6431,-1.6477,-1.6524,-1.6581,-1.6239,-1.5816,-1.5274,0.0,0.0,0.0,0.0,0.0,0.0,0.0,0.0,0.0,0.0,-4.2602,-4.3556,-4.4803,-4.5498,-4.5864,-4.5864,-4.451,-4.3941,-4.451,-4.3959,-4.3208,-4.2212,-4.2886,-4.2886,-4.205,0.0,0.0,0.0,0.0,0.0,0.0,0.0,0.0,0.0,0.0,0.0,0.0,0.0,0.0,-4.1111,-4.1111,-4.2017,0.0,-4.3251,-4.316,-4.3067,-4.2938,-4.29,-4.2806,-4.2302,-4.1357,-3.9972,-3.7795,-3.7514,-3.7807,0.0,-3.5811,0.0,0.0,0.0,0.0,0.0,-3.4442,0.0,-3.3014,-3.2923,-3.2849,-3.1739,-3.2071,-3.2083,-3.051,-3.064,-3.0399,-2.8517,-2.849,-2.887,-2.9342,-2.9913,-2.9961,-2.9021,-2.897,-2.8934,-2.891,-2.8334,-2.7925,-2.7864,-2.7565,-2.6533,-2.4653,-2.4411,-2.3814,-2.2723,-2.2783,-2.2947,-2.3082,-2.089,-1.9778,-1.9789,-1.8248,-1.7811,-1.8317,-1.8869,-1.9359,-1.9747,-1.8685,-1.8147,-1.8038,-1.6909,-1.6431,-1.6384,-1.6384,-1.6477,-1.6524,-1.6306,-1.5497,-1.4545,0.0,0.0,0.0,0.0,0.0,0.0,0.0,0.0,0.0,0.0,-4.3091,-4.4729,-4.6149,-4.5925,-4.5656,-4.5656,-4.5188,-4.4487,-4.3642,-4.4086,-4.3687,-4.2105,-4.2408,-4.2523,-4.234,-4.1825,0.0,0.0,0.0,0.0,0.0,0.0,0.0,0.0,0.0,0.0,0.0,0.0,0.0,-4.1111,-4.1158,-4.2066,-4.3394,-4.3251,-4.316,-4.3067,-4.2938,-4.2786,-4.2501,-4.1434,-4.0376,-3.934,-3.8234,-3.7486,-3.6963,-3.6419,0.0,0.0,0.0,0.0,0.0,-3.4457,-3.4159,0.0,-3.3478,-3.2823,-3.2035,-3.1199,-3.0698,-3.0254,-2.9739,-2.9375,-2.8916,-2.8314,-2.8096,-2.8037,-2.8122,-2.8426,-2.8682,-2.8976,-2.9185,-2.9199,-2.9006,-2.8656,-2.8237,-2.7595,-2.7004,-2.5934,-2.4219,-2.4085,-2.3615,-2.2629,-2.2646,-2.2752,-2.2947,-2.1182,-2.0321,-2.0397,-1.9107,-1.8635,-1.8833,-1.9409,-1.971,-1.9747,-1.9133,-1.8536,-1.8038,-1.7324,-1.6797,-1.6384,-1.6384,-1.6431,-1.6306,-1.5245,-1.455,-1.3898,0.0,0.0,0.0,0.0,0.0,0.0,0.0,0.0,0.0,0.0,0.0,0.0,-4.6781,0.0,0.0,0.0,0.0,0.0,0.0,-4.4098,-4.3578,-4.1941,-4.199,-4.2032,-4.1931,-4.1656,-4.1437,0.0,0.0,0.0,0.0,0.0,0.0,0.0,0.0,0.0,0.0,0.0,-3.9543,-4.1009,-4.1024,0.0,-4.3305,-4.3196,-4.3086,-4.2994,-4.2938,-4.2709,-4.2213,-4.0694,-4.0076,-3.9578,-3.7676,-3.7047,-3.6834,-3.5888,-3.5399,-3.4982,-3.4091,-3.3889,-3.3854,-3.355,-3.3506,0.0,0.0,-3.2073,-3.1434,-3.0353,-2.9355,-2.8722,-2.8965,-2.82,-2.7531,-2.765,-2.7357,-2.71,-2.6893,-2.7568,-2.8193,-2.8427,-2.8527,-2.8508,-2.8367,-2.78,-2.7199,-2.6525,-2.6012,-2.5113,-2.3671,-2.3579,-2.314,-2.2212,-2.2324,-2.2463,-2.2555,-2.0873,-2.011,-2.0281,-1.9185,-1.8754,-1.8921,-1.9246,-1.9409,-1.9346,-1.8505,-1.7863,-1.7306,-1.6981,-1.6501,-1.6053,-1.6291,-1.6384,-1.6259,-1.5303,-1.4625,-1.4063,-3.7589,0.0,0.0,0.0,0.0,0.0,0.0,0.0,0.0,0.0,0.0,0.0,0.0,0.0,0.0,0.0,0.0,0.0,0.0,-4.4452,-4.3515,-4.1936,-4.1928,-4.177,-4.1366,-4.1398,-4.1485,0.0,0.0,0.0,0.0,0.0,0.0,0.0,0.0,0.0,0.0,0.0,0.0,-4.111,0.0,-4.1937,-4.3178,-4.3141,-4.3012,-4.2864,-4.2663,-4.2358,-4.1724,-3.9979,-3.9588,-3.9399,-3.6904,-3.6448,-3.6597,-3.5291,-3.4476,-3.3948,-3.3614,-3.3069,-3.2557,-3.2615,-3.2741,-3.2711,0.0,0.0,0.0,-2.9662,-2.8444,-2.7689,-2.8046,-2.7215,-2.6589,-2.6908,-2.6724,-2.6414,-2.5887,-2.6899,-2.7613,-2.7382,-2.7411,-2.7371,-2.7386,-2.6666,-2.5988,-2.5439,-2.5077,-2.4332,-2.3268,-2.305,-2.2561,-2.1821,-2.1996,-2.2137,-2.2184,-2.0671,-1.9916,-1.9985,-1.9068,-1.8614,-1.8598,-1.8871,-1.8908,-1.8697,-1.7727,-1.7022,-1.6562,-1.6324,-1.6031,-1.5732,-1.6198,-1.6384,-1.6316,-1.5652,-1.4954,-1.4136,-3.737,-3.8302,0.0,0.0,0.0,0.0,0.0,0.0,0.0,0.0,0.0,0.0,0.0,-4.9732,-4.9605,0.0,0.0,-4.669,-4.6837,-4.5678,-4.4209,-4.2484,-4.2669,-4.2164,-4.0754,-4.1033,-4.1392,-4.1687,0.0,0.0,0.0,0.0,0.0,0.0,-3.8974,0.0,0.0,0.0,-4.0388,0.0,-4.1813,-4.2341,0.0,-4.3104,-4.3012,-4.2792,-4.1879,-4.1221,-4.0565,0.0,-3.8139,-3.7332,-3.6388,-3.5888,-3.5429,-3.4577,-3.4495,-3.4362,-3.2898,-3.2465,-3.2508,-3.2595,-3.1884,-3.1469,-3.2465,0.0,-3.0427,-2.9566,0.0,-2.7621,-2.6807,0.0,0.0,-2.6352,-2.6586,-2.6556,-2.5761,-2.592,-2.5978,-2.5564,-2.5978,-2.6224,-2.6115,-2.599,-2.5729,-2.5118,-2.4517,-2.3919,-2.3216,-2.2695,-2.2232,-2.1821,-2.1841,-2.1949,-2.2184,-2.1084,-2.0321,-1.9985,-1.942,-1.8694,-1.7909,-1.8536,-1.8499,-1.7896,-1.7472,-1.6985,-1.64,-1.5961,-1.5733,-1.5732,-1.6198,-1.6384,-1.6316,-1.5652,-1.4573,-1.347,-3.7492,-3.8035,0.0,0.0,0.0,0.0,0.0,0.0,0.0,0.0,0.0,0.0,-4.9958,-4.971,-4.9641,-4.9949,-4.8871,-4.7706,-4.6499,-4.6237,0.0,0.0,-4.3382,-4.289,-4.2104,-4.1422,-4.1338,-4.183,-4.0153,0.0,0.0,0.0,0.0,0.0,-3.8971,0.0,-4.0256,0.0,-4.0655,0.0,0.0,-4.2341,0.0,-4.2994,-4.2573,-4.1897,-4.0897,-4.0162,-3.955,0.0,-3.7491,0.0,0.0,0.0,0.0,-3.3866,-3.3832,-3.3767,-3.3085,-3.2281,-3.1758,-3.218,-3.1494,-3.086,-3.146,-3.0945,-3.0136,-2.9353,0.0,0.0,0.0,0.0,0.0,0.0,-2.5635,-2.5279,-2.4451,-2.4542,-2.4819,-2.5077,-2.5383,-2.5452,-2.5119,-2.5246,-2.5053,-2.4244,-2.3797,-2.3283,-2.2726,-2.2441,-2.2083,-2.1582,-2.1896,-2.1958,-2.1759,-2.092,-2.0422,-2.0109,-1.959,-1.8918,-1.8154,-1.8179,-1.7895,-1.7319,-1.6861,-1.6196,-1.5454,-1.5552,-1.5297,-1.4851,-1.5691,-1.6146,-1.6259,-1.5235,-1.4541,-1.388,-3.7836,0.0,0.0,0.0,0.0,0.0,0.0,0.0,0.0,0.0,0.0,0.0,-5.0093,-5.0015,-5.0022,-5.0226,-4.9603,-4.8489,-4.6876,-4.6777,-4.6041,-4.4277,-4.4243,-4.3693,-4.2534,-4.2102,-4.1963,-4.215,0.0,0.0,0.0,0.0,0.0,0.0,0.0,-3.9561,-4.0308,0.0,-4.0802,-4.1692,-4.1863,-4.2024,-4.2174,-4.2481,-4.1899,-4.0805,-3.9804,-3.9024,-3.8356,-3.7361,-3.6621,0.0,-3.4838,-3.4284,-3.3951,0.0,0.0,0.0,-3.3072,-3.197,-3.1049,-3.1789,-3.1254,-3.0613,-3.0784,-3.0535,-2.9944,-2.8951,-2.7252,0.0,0.0,0.0,0.0,0.0,0.0,-2.4243,-2.331,-2.3688,-2.4123,-2.4488,-2.4778,-2.4925,-2.4791,-2.501,-2.4805,-2.3998,-2.3615,-2.3163,-2.2547,-2.2305,-2.1956,-2.152,-2.183,-2.1857,-2.1423,-2.0846,-2.0382,-2.0039,-1.9579,-1.8868,-1.7934,-1.7713,-1.7247,-1.6617,-1.6171,-1.5457,-1.4662,-1.5115,-1.4778,-1.4134,-1.5211,-1.5832,-1.6017,-1.5255,-1.4632,-1.4101,-3.8435,-3.8149,0.0,0.0,0.0,0.0,0.0,0.0,0.0,0.0,-4.8192,-4.9639,-5.1252,-5.1278,-5.142,-5.2131,-5.0236,-4.8984,-4.89,-4.7581,-4.573,-4.3373,-4.5252,-4.4615,-4.075,-4.2869,-4.3605,-4.2748,0.0,0.0,0.0,0.0,0.0,0.0,-3.9856,-3.9881,-4.1056,-4.0859,-4.0898,-4.1188,-4.1775,-4.1308,-4.0393,0.0,-4.0901,-3.9637,-3.8638,0.0,0.0,-3.5881,-3.5115,0.0,0.0,0.0,0.0,0.0,0.0,0.0,-3.2487,-3.1507,-3.0809,-3.1597,-3.1114,-3.0582,-3.1213,-3.0874,-2.9925,-2.8377,-2.7476,-2.665,-2.5622,0.0,0.0,0.0,0.0,0.0,0.0,-2.3626,-2.4055,-2.3323,-2.3879,-2.4633,-2.5486,-2.5474,-2.5231,-2.4894,-2.4332,-2.3708,-2.3133,-2.2263,-2.1821,-2.1793,-2.1533,-2.1437,-2.1423,-2.0979,-2.0407,-1.9594,-1.9228,-1.8273,-1.6839,-1.6978,-1.6593,-1.5816,-1.5468,-1.504,-1.4488,-1.445,-1.4233,-1.4023,-1.5029,-1.5395,-1.5411,-1.5894,-1.5032,-1.3775,0.0,0.0,0.0,0.0,0.0,0.0,0.0,-4.5991,0.0,-4.8182,-4.9543,-5.0845,-5.1891,-5.1944,-5.1843,-5.1606,-5.0896,-4.9847,-4.8392,-4.774,-4.6776,-4.5437,-4.5992,-4.547,-4.3531,-4.3806,-4.3764,-4.3322,0.0,0.0,0.0,0.0,0.0,0.0,0.0,-3.9932,0.0,0.0,0.0,0.0,0.0,-4.0106,-3.9294,0.0,-3.9241,-3.8181,-3.7206,-3.644,0.0,-3.5321,-3.4738,-3.4201,-3.3933,-3.3694,-3.3303,-3.2807,-3.251,-3.2264,0.0,-3.0701,-3.0092,-3.0825,-3.0685,-3.0474,-3.0705,-3.0582,-3.0063,-2.889,-2.7762,-2.6801,-2.6158,0.0,0.0,0.0,0.0,0.0,0.0,-2.2701,-2.3432,-2.405,-2.4155,-2.4124,-2.4072,-2.3944,-2.3561,-2.2884,-2.2548,-2.218,-2.1713,-2.1812,-2.1781,-2.152,-2.1999,-2.2062,-2.1664,-2.1361,-2.0913,-2.0358,-1.9566,-1.857,-1.7468,-1.7054,-1.6511,-1.5913,-1.5812,-1.522,-1.4384,-1.4864,-1.4531,-1.3891,-1.4975,-1.5275,-1.5058,-1.4888,-1.4427,-1.3806,-3.8751,0.0,0.0,0.0,0.0,0.0,0.0,0.0,-4.8578,-4.9289,-5.0456,-5.1488,-5.2232,-5.208,-5.1725,-5.1251,-5.068,-4.9586,-4.7899,-4.7406,-4.674,-4.5596,-4.5755,-4.5183,-4.3756,-4.3789,-4.3571,-4.323,0.0,-4.2054,0.0,0.0,0.0,0.0,0.0,-3.9713,-4.002,-4.0252,-4.0383,0.0,0.0,-3.9191,0.0,0.0,-3.7792,-3.6844,0.0,-3.5644,-3.5005,-3.4504,-3.4154,-3.3802,-3.3067,-3.2879,-3.2787,-3.2041,-3.1734,-3.1491,-3.077,-3.0055,-2.9654,-3.0138,-3.016,-3.0058,-3.0058,-3.0007,-2.972,-2.8845,-2.7894,-2.7067,-2.6302,0.0,0.0,0.0,0.0,0.0,0.0,-2.2423,-2.2963,-2.3731,-2.3966,-2.3955,-2.3524,-2.3636,-2.325,-2.2141,-2.2273,-2.2007,-2.1171,-2.1529,-2.1619,-2.1388,-2.1937,-2.1999,-2.152,-2.1215,-2.0815,-2.0309,-1.9264,-1.8382,-1.7597,-1.6938,-1.6406,-1.5988,-1.5812,-1.522,-1.4384,-1.4816,-1.4482,-1.3799,-1.4824,-1.5174,-1.4946,-1.4597,-1.4085,-1.3433,-3.9469,-3.9628,0.0,0.0,-4.1945,0.0,0.0,-4.7933,-4.9131,-4.9919,-5.068,-5.1406,-5.2164,-5.1623,-5.1119,-5.1116,-4.9641,-4.8416,-4.7513,-4.6686,-4.5544,-4.3964,-4.4547,-4.3839,-4.1524,-4.2883,-4.3264,-4.2518,0.0,0.0,0.0,0.0,0.0,0.0,-3.9603,0.0,-3.9325,-3.9919,-3.9817,-3.9325,-3.9398,-3.8585,-3.7253,-3.7236,-3.6575,-3.5654,-3.5654,-3.5144,-3.4333,-3.3372,-3.3337,-3.3355,-3.1734,-3.1681,-3.2076,-3.12,-3.0829,-3.0588,-2.9902,-2.9549,-2.9366,-2.95,-2.9481,-2.9396,-2.9381,-2.9281,-2.8946,-2.8141,-2.7855,-2.7315,-2.5901,-2.5472,0.0,0.0,0.0,0.0,0.0,-2.2706,-2.2737,-2.2533,-2.342,-2.4002,-2.3813,-2.4491,-2.4287,-2.2587,-2.3338,-2.3149,0.0,-2.1415,-2.1442,-2.1423,-2.1375,-2.1277,-2.1033,-2.0623,-2.0101,-1.9425,-1.8455,-1.7763,-1.7239,-1.6654,-1.6262,-1.5988,-1.549,-1.4994,-1.4488,-1.4293,-1.3993,-1.3809,-1.4681,-1.4972,-1.4919,-1.4888,-1.3957,-1.2712,-4.0142,-4.0694,-4.1334,0.0,-4.2757,-4.3928,0.0,0.0,0.0,-4.8995,-4.954,-5.0274,-5.1226,-5.0992,-5.0438,-4.9489,-4.8908,-4.7776,-4.5932,-4.5511,-4.489,-4.3931,-4.3946,-4.338,-4.2253,-4.3148,-4.3264,-4.2518,0.0,0.0,-4.2485,0.0,0.0,0.0,0.0,0.0,-3.9325,-3.9468,-3.9468,-3.9292,-3.8761,-3.7982,-3.7052,0.0,-3.5531,-3.4802,-3.4802,-3.4675,-3.435,-3.3193,-3.2866,-3.2766,-3.1591,-3.1284,-3.1168,-3.0459,-3.0092,-2.9754,-2.9119,-2.8804,-2.8658,-2.8706,-2.8978,-2.9108,0.0,-2.8793,-2.8809,-2.8041,-2.7458,-2.6732,-2.5383,-2.4626,0.0,0.0,0.0,0.0,0.0,-2.2963,-2.3341,-2.3837,-2.367,-2.3446,-2.3376,-2.3141,-2.2721,-2.2102,-2.2205,-2.1822,-2.0725,-2.1355,-2.1642,-2.1402,-2.1215,-2.1251,-2.1616,-2.0908,-2.0445,-2.0289,-1.8836,-1.8081,-1.7906,-1.6885,-1.6349,-1.6262,-1.5623,-1.5017,-1.4501,-1.4516,-1.4183,-1.3809,-1.479,-1.4801,-1.4255,-1.41,-1.3243,-1.2236,-4.0337,-4.101,0.0,-4.2467,0.0,0.0,-4.5421,-4.6346,0.0,-4.8448,-4.8821,0.0,-4.9826,-4.954,-4.8966,-4.827,-4.7127,-4.6246,-4.5644,-4.4231,-4.3497,-4.3763,-4.26,-4.1758,-4.1346,-4.1641,-4.1805,-4.1807,0.0,0.0,-4.2005,0.0,0.0,0.0,0.0,-3.9272,-3.9272,-3.9148,-3.9164,-3.9206,-3.8196,-3.7436,0.0,-3.5822,-3.4986,-3.4251,-3.3843,-3.373,-3.3583,-3.2578,-3.2141,-3.1817,-3.0655,-3.0415,-3.0427,-2.9704,-2.9308,-2.9069,-2.8633,-2.8444,-2.8411,-2.8411,-2.8362,-2.8248,-2.7871,-2.7778,-2.7565,-2.7093,-2.6526,-2.5658,-2.4332,-2.3772,-2.3133,0.0,0.0,0.0,-2.1957,-2.2424,-2.2825,-2.3094,-2.3495,-2.3657,-2.3263,-2.2756,-2.2395,-2.2395,-2.2514,-2.2168,0.0,-2.1645,-2.1785,-2.1242,-2.1209,-2.1272,-2.1444,-2.1022,-2.063,-2.0245,-1.8864,-1.8204,-1.8166,-1.6992,-1.6436,-1.6349,-1.5534,-1.4983,-1.4628,-1.4169,-1.4042,-1.4294,-1.5134,-1.4744,-1.3735,-1.3775,-1.307,-1.1996,-4.0531,-4.1115,0.0,0.0,0.0,0.0,0.0,-4.6469,0.0,-4.7601,0.0,-4.7969,-4.7942,-4.7338,-4.6841,-4.6662,-4.4847,-4.4214,-4.5275,-4.2908,-4.1931,-4.3221,-4.1124,-3.9902,-3.9846,-3.9731,-4.0089,-4.0983,0.0,0.0,0.0,0.0,0.0,0.0,0.0,0.0,0.0,-3.8914,-3.8865,-3.8966,-3.7753,-3.6966,-3.6411,-3.5464,-3.4616,-3.379,-3.2962,-3.2654,-3.2592,-3.1726,-3.1261,-3.0844,-2.9501,-2.9407,-2.9704,-2.8966,-2.8684,-2.8541,-2.8444,-2.8411,-2.8381,-2.8176,-2.7685,-2.7217,-2.7077,-2.65,-2.5943,-2.5859,-2.5328,-2.449,-2.316,-2.2789,0.0,0.0,0.0,-2.0758,-2.1107,-2.1619,-2.1878,-2.1656,-2.3132,0.0,-2.341,-2.3026,-2.2917,-2.3171,-2.3703,-2.3322,0.0,0.0,-2.1982,-2.1033,-2.1222,-2.1184,-2.0993,-2.0927,-2.0576,-1.9798,-1.8794,-1.8279,-1.8166,-1.7112,-1.651,-1.6262,-1.5311,-1.4858,-1.472,-1.3583,-1.3751,-1.4767,-1.5396,-1.4659,-1.3367,-1.3762,-1.3028,-1.1872,-4.1893,0.0,0.0,0.0,0.0,-4.3533,-4.4467,-4.4853,-4.4955,-4.4662,-4.4911,-4.5123,-4.4813,-4.4496,-4.3976,-4.2944,-4.2813,-4.2376,-4.1526,-4.1461,-4.1427,-4.146,-4.0484,-3.9789,-3.9576,-4.0086,-4.0561,-4.0983,0.0,0.0,0.0,0.0,0.0,0.0,0.0,0.0,-3.886,-3.8805,0.0,-3.7617,-3.7378,-3.6551,-3.5399,-3.5025,-3.4069,-3.2864,-3.2501,-3.2504,-3.2462,-3.0926,-3.0402,-3.0212,-2.9234,-2.8983,-2.895,-2.8715,-2.8541,-2.846,-2.8411,-2.8411,-2.8112,-2.7003,-2.6911,-2.6872,-2.5833,-2.5686,-2.5697,-2.5297,-2.4676,-2.389,-2.2695,0.0,0.0,0.0,-2.0565,-2.0711,-2.08,-2.147,-2.2171,-2.2571,-2.2858,-2.3289,-2.4111,-2.3863,-2.3813,-2.4288,-2.457,-2.4015,0.0,0.0,-2.2639,0.0,-2.0526,-2.0437,0.0,0.0,-1.995,-1.9798,-1.9183,-1.8643,-1.8179,-1.7526,-1.674,-1.5888,-1.5175,-1.4674,-1.4269,-1.361,-1.3687,-1.4236,-1.4255,-1.3886,-1.3332,-1.3402,-1.2812,-1.2058,-4.2127,0.0,0.0,0.0,0.0,0.0,0.0,-4.2648,-4.2977,-4.3441,-4.2873,-4.2386,-4.2191,-4.1769,-4.1309,-4.0706,-4.0485,-4.0415,-4.0507,-3.9943,-3.983,-4.0394,-3.9422,-3.882,-3.8647,-3.8884,-3.9457,-4.0496,-3.9719,0.0,0.0,0.0,0.0,0.0,0.0,-3.8711,0.0,0.0,0.0,-3.7242,-3.6557,-3.5786,-3.4929,-3.4261,-3.3375,-3.2421,-3.189,-3.1591,-3.1277,-3.0449,-2.988,-2.9454,-2.9014,-2.8795,-2.8684,-2.8636,-2.8493,-2.8411,-2.8411,-2.7878,-2.7206,-2.6553,-2.5791,-2.5029,-2.4385,-2.4145,-2.396,-2.3689,-2.3178,-2.2485,-2.1669,-2.1029,-2.0579,-2.0233,-2.0511,-2.0718,-2.0718,-2.1066,-2.1479,-2.194,-2.2217,-2.2768,-2.3768,-2.3975,-2.4176,-2.4505,-2.4978,-2.4482,0.0,0.0,-2.3027,0.0,0.0,0.0,-2.0894,0.0,-2.0217,-1.9914,-1.9284,-1.8744,-1.8191,-1.7639,-1.6826,-1.5788,-1.522,-1.4731,-1.4291,-1.3966,-1.3805,-1.3738,-1.3919,-1.3459,-1.2767,-1.2849,-1.2411,-1.1813,0.0,-4.2108,0.0,0.0,-4.1748,-4.1388,-4.0701,-4.0482,-4.0887,-4.2264,-4.1046,-4.001,-3.9803,-3.9318,-3.8999,-3.8811,-3.8525,-3.873,-3.965,-3.8392,-3.8139,-3.9267,-3.8146,-3.7546,-3.743,-3.7504,-3.8102,-3.9326,-3.835,0.0,0.0,0.0,0.0,0.0,0.0,0.0,0.0,0.0,-3.7375,-3.678,-3.5649,-3.4911,-3.4372,-3.362,-3.2787,-3.1981,-3.1363,-3.0621,-2.9896,-2.9911,-2.9486,-2.8904,-2.8873,-2.8748,-2.8573,-2.8589,-2.8381,-2.8155,-2.8003,-2.7094,-2.611,-2.5668,-2.4461,-2.3313,-2.3049,-2.2671,-2.2335,-2.2243,-2.1747,-2.1198,-2.0791,-2.0823,0.0,-2.0425,-2.0485,-2.0526,-2.0706,-2.0618,-2.0636,-2.1063,-2.1656,-2.2369,-2.3197,-2.412,-2.4647,-2.4617,-2.5199,-2.4815,-2.3161,0.0,0.0,0.0,0.0,-2.1368,-2.1279,0.0,-2.0498,-2.0029,-1.9497,-1.8893,-1.8286,-1.7706,-1.6835,-1.5656,-1.5187,-1.4697,-1.4219,-1.415,-1.3844,-1.3491,-1.3757,-1.3223,-1.2333,-1.2427,-1.2059,-1.1517,0.0,0.0,0.0,0.0,0.0,-3.9993,-3.9934,-3.8959,-3.8544,-3.9372,-3.8934,-3.8327,-3.7605,-3.7527,-3.7281,-3.6588,-3.7405,-3.7764,-3.7259,-3.6906,-3.6911,-3.7373,-3.6742,-3.6236,-3.5913,-3.6955,-3.7388,-3.719,-3.7703,-3.8024,0.0,0.0,0.0,0.0,0.0,0.0,0.0,-3.723,-3.6462,-3.5522,-3.4738,-3.4004,-3.3441,-3.3324,-3.2471,-3.1252,-3.1058,-3.0177,-2.9014,-2.8967,-2.892,-2.8858,-2.8716,-2.8621,-2.8589,-2.8444,-2.7959,-2.728,-2.6732,-2.6065,-2.5077,-2.3392,-2.3188,-2.3114,-2.1943,-2.2035,-2.2217,-2.1707,-2.1132,-2.0764,-2.0712,-2.0487,-2.0412,-2.095,-2.0357,-2.0075,-2.0643,-2.0213,-2.01,-2.0677,-2.1684,-2.2495,-2.2764,-2.483,-2.5855,-2.5043,-2.5136,-2.5075,0.0,0.0,0.0,-2.2711,-2.2405,-2.2256,-2.2258,-2.0953,-2.0233,-2.0182,-2.0131,-1.9556,-1.8546,-1.7927,-1.6809,-1.5311,-1.4731,-1.4186,-1.3668,-1.3566,-1.3508,-1.3573,-1.3511,-1.2995,-1.2314,-1.229,-1.1942,-1.1487,0.0,0.0,0.0,0.0,0.0,0.0,0.0,-3.7051,-3.6623,-3.6943,-3.6961,-3.6778,-3.6458,-3.6089,-3.5768,-3.5452,-3.554,-3.5615,-3.5707,-3.5077,-3.495,-3.5525,-3.5115,-3.4814,-3.471,-3.5447,-3.5958,-3.6185,-3.6717,0.0,0.0,0.0,0.0,0.0,0.0,-3.752,-3.6975,-3.6705,-3.5887,-3.4699,-3.4415,-3.3893,-3.3261,-3.2835,-3.2076,-3.111,-3.0586,-2.9752,-2.8873,-2.8716,-2.8716,-2.87,-2.8621,-2.8317,-2.7944,-2.7894,-2.7095,-2.6257,-2.5994,-2.4855,-2.356,-2.2774,-2.2183,-2.1659,-2.1143,-2.1223,-2.1328,-2.1041,-2.0869,-2.0699,-2.0699,-2.0733,-2.072,-2.0604,-2.046,-2.0275,-2.0162,-1.9949,-1.9886,-2.0125,-2.0536,-2.1251,-2.2371,-2.4095,-2.5467,-2.6281,-2.6932,-2.6715,0.0,0.0,0.0,-2.4023,0.0,-2.1916,-2.2617,-2.1249,-2.056,-2.056,-2.0049,-1.9446,-1.8719,-1.8025,-1.6831,-1.5266,-1.4316,-1.381,-1.3621,-1.3515,-1.3563,-1.3563,-1.317,-1.2675,-1.2103,-1.1878,-1.1464,-1.1061,-3.8418,0.0,-3.7315,0.0,-3.6996,-3.6181,-3.6025,-3.5613,-3.5258,-3.5258,-3.5341,-3.5404,-3.528,-3.4854,-3.4515,-3.4324,-3.4011,-3.4032,-3.4469,-3.3637,-3.3427,-3.4147,-3.3742,0.0,-3.3695,-3.4179,-3.4607,-3.5003,-3.5508,0.0,0.0,0.0,0.0,0.0,-3.6965,-3.6579,-3.6105,-3.5884,-3.5221,-3.4273,-3.4083,-3.3719,-3.323,-3.2534,-3.1773,-3.1013,-3.019,-2.9437,-2.8779,-2.8621,-2.8401,-2.8262,-2.8255,-2.7929,-2.7419,-2.7075,-2.617,-2.5226,-2.4869,-2.3565,-2.2224,-2.2097,-2.1376,-2.0699,-2.0699,-2.0699,-2.0699,-2.0699,-2.0699,-2.0699,-2.0699,-2.0784,-2.0771,-2.0527,0.0,-2.0326,-2.0087,-1.9911,-1.9798,-1.9798,-2.01,-2.0772,-2.1907,-2.3523,-2.5038,-2.6397,-2.7712,0.0,0.0,0.0,0.0,0.0,0.0,0.0,-2.2871,-2.1555,-2.0858,-2.0858,-2.028,-1.9621,-1.8865,-1.7651,-1.6329,-1.5028,-1.4071,-1.3621,-1.3621,-1.3621,-1.3621,-1.3573,-1.3016,-1.2482,-1.1936,-1.1559,-1.1157,-1.0747,-3.6828,-3.6459,-3.6141,-3.6288,-3.5793,-3.5441,-3.5441,-3.4835,-3.4428,-3.4428,-3.4428,-3.4249,-3.3791,-3.3912,-3.3677,-3.2869,-3.3238,-3.3516,-3.3516,-3.2735,-3.2615,0.0,0.0,-3.2497,-3.2879,-3.3444,-3.3583,-3.334,0.0,0.0,-3.4336,0.0,-3.541,-3.541,-3.5426,-3.541,-3.5347,-3.462,-3.4304,-3.4225,-3.3577,-3.3309,-3.323,-3.2379,-3.162,-3.0898,-2.9928,-2.9146,-2.8573,-2.8444,-2.7965,-2.7425,-2.747,-2.7515,-2.728,-2.6126,-2.5208,-2.4249,-2.3136,-2.2218,-2.1381,-2.0856,-2.0712,-2.0699,-2.0699,-2.0699,-2.0699,-2.0699,-2.0699,-2.0699,-2.0699,-2.0448,-2.0374,-2.1002,0.0,-2.0012,-2.063,-2.0162,-1.9798,-1.9798,-2.079,-2.1463,-2.1399,-2.3567,-2.4955,-2.4867,0.0,0.0,0.0,0.0,0.0,-2.3675,-2.3461,0.0,-2.2976,-2.1669,-2.0997,-2.0997,-2.0983,-2.0311,-1.9041,-1.6707,-1.5231,-1.4457,-1.3978,-1.3716,-1.3621,-1.3621,-1.3621,-1.3573,-1.3016,-1.2482,-1.1959,-1.1469,-1.105,-1.0717,-3.3502,-3.3144,-3.2988,-3.4099,-3.393,-3.3818,-3.4278,-3.4326,-3.4254,-3.3819,-3.3775,-3.3354,-3.2315,-3.3048,-3.3339,0.0,-3.2328,-3.2126,0.0,-3.1526,-3.1216,-3.1467,-3.1216,-3.1234,-3.1338,-3.1809,-3.2179,-3.2342,0.0,0.0,0.0,-3.5172,-3.5282,-3.5282,-3.5282,-3.4998,-3.4526,-3.4235,-3.3834,-3.3341,-3.319,-3.2814,-3.2191,-3.1502,-3.0798,-3.0045,-2.9228,-2.8759,-2.8525,-2.7944,-2.7293,-2.6572,-2.5864,-2.5582,-2.5479,-2.5203,-2.3906,-2.2521,-2.2159,-2.1517,-2.0935,-2.0751,-2.0699,-2.0699,-2.0699,-2.0699,-2.0699,-2.0699,-2.0699,-2.0662,-2.0562,-2.0347,-2.0246,-2.0334,-2.004,0.0,-2.0049,-1.9911,-1.9798,-1.9798,-2.019,-2.072,-2.1326,-2.2652,-2.4175,-2.6023,0.0,0.0,0.0,0.0,0.0,0.0,-2.4072,0.0,-2.3423,-2.2169,-2.1471,-2.1277,-2.0825,-1.988,-1.85,-1.6591,-1.5555,-1.5186,-1.4212,-1.3821,-1.3868,-1.3763,-1.3716,-1.3668,-1.317,-1.253,-1.1959,-1.1469,-1.0996,-1.0619,-3.0957,-3.0637,-3.0615,-3.2096,-3.222,-3.2263,-3.2854,-3.3288,-3.3345,-3.2955,-3.3042,-3.2701,-3.1642,-3.2251,0.0,-3.1845,-3.1409,-3.1163,-3.1163,-3.08,-3.0568,-3.0568,-3.0568,-3.0628,-3.0673,-3.097,0.0,-3.1492,-3.2273,-3.3115,-3.3945,-3.3945,-3.4088,-3.4344,-3.4344,-3.4093,-3.367,-3.367,-3.338,-3.2881,-3.2707,-3.2279,-3.1711,-3.0725,-2.9937,-2.9323,-2.8483,-2.8057,-2.775,-2.703,-2.6297,-2.557,-2.4676,-2.3997,-2.3519,-2.3644,-2.2785,-2.1666,-2.1455,-2.1038,-2.0699,-2.0699,-2.0699,-2.0699,-2.0699,-2.0662,-2.0662,-2.0712,-2.0599,-2.0498,-2.0511,-2.0296,-2.008,-1.999,-1.9875,-1.9798,-1.9798,-1.9798,-1.9798,-1.9798,-2.0064,-2.0502,-2.1104,-2.1845,-2.309,0.0,0.0,0.0,0.0,0.0,-2.6737,-2.5551,-2.4063,-2.3182,-2.3053,-2.2242,-2.1698,-2.1554,-2.0549,-1.9476,-1.8365,-1.666,-1.5788,-1.5599,-1.4444,-1.3962,-1.3915,-1.3868,-1.3868,-1.3773,-1.3218,-1.2628,-1.199,-1.151,-1.0972,-1.055,-2.916,-2.8959,-2.9028,-3.0296,-3.0583,-3.0867,-3.1363,-3.1772,-3.1968,-3.1911,-3.2184,-3.213,-3.1464,-3.1391,-3.1159,-3.0565,0.0,0.0,-3.0582,-3.0507,-3.0522,-3.0522,-3.0522,-3.0568,-3.0718,-3.0718,-3.0748,-3.0867,-3.0925,-3.1275,-3.189,-3.1946,-3.2272,-3.2897,-3.2897,-3.2897,-3.2897,-3.285,-3.2819,-3.2718,-3.1986,-3.1607,-3.1436,-3.001,-2.9134,-2.8523,-2.7739,-2.7063,-2.6518,-2.577,-2.507,-2.4361,-2.3724,-2.2647,-2.158,-2.184,-2.1783,-2.1534,-2.1033,-2.0775,-2.0699,-2.0699,-2.0699,-2.0699,-2.0712,-2.0612,-2.0511,-2.0649,-2.0448,-2.0233,-2.041,-2.0195,-1.999,-1.999,-1.9862,-1.9798,-1.9798,-1.9798,-1.9798,-1.9798,-2.0275,0.0,-2.0812,-2.1233,-2.1857,0.0,0.0,0.0,0.0,0.0,-2.6963,-2.3645,-2.3545,-2.3089,-2.2231,-2.1996,-2.1841,-2.1779,-2.0302,-1.9225,-1.8548,-1.6867,-1.5981,-1.57,-1.4674,-1.4082,-1.3868,-1.3962,-1.3962,-1.3763,-1.3218,-1.2667,-1.212,-1.151,-1.0972,-1.0518,0.0,0.0,-2.8205,-2.8996,-2.9688,-3.0392,-3.0962,-3.1377,-3.1457,-3.0898,-3.0906,-3.0743,-3.0134,-3.0063,-3.0007,-2.9865,-3.005,-3.0233,-3.0233,-2.9974,-2.9851,-2.9851,-2.9851,-2.9851,-2.9898,-2.9898,-3.0054,-3.0435,-3.1145,-3.1607,-3.1736,-3.2216,-3.2523,-3.2648,-3.2648,-3.2648,-3.2617,-3.2144,-3.1874,-3.1689,-3.0662,-2.9924,-2.9282,-2.8464,-2.7756,-2.7143,-2.6945,-2.6476,-2.577,-2.5176,-2.4128,-2.297,-2.2355,-2.1568,-2.1004,-2.1586,-2.1351,-2.0933,-2.0801,-2.0712,-2.0699,-2.0699,-2.0699,-2.0662,-2.0562,-2.0511,-2.0461,-2.0334,-2.0233,-2.0182,-2.0144,-2.0042,-1.999,-1.9862,-1.9811,-1.9798,-1.9798,-1.9798,-1.9798,0.0,-2.004,-2.0322,-2.0772,-2.1027,-2.1763,0.0,0.0,-2.4162,-2.4399,-2.5744,-2.5727,-2.3996,-2.3844,-2.3418,-2.2572,-2.2463,-2.2231,-2.1793,-2.077,-1.9785,-1.8869,-1.7613,-1.65,-1.5546,-1.4834,-1.443,-1.4233,-1.4186,-1.414,-1.4035,-1.3409,-1.2764,-1.212,-1.151,-1.0972,-1.0518,-2.619,-2.6396,-2.6818,-2.7389,-2.8148,-2.8836,-2.9389,-3.0,-3.028,-2.9931,-3.0017,-2.9954,-2.9645,-2.9602,-2.9602,-2.9602,-2.9803,-2.9865,-2.9865,-2.9679,-2.9602,-2.9602,-2.9602,-2.954,-2.9352,-2.9352,-2.9401,-2.9484,-3.0025,-3.0435,-3.0719,-3.1013,-3.1507,-3.212,-3.212,-3.1952,-3.1647,-3.128,-3.0767,-3.0063,-2.9188,-2.8551,-2.8119,-2.7477,-2.6876,-2.6336,-2.6336,-2.5841,-2.5101,-2.4173,-2.3332,-2.2436,-2.1519,-2.0998,-2.0764,-2.113,-2.0998,-2.0699,-2.0699,-2.0699,-2.0712,-2.0612,-2.0612,-2.0562,-2.0398,-2.0309,-2.0246,-2.0233,-2.0118,-2.0016,-1.999,-1.9926,-1.9862,-1.9798,-1.9798,-1.9798,-1.9798,-1.9798,-1.9798,-1.9798,-1.9862,-2.008,-2.0422,-2.056,-2.1159,-2.2355,-2.266,0.0,-2.3459,-2.3921,-2.4009,-2.3655,-2.3797,-2.3525,-2.2783,-2.2646,-2.2183,-2.1379,-2.0635,-1.9719,-1.864,-1.7523,-1.6534,-1.5691,-1.4971,-1.4569,-1.4477,-1.4326,-1.4269,-1.4176,-1.3789,-1.3102,-1.2267,-1.1832,-1.1209,-1.0545,-2.5312,-2.5382,-2.5594,-2.6082,-2.6633,-2.7175,-2.7709,-2.8444,-2.8908,-2.9035,-2.9289,-2.9477,-2.9477,-2.9477,-2.9477,-2.9477,-2.9477,-2.9477,-2.954,-2.9477,-2.9477,-2.9477,-2.9477,-2.9289,-2.9035,-2.9035,-2.8908,-2.8587,-2.862,-2.887,-2.9378,-2.9402,-3.0026,-3.1066,-3.1066,-3.081,-3.0287,-3.0197,-2.9533,-2.8487,-2.7752,-2.7436,-2.7378,-2.6683,-2.6176,-2.5784,-2.5729,-2.5273,-2.4439,-2.3312,-2.2697,-2.2273,-2.1144,-2.0777,-2.0699,-2.0699,-2.0699,-2.0699,-2.0699,-2.0712,-2.0662,-2.0511,-2.0461,-2.041,-2.0233,-2.0093,-2.0042,-2.0131,-1.9965,-1.985,-1.9926,-1.9862,-1.9798,-1.9798,-1.9798,-1.9798,-1.9798,0.0,-1.9798,-1.9798,-1.9798,-1.9862,-1.999,-2.0182,-2.0472,-2.0845,-2.0993,-2.1369,-2.2035,-2.2156,-2.2409,-2.2943,-2.345,-2.3484,-2.2902,-2.2706,-2.2059,-2.0941,-2.0385,-1.9459,-1.8149,-1.7165,-1.6411,-1.5856,-1.5108,-1.4708,-1.4627,-1.4477,-1.4326,-1.4222,-1.4129,-1.3399,-1.2365,-1.2169,-1.1443,-1.0522,-2.5312,-2.5734,-2.6094,-2.6151,-2.6633,-2.7175,-2.7709,-2.7908,-2.8183,-2.8651,-2.8716,-2.878,-2.878,-2.878,-2.878,-2.878,-2.878,-2.8908,-2.9162,-2.8908,-2.878,-2.878,-2.878,-2.8716,-2.8651,-2.8651,-2.8651,-2.8587,-2.8685,-2.8727,-2.882,-2.8843,-2.8926,-2.911,-2.911,-2.9107,-2.8975,-2.8378,-2.8031,-2.7777,-2.6643,-2.6184,-2.6129,-2.5522,-2.5216,-2.5118,-2.5005,-2.4525,-2.3803,-2.3506,-2.2615,-2.1668,-2.1433,-2.1041,-2.0699,-2.0699,-2.0699,-2.0699,-2.0699,-2.0612,-2.0511,-2.0296,-2.0233,-2.0233,-2.0042,-1.999,-1.9978,-1.9862,-1.985,-1.9811,-1.9811,-1.9798,-1.9798,-1.9798,-1.9798,-1.9798,-1.9798,0.0,-1.9798,-1.9798,-1.9798,-1.9862,-1.999,-2.0422,-2.061,-2.0321,-2.1042,-2.1369,-2.1042,-2.1779,-2.2226,-2.2325,-2.2804,-2.2989,-2.2888,-2.2706,-2.215,-2.1212,-2.0889,-1.9705,-1.7816,-1.7593,-1.6803,-1.5558,-1.5198,-1.488,-1.4662,-1.4477,-1.4384,-1.4326,-1.3858,-1.316,-1.2365,-1.195,-1.1217,-1.0522,-2.5312,-2.5523,-2.5804,-2.6151,-2.6633,-2.7175,-2.7709,-2.8052,-2.8327,-2.8587,-2.8587,-2.8587,-2.8587,-2.8587,-2.8587,-2.8587,-2.8302,-2.8175,-2.8365,-2.8538,-2.8587,-2.8587,-2.8587,-2.8451,-2.8125,-2.78,-2.7637,-2.7637,-2.7659,-2.769,-2.769,-2.767,-2.788,-2.8211,-2.8211,-2.8025,-2.7696,-2.7396,-2.686,-2.6189,-2.5661,-2.5397,-2.5397,-2.5118,-2.4948,-2.4892,-2.4835,-2.449,-2.3983,-2.3636,-2.2994,-2.2374,-2.2073,-2.1786,-2.1564,-2.1211,-2.0897,-2.0612,-2.0612,-2.0461,-2.0296,-2.0131,-2.008,-2.008,-1.9914,-1.9862,-1.9862,-1.9798,-1.9798,-1.9798,-1.9798,-1.9798,-1.9798,-1.9798,-1.9798,-1.9798,-1.9798,-1.9798,-1.9798,-1.9798,-1.9798,-1.9811,-1.9875,-2.0169,-2.0271,-2.0016,-2.0746,-2.1175,-2.114,-2.1827,-2.2184,-2.2184,-2.2661,-2.2888,-2.2888,-2.251,-2.1957,-2.1302,-2.0307,-1.9078,-1.7701,-1.7175,-1.6473,-1.5659,-1.5244,-1.5017,-1.488,-1.4558,-1.4373,-1.4326,-1.3905,-1.3266,-1.257,-1.195,-1.1318,-1.0667,-2.5107,-2.5119,-2.5259,-2.5758,-2.6271,-2.6756,-2.731,-2.7855,-2.8208,-2.8204,-2.8319,-2.8343,-2.8193,-2.818,-2.818,-2.818,-2.7773,-2.7501,-2.7501,-2.7922,-2.818,-2.818,-2.818,-2.7963,-2.7515,-2.7054,-2.6823,-2.6823,-2.6674,-2.6606,-2.6606,-2.647,-2.6685,-2.7125,-2.7125,-2.686,-2.6484,-2.6484,-2.5867,-2.5005,-2.5005,-2.5005,-2.4948,-2.4948,-2.4892,-2.4721,-2.4721,-2.4536,-2.4226,-2.376,-2.3454,-2.3145,-2.2701,-2.2374,-2.2073,-2.1642,-2.1004,-2.041,-2.041,-2.0296,-2.0131,-1.9978,-1.9926,-1.9926,-1.9811,-1.9798,-1.9798,-1.9798,-1.9798,-1.9798,-1.9798,-1.9798,-1.9798,-1.9798,0.0,-1.9798,-1.9798,-1.9798,-1.9798,-1.9798,-1.9798,-1.9798,-1.9798,-1.9862,-1.9926,-1.9811,-2.0308,-2.0746,-2.1175,-2.1575,-2.1935,-2.2184,-2.2555,-2.268,-2.2521,-2.2193,-2.1614,-2.0851,-1.9543,-1.8417,-1.7465,-1.6685,-1.6107,-1.5792,-1.5379,-1.5153,-1.5062,-1.4651,-1.4419,-1.4326,-1.3858,-1.3314,-1.2716,-1.2049,-1.1418,-1.0871,-2.4482,-2.4578,-2.4578,-2.4647,-2.5057,-2.5664,-2.622,-2.6769,-2.7128,-2.705,-2.7444,-2.7556,-2.7013,-2.6945,-2.6945,-2.6945,-2.6918,-2.6891,-2.6891,-2.6932,-2.6945,-2.6945,-2.6945,-2.6932,-2.6891,-2.685,-2.6823,-2.6823,-2.624,-2.5955,-2.5941,-2.5398,-2.5141,-2.5197,-2.5197,-2.517,-2.5129,-2.5129,-2.5102,-2.5005,-2.5005,-2.4948,-2.4778,-2.4778,-2.4734,-2.4607,-2.4421,-2.435,-2.4292,-2.4105,-2.3681,-2.321,-2.3158,-2.2426,-2.1564,-2.1525,-2.0888,-2.0233,-2.0233,-2.0131,-1.9978,-1.9862,-1.9798,-1.9798,-1.9798,-1.9798,-1.9798,-1.9798,-1.9798,-1.9798,-1.9798,-1.9798,-1.9798,-1.9798,0.0,0.0,-1.9798,-1.9798,-1.9798,-1.9798,-1.9798,-1.9798,-1.9798,-1.9811,-1.9798,-1.9798,-1.985,-2.0105,-2.061,-2.0709,-2.1153,-2.2184,-2.2231,-2.1935,-2.133,-2.1772,-2.1169,-1.9515,-1.91,-1.8229,-1.6927,-1.6522,-1.6107,-1.5792,-1.5558,-1.5334,-1.5062,-1.4789,-1.4569,-1.4326,-1.3552,-1.3064,-1.2716,-1.1959,-1.1377,-1.0922,-2.4013,-2.4061,-2.4183,-2.4504,-2.4743,-2.5132,-2.6,-2.6323,-2.6564,-2.6805,-2.7026,-2.7067,-2.685,-2.6823,-2.6823,-2.6823,-2.647,-2.624,-2.624,-2.59,-2.6036,-2.6796,-2.6457,-2.624,-2.624,-2.5887,-2.5697,-2.5697,-2.5453,-2.5344,-2.5344,-2.5113,-2.5005,-2.5005,-2.5005,-2.5005,-2.5005,-2.5005,-2.4948,-2.4892,-2.4892,-2.4778,-2.4677,-2.4677,-2.4549,-2.4421,-2.435,-2.4247,-2.4157,-2.4112,-2.3968,-2.3772,-2.3772,-2.3167,-2.2276,-2.1496,-2.0668,-2.0093,-2.0093,-1.9978,-1.9862,-1.9798,-1.9798,-1.9798,-1.9798,-1.9798,-1.9798,-1.9798,-1.9798,-1.9798,-1.9798,-1.9798,-1.9798,-1.9798,0.0,-1.9798,-1.9798,-1.9798,-1.9798,-1.9798,-1.9798,-1.9798,-1.9798,-1.9798,-1.9798,-1.9798,-2.0105,-2.0409,-2.061,-2.0944,-2.114,-2.1202,-2.1185,-2.136,-2.17,-2.0841,-1.9936,-1.9086,-1.808,-1.7213,-1.6509,-1.6163,-1.5913,-1.5792,-1.5603,-1.5334,-1.5062,-1.48,-1.4419,-1.3952,-1.3409,-1.3025,-1.2657,-1.1968,-1.1477,-1.1124,-2.3484,-2.352,-2.3639,-2.4017,-2.436,-2.4782,-2.5484,-2.5874,-2.6118,-2.625,-2.6404,-2.6457,-2.6267,-2.6253,-2.6253,-2.6253,-2.586,-2.5615,-2.5615,-2.5236,-2.5385,-2.6226,-2.5846,-2.5615,-2.5615,-2.5208,-2.5005,-2.5005,-2.5005,-2.5005,-2.5005,-2.5005,-2.5005,-2.5005,-2.5005,-2.5005,-2.5005,-2.4948,-2.4892,-2.4778,-2.4721,-2.4664,-2.4492,-2.4492,-2.4363,-2.4247,-2.4247,-2.4026,-2.3838,-2.3838,-2.372,-2.3576,-2.3519,-2.2989,-2.2218,-2.1091,-2.0385,-1.999,-1.9926,-1.9862,-1.9798,-1.9798,-1.9798,-1.9798,-1.9798,-1.9798,-1.9798,-1.9798,-1.9798,-1.9798,-1.9798,-1.9798,-1.9798,-1.9798,-1.9798,-1.9798,-1.9798,-1.9798,-1.9798,-1.9798,-1.9798,-1.9798,-1.9798,-1.9798,-1.9798,-1.9798,-2.0156,-2.0359,-2.0359,-2.0696,-2.0795,-2.061,-2.0226,-2.0425,-2.1225,-1.9866,-1.8948,-1.8383,-1.7313,-1.6612,-1.6269,-1.5957,-1.5792,-1.5792,-1.5603,-1.5334,-1.5062,-1.48,-1.443,-1.3962,-1.3563,-1.318,-1.2813,-1.2224,-1.1719,-1.1267,-2.2871,-2.2967,-2.2967,-2.2967,-2.3855,-2.4459,-2.4459,-2.5358,-2.5774,-2.5169,-2.5579,-2.5656,-2.5059,-2.4991,-2.4991,-2.4991,-2.4991,-2.4991,-2.4991,-2.4991,-2.4991,-2.4991,-2.4991,-2.5005,-2.5005,-2.5005,-2.5005,-2.5005,-2.5005,-2.5005,-2.5005,-2.5005,-2.5005,-2.5005,-2.5005,-2.5005,-2.5005,-2.4835,-2.4778,-2.4778,-2.4664,-2.4478,-2.4279,-2.4279,-2.4189,-2.4112,-2.4112,-2.372,-2.321,-2.321,-2.2858,-2.2346,-2.2211,-2.1689,-2.095,-2.0194,-1.999,-1.999,-1.9862,-1.9798,-1.9798,-1.9798,-1.9798,-1.9798,-1.9798,-1.9798,-1.9798,-1.9798,-1.9798,-1.9798,-1.9798,-1.9798,-1.9798,-1.9798,-1.9798,-1.9798,-1.9798,-1.9798,-1.9798,-1.9798,-1.9798,-1.9798,-1.9798,-1.9798,-1.9798,-1.9798,-1.9798,-1.9798,-1.9798,-1.9798,-2.0055,-2.056,-1.9417,-1.9035,-1.9561,-1.9051,-1.8272,-1.7312,-1.6951,-1.6625,-1.6269,-1.5957,-1.5792,-1.5792,-1.5603,-1.5334,-1.5062,-1.48,-1.4569,-1.4384,-1.3962,-1.3573,-1.317,-1.2813,-1.2076,-1.1326,-2.2402,-2.2426,-2.2426,-2.2426,-2.2684,-2.3032,-2.3331,-2.392,-2.4385,-2.4511,-2.4962,-2.5046,-2.4449,-2.4381,-2.4218,-2.3744,-2.3717,-2.3717,-2.3717,-2.3717,-2.3717,-2.3717,-2.4557,-2.5005,-2.5005,-2.5005,-2.5005,-2.5005,-2.5005,-2.5005,-2.5005,-2.5005,-2.5005,-2.5005,-2.5005,-2.4948,-2.4835,-2.4835,-2.4436,-2.3894,-2.3838,-2.3712,-2.3529,-2.3529,-2.3472,-2.3485,-2.3485,-2.3106,-2.2622,-2.2622,-2.2463,-2.2146,-2.1517,-2.1166,-2.0805,-2.0078,-1.9862,-1.9862,-1.9798,-1.9798,-1.9798,-1.9798,-1.9798,-1.9798,-1.9798,-1.9798,-1.9798,-1.9798,-1.9798,-1.9798,-1.9798,-1.9798,-1.9798,-1.9798,-1.9798,-1.9798,-1.9798,-1.9798,-1.9798,-1.9798,-1.9798,-1.9798,-1.9798,-1.9798,-1.9798,-1.9798,-1.9798,-1.9798,-1.9798,-2.0156,-2.0258,-2.0055,-1.9697,-1.9162,-1.8482,-1.7861,-1.7329,-1.6951,-1.6454,-1.612,-1.5957,-1.5836,-1.5792,-1.5792,-1.5603,-1.5334,-1.5062,-1.48,-1.443,-1.3952,-1.3563,-1.318,-1.2764,-1.2224,-1.1728,-1.1267,-2.1873,-2.2053,-2.2115,-2.1861,-2.231,-2.2747,-2.2723,-2.3541,-2.4063,-2.391,-2.4336,-2.4422,-2.3784,-2.3717,-2.3581,-2.3216,-2.3189,-2.3189,-2.3189,-2.3189,-2.3189,-2.3189,-2.392,-2.4313,-2.4313,-2.4313,-2.4313,-2.4313,-2.4313,-2.4313,-2.4313,-2.4313,-2.4244,-2.4231,-2.4231,-2.4121,-2.4023,-2.3955,-2.3657,-2.3118,-2.3076,-2.2965,-2.2897,-2.2884,-2.2884,-2.2897,-2.2884,-2.2505,-2.2021,-2.1981,-2.1665,-2.126,-2.0703,-2.0536,-2.0408,-1.9899,-1.9798,-1.9798,-1.9798,-1.9798,-1.9798,-1.9798,-1.9798,-1.9798,-1.9798,-1.9798,-1.9798,-1.9798,-1.9798,-1.9798,-1.9798,-1.9798,-1.9798,-1.9798,-1.9798,-1.9798,-1.9798,-1.9798,-1.9798,-1.9798,-1.9798,-1.9798,-1.9798,-1.9798,-1.9798,-1.9798,-1.9798,-1.971,-1.951,-1.9799,-1.985,-1.9497,-1.9239,-1.8732,-1.7989,-1.7501,-1.698,-1.6497,-1.6163,-1.5913,-1.5792,-1.5792,-1.5792,-1.5792,-1.5468,-1.5244,-1.5062,-1.4743,-1.428,-1.3773,-1.3515,-1.3142,-1.2627,-1.2126,-1.1619,-1.1293,-2.1332,-2.1716,-2.185,-2.1247,-2.2355,-2.309,-2.2408,-2.3737,-2.4405,-2.3218,-2.3703,-2.3879,-2.3175,-2.3107,-2.308,-2.3026,-2.3026,-2.3026,-2.3026,-2.3026,-2.3026,-2.3026,-2.3026,-2.3026,-2.3026,-2.3121,-2.3189,-2.3189,-2.3189,-2.3189,-2.3189,-2.3189,-2.3109,-2.2976,-2.2976,-2.2937,-2.2778,-2.2671,-2.2537,-2.2498,-2.2376,-2.2335,-2.2322,-2.2296,-2.2309,-2.2322,-2.2296,-2.1917,-2.1381,-2.1237,-2.0681,-1.999,-1.999,-1.9926,-1.9798,-1.9798,-1.9798,-1.9798,-1.9798,-1.9798,-1.9798,-1.9798,-1.9798,-1.9798,-1.9798,-1.9798,-1.9798,-1.9798,-1.9798,-1.9798,-1.9798,-1.9798,-1.9798,-1.9798,-1.9798,-1.9786,-1.9748,-1.9773,-1.9786,-1.9736,-1.9773,-1.9798,-1.9798,-1.9798,-1.9798,-1.9798,-1.9798,-1.9597,-1.912,-1.9046,-1.9021,-1.897,-1.8423,-1.8088,-1.7989,-1.7714,-1.7083,-1.5988,-1.6037,-1.5961,-1.5792,-1.5792,-1.5792,-1.5792,-1.5289,-1.5108,-1.5062,-1.4649,-1.4204,-1.3826,-1.3826,-1.3377,-1.2782,-1.2379,-1.1872,-1.1362,-2.0779,-2.0875,-2.0875,-2.0761,-2.1022,-2.121,-2.1035,-2.2331,-2.302,-2.2276,-2.3297,-2.3702,-2.2617,-2.2509,-2.2319,-2.1857,-2.1817,-2.1817,-2.1817,-2.1817,-2.1817,-2.1817,-2.1817,-2.1817,-2.1817,-2.2701,-2.3189,-2.3189,-2.3189,-2.3189,-2.3189,-2.3109,-2.3043,-2.2976,-2.2884,-2.2778,-2.2617,-2.2617,-2.226,-2.1747,-2.1707,-2.1707,-2.1707,-2.1694,-2.1694,-2.1707,-2.1694,-2.1277,-2.0693,-2.0386,-2.0143,-1.999,-1.9862,-1.9811,-1.9798,-1.9798,-1.9798,-1.9798,-1.9798,-1.9798,-1.9798,-1.9798,-1.9798,-1.9798,-1.9798,-1.9798,-1.9798,-1.9798,-1.9798,-1.9798,-1.9798,-1.9798,-1.9798,-1.9798,-1.9798,-1.966,-1.9246,-1.9547,-1.9648,-1.9246,-1.9547,-1.9798,-1.9798,-1.9798,-1.9798,-1.9798,-1.9798,-1.9748,-1.9635,-1.9635,-1.9384,-1.8871,-1.9095,-1.8746,-1.769,-1.7642,-1.7058,-1.6001,-1.6336,-1.6233,-1.5792,-1.5792,-1.5792,-1.5792,-1.5289,-1.5108,-1.5097,-1.4979,-1.4698,-1.4247,-1.399,-1.3759,-1.3556,-1.2593,-1.2069,-1.1678,-2.0213,-2.043,-2.0511,-2.0202,-2.0587,-2.0858,-2.0711,-2.1863,-2.2424,-2.1734,-2.2563,-2.2902,-2.1979,-2.1884,-2.1749,-2.145,-2.1423,-2.1423,-2.1423,-2.1423,-2.1423,-2.1423,-2.1423,-2.1423,-2.1423,-2.2047,-2.2322,-2.2322,-2.2322,-2.2322,-2.2221,-2.2143,-2.2105,-2.203,-2.1914,-2.181,-2.1694,-2.1694,-2.1471,-2.1106,-2.1106,-2.1106,-2.1106,-2.1106,-2.1106,-2.1106,-2.1055,-2.0707,-2.0246,-2.0042,-1.9978,-1.9862,-1.9811,-1.9798,-1.9798,-1.9798,-1.9798,-1.9798,-1.9798,-1.9798,-1.9798,-1.9798,-1.9798,-1.9798,-1.9798,-1.9798,-1.9798,-1.9798,-1.9798,-1.9798,-1.9798,-1.9798,-1.9723,-1.9472,-1.9635,-1.9522,-1.8744,-1.9309,-1.961,-1.9033,-1.9484,-1.9798,-1.9798,-1.9798,-1.9798,-1.9798,-1.9759,-1.9595,-1.9333,-1.927,-1.9044,-1.8709,-1.888,-1.8706,-1.797,-1.8176,-1.7847,-1.7049,-1.6726,-1.6618,-1.6536,-1.6536,-1.6501,-1.6349,-1.5973,-1.5736,-1.5615,-1.5235,-1.4879,-1.4461,-1.4049,-1.3777,-1.3521,-1.2824,-1.2314,-1.1822,-1.9648,-2.0021,-2.0169,-1.9568,-2.0362,-2.092,-2.0653,-2.1667,-2.2193,-2.1412,-2.1876,-2.2074,-2.1491,-2.1423,-2.1423,-2.1423,-2.1423,-2.1423,-2.1423,-2.1423,-2.1423,-2.1423,-2.1423,-2.1423,-2.1423,-2.1423,-2.1423,-2.1423,-2.1423,-2.1326,-2.118,-2.118,-2.1059,-2.0901,-2.0888,-2.0775,-2.0699,-2.0699,-2.0699,-2.0699,-2.0699,-2.0699,-2.0699,-2.0699,-2.0712,-2.0662,-2.0562,-2.0296,-1.999,-1.9978,-1.9862,-1.9798,-1.9798,-1.9798,-1.9798,-1.9798,-1.9798,-1.9798,-1.9798,-1.9798,-1.9798,-1.9798,-1.9798,-1.9798,-1.9798,-1.9798,-1.9798,-1.9798,-1.9798,-1.9798,-1.9798,-1.9736,-1.9522,-1.9046,-1.9309,-1.9221,-1.8329,-1.9045,-1.951,-1.9033,-1.9484,-1.9798,-1.9798,-1.9798,-1.9798,-1.9747,-1.9656,-1.9418,-1.8908,-1.8795,-1.8657,-1.8559,-1.8568,-1.8454,-1.8396,-1.869,-1.8686,-1.8326,-1.7448,-1.7207,-1.7544,-1.7411,-1.7216,-1.6971,-1.6673,-1.6373,-1.603,-1.5477,-1.4985,-1.456,-1.4184,-1.3808,-1.3433,-1.3012,-1.2505,-1.1985,-1.9095,-1.9167,-1.9167,-1.9117,-1.9478,-1.983,-1.9784,-2.0927,-2.1587,-2.0938,-2.1726,-2.2074,-2.1491,-2.1423,-2.1423,-2.1423,-2.1423,-2.1423,-2.1423,-2.1423,-2.1423,-2.1423,-2.1423,-2.1423,-2.1423,-2.1423,-2.1423,-2.1423,-2.1423,-2.1326,-2.118,-2.1082,-2.0961,-2.0888,-2.0775,-2.0712,-2.0699,-2.0699,-2.0699,-2.0699,-2.0699,-2.0699,-2.0699,-2.0699,-2.0612,-2.0511,-2.0511,-2.0296,-1.999,-1.9862,-1.9798,-1.9798,-1.9798,-1.9798,-1.9798,-1.9798,-1.9798,-1.9798,-1.9798,-1.9798,-1.9798,-1.9798,-1.9798,-1.9798,-1.9798,-1.9798,-1.9798,-1.9798,-1.9798,-1.9798,-1.9798,-1.9434,-1.9058,-1.8983,-1.8681,-1.838,-1.8229,-1.8744,-1.9058,-1.8983,-1.9484,-1.9798,-1.9798,-1.9798,-1.9759,-1.9656,-1.9617,-1.9527,-1.931,-1.931,-1.9037,-1.8458,-1.887,-1.879,-1.8256,-1.8277,-1.8506,-1.8879,-1.8734,-1.847,-1.8085,-1.7369,-1.702,-1.6971,-1.6473,-1.6019,-1.562,-1.5648,-1.5229,-1.454,-1.453,-1.4421,-1.42,-1.2993,-1.2499,-1.2332,-1.8987,-1.8987,-1.8987,-1.8987,-1.9356,-1.9617,-1.9617,-2.0335,-2.086,-2.0785,-2.1183,-2.1448,-2.1402,-2.1423,-2.1423,-2.1423,-2.1423,-2.1423,-2.1423,-2.1423,-2.1423,-2.1423,-2.1423,-2.1423,-2.1423,-2.1326,-2.1277,-2.1277,-2.1277,-2.1193,-2.101,-2.0974,-2.0875,-2.0775,-2.0712,-2.0699,-2.0699,-2.0699,-2.0699,-2.0699,-2.0699,-2.0699,-2.0699,-2.0699,-2.0612,-2.0461,-2.0309,-2.0093,-1.9862,-1.9811,-1.9798,-1.9798,-1.9798,-1.9798,-1.9798,-1.9798,-1.9798,-1.9798,-1.9798,-1.9798,-1.9798,-1.9798,-1.9798,-1.9798,-1.9798,-1.9798,-1.9798,-1.9798,-1.9798,-1.9798,-1.9798,-1.961,-1.9359,-1.907,-1.9058,-1.8833,-1.8172,-1.887,-1.9459,-1.9459,-1.966,-1.9747,-1.9708,-1.9708,-1.9604,-1.9512,-1.942,-1.9368,-1.9275,-1.921,-1.9049,-1.8742,-1.8984,-1.8943,-1.865,-1.865,-1.8915,-1.942,-1.9131,-1.9023,-1.9071,-1.8737,-1.8366,-1.8035,-1.7493,-1.6997,-1.6472,-1.6337,-1.5864,-1.5251,-1.5022,-1.4615,-1.4127,-1.3159,-1.2653,-1.2389]},{"header":{"parameterUnit":"m.s-1","parameterCategory":1,"la1":30.6,"la2":28.766,"lo1":-90.7593,"lo2":-88.6598,"dy":0.0162,"dx":0.0183,"nx":116,"ny":114,"refTime":"2023-08-03T00:00:00:Z","depth":0,"parameterNumber":3,"parameterNumberName":"V-component_of_WINDS"},"data":[0.0,0.0,0.0,0.0,0.0,0.0,0.0,0.0,0.0,0.0,0.0,0.0,0.0,0.0,0.0,0.0,0.0,0.0,0.0,0.0,0.0,0.0,0.0,0.0,0.0,0.0,0.0,0.0,0.0,0.0,0.0,0.0,0.0,0.0,0.0,0.0,0.0,0.0,0.0,0.0,0.0,0.0,0.0,0.0,0.0,0.0,0.0,0.0,0.0,0.0,0.0,0.0,0.0,0.0,0.0,0.0,0.0,0.0,0.0,0.0,0.0,0.0,0.0,0.0,0.0,0.0,0.0,0.0,0.0,0.0,0.0,0.0,0.0,0.0,0.0,0.0,0.0,0.0,0.0,0.0,0.0,0.0,0.0,0.0,0.0,0.0,0.0,0.0,0.0,0.0,0.0,0.0,0.0,0.0,0.0,0.0,0.0,0.0,0.0,0.0,0.0,0.0,0.0,0.0,0.0,0.0,0.0,0.0,0.0,0.0,0.0,0.0,0.0,0.0,0.0,0.0,0.0,0.0,0.0,0.0,0.0,0.0,0.0,0.0,0.0,0.0,0.0,0.0,0.0,0.0,0.0,0.0,0.0,0.0,0.0,0.0,0.0,0.0,0.0,0.0,0.0,0.0,0.0,0.0,0.0,0.0,0.0,0.0,0.0,0.0,0.0,0.0,0.0,0.0,0.0,0.0,0.0,0.0,0.0,0.0,0.0,0.0,0.0,0.0,0.0,0.0,0.0,0.0,0.0,0.0,0.0,0.0,0.0,0.0,0.0,0.0,0.0,0.0,0.0,0.0,0.0,0.0,0.0,0.0,0.0,0.0,0.0,0.0,0.0,0.0,0.0,0.0,0.0,0.0,0.0,0.0,0.0,0.0,0.0,0.0,0.0,0.0,0.0,0.0,0.0,0.0,0.0,0.0,0.0,0.0,0.0,0.0,0.0,0.0,0.0,0.0,0.0,0.0,0.0,0.0,0.0,0.0,0.0,0.0,0.0,0.0,0.0,0.0,0.0,0.0,0.0,0.0,0.0,0.0,0.0,0.0,0.0,0.0,0.0,0.0,0.0,0.0,0.0,0.0,0.0,0.0,0.0,0.0,0.0,0.0,0.0,0.0,0.0,0.0,0.0,0.0,0.0,0.0,0.0,0.0,0.0,0.0,0.0,0.0,0.0,0.0,0.0,0.0,0.0,0.0,0.0,0.0,0.0,0.0,0.0,0.0,0.0,0.0,0.0,0.0,0.0,0.0,0.0,0.0,0.0,0.0,0.0,0.0,0.0,0.0,0.0,0.0,0.0,0.0,0.0,0.0,0.0,0.0,0.0,0.0,0.0,0.0,0.0,0.0,0.0,0.0,0.0,0.0,0.0,0.0,0.0,0.0,0.0,0.0,0.0,0.0,0.0,0.0,0.0,0.0,0.0,0.0,0.0,0.0,0.0,0.0,0.0,0.0,0.0,0.0,0.0,0.0,0.0,0.0,0.0,0.0,0.0,0.0,0.0,0.0,0.0,0.0,0.0,0.0,0.0,0.0,0.0,0.0,0.0,0.0,0.0,0.0,0.0,0.0,0.0,0.0,0.0,0.0,0.0,0.0,0.0,0.0,0.0,0.0,0.0,0.0,0.0,0.0,0.0,0.0,0.0,0.0,0.0,0.0,0.0,0.0,0.0,0.0,0.0,0.0,0.0,0.0,0.0,0.0,0.0,0.0,0.0,0.0,0.0,0.0,0.0,0.0,0.0,0.0,0.0,0.0,0.0,0.0,0.0,0.0,0.0,0.0,0.0,0.0,0.0,0.0,0.0,0.0,0.0,0.0,0.0,0.0,0.0,0.0,0.0,0.0,0.0,0.0,0.0,0.0,0.0,0.0,0.0,0.0,0.0,0.0,0.0,0.0,0.0,0.0,0.0,0.0,0.0,0.0,0.0,0.0,0.0,0.0,0.0,0.0,0.0,0.0,0.0,0.0,0.0,0.0,0.0,0.0,0.0,0.0,0.0,0.0,0.0,0.0,0.0,0.0,0.0,0.0,0.0,0.0,0.0,0.0,0.0,0.0,0.0,0.0,0.0,0.0,0.0,0.0,0.0,0.0,0.0,0.0,0.0,0.0,0.0,0.0,0.0,0.0,0.0,0.0,0.0,0.0,0.0,0.0,0.0,0.0,0.0,0.0,0.0,0.0,0.0,0.0,0.0,0.0,0.0,0.0,0.0,0.0,0.0,0.0,0.0,0.0,0.0,0.0,0.0,0.0,0.0,0.0,0.0,0.0,0.0,0.0,0.0,0.0,0.0,0.0,0.0,0.0,0.0,0.0,0.0,0.0,0.0,0.0,0.0,0.0,0.0,0.0,0.0,0.0,0.0,0.0,0.0,0.0,0.0,0.0,0.0,0.0,0.0,0.0,0.0,0.0,0.0,0.0,0.0,0.0,0.0,0.0,0.0,0.0,0.0,0.0,0.0,0.0,0.0,0.0,0.0,0.0,0.0,0.0,0.0,0.0,0.0,0.0,0.0,0.0,0.0,0.0,0.0,0.0,0.0,0.0,0.0,0.0,0.0,0.0,0.0,0.0,0.0,0.0,0.0,0.0,0.0,0.0,0.0,0.0,0.0,0.0,0.0,0.0,0.0,0.0,0.0,0.0,0.0,0.0,0.0,0.0,0.0,0.0,0.0,0.0,0.0,0.0,0.0,0.0,0.0,0.0,0.0,0.0,0.0,0.0,0.0,0.0,0.0,0.0,0.0,0.0,0.0,0.0,0.0,0.0,0.0,0.0,0.0,0.0,0.0,0.0,0.0,0.0,0.0,0.0,0.0,0.0,0.0,0.0,0.0,0.0,0.0,0.0,0.0,0.0,0.0,0.0,0.0,0.0,0.0,0.0,0.0,0.0,0.0,0.0,0.0,0.0,0.0,0.0,0.0,0.0,0.0,0.0,0.0,0.0,0.0,0.0,0.0,0.0,0.0,0.0,0.0,0.0,0.0,0.0,0.0,0.0,0.0,0.0,0.0,0.0,0.0,0.0,0.0,0.0,0.0,0.0,0.0,0.0,0.0,0.0,0.0,0.0,0.0,0.0,0.0,0.0,0.0,0.0,0.0,0.0,0.0,0.0,0.0,0.0,0.0,0.0,0.0,0.0,0.0,0.0,0.0,0.0,0.0,0.0,0.0,0.0,0.0,0.0,0.0,0.0,0.0,0.0,0.0,0.0,0.0,0.0,0.0,0.0,0.0,0.0,0.0,0.0,0.0,0.0,0.0,0.0,0.0,0.0,0.0,0.0,0.0,0.0,0.0,0.0,0.0,0.0,0.0,0.0,0.0,0.0,0.0,0.0,0.0,0.0,0.0,0.0,0.0,0.0,0.0,0.0,0.0,0.0,0.0,0.0,0.0,0.0,0.0,0.0,0.0,0.0,0.0,0.0,0.0,0.0,0.0,0.0,0.0,0.0,0.0,0.0,0.0,0.0,0.0,0.0,0.0,0.0,0.0,0.0,0.0,0.0,0.0,0.0,0.0,0.0,0.0,0.0,0.0,0.0,0.0,0.0,0.0,0.0,0.0,0.0,0.0,0.0,0.0,0.0,0.0,0.0,0.0,0.0,0.0,0.0,0.0,0.0,0.0,0.0,0.0,0.0,0.0,0.0,0.0,0.0,0.0,0.0,0.0,0.0,0.0,0.0,0.0,0.0,0.0,0.0,0.0,0.0,0.0,0.0,0.0,0.0,0.0,0.0,0.0,0.0,0.0,0.0,0.0,0.0,0.0,0.0,0.0,0.0,0.0,0.0,0.0,0.0,0.0,0.0,0.0,0.0,0.0,0.0,0.0,0.0,0.0,0.0,0.0,0.0,0.0,0.0,0.0,0.0,0.0,0.0,0.0,0.0,0.0,0.0,0.0,0.0,0.0,0.0,0.0,0.0,0.0,0.0,0.0,0.0,0.0,0.0,0.0,0.0,0.0,0.0,0.0,0.0,0.0,0.0,0.0,0.0,0.0,0.0,0.0,0.0,0.0,0.0,0.0,0.0,0.0,0.0,0.0,0.0,0.0,0.0,0.0,0.0,0.0,0.0,0.0,0.0,0.0,0.0,0.0,0.0,0.0,0.0,0.0,0.0,0.0,0.0,0.0,0.0,0.0,0.0,0.0,0.0,0.0,0.0,0.0,0.0,0.0,0.0,0.0,0.0,0.0,0.0,0.0,0.0,0.0,0.0,0.0,0.0,0.0,0.0,0.0,0.0,0.0,0.0,0.0,0.0,0.0,0.0,0.0,0.0,0.0,0.0,0.0,0.0,0.0,0.0,0.0,0.0,0.0,0.0,0.0,0.0,0.0,0.0,0.0,0.0,0.0,0.0,0.0,0.0,0.0,0.0,0.0,0.0,0.0,0.0,0.0,0.0,0.0,0.0,0.0,0.0,0.0,0.0,0.0,0.0,0.0,0.0,0.0,0.0,0.0,0.0,0.0,0.0,0.0,0.0,0.0,0.0,0.0,0.0,0.0,0.0,0.0,0.0,0.0,0.0,0.0,0.0,0.0,0.0,0.0,0.0,0.0,0.0,0.0,0.0,0.0,0.0,0.0,0.0,0.0,0.0,0.0,0.0,0.0,0.0,0.0,0.0,0.0,0.0,0.0,0.0,0.0,0.0,0.0,0.0,0.0,0.0,0.0,0.0,0.0,0.0,0.0,0.0,0.0,0.0,0.0,0.0,0.0,0.0,0.0,0.0,0.0,0.0,0.0,0.0,0.0,0.0,0.0,0.0,0.0,0.0,0.0,0.0,0.0,0.0,0.0,0.0,0.0,0.0,0.0,0.0,0.0,0.0,0.0,0.0,0.0,0.0,0.0,0.0,0.0,0.0,0.0,0.0,0.0,0.0,0.0,0.0,0.0,0.0,0.0,0.0,0.0,0.0,0.0,0.0,0.0,0.0,0.0,0.0,0.0,0.0,0.0,0.0,0.0,0.0,0.0,0.0,0.0,0.0,0.0,0.0,0.0,0.0,0.0,0.0,0.0,0.0,0.0,0.0,0.0,0.0,0.0,0.0,0.0,0.0,0.0,0.0,0.0,0.0,0.0,0.0,0.0,0.0,0.0,0.0,0.0,0.0,0.0,0.0,0.0,0.0,0.0,0.0,0.0,0.0,0.0,0.0,0.0,0.0,0.0,0.0,0.0,0.0,0.0,0.0,0.0,0.0,0.0,0.0,0.0,0.0,0.0,0.0,0.0,0.0,0.0,0.0,0.0,0.0,0.0,0.0,0.0,0.0,0.0,0.0,0.0,0.0,0.0,0.0,0.0,0.0,0.0,0.0,0.0,0.0,0.0,0.0,0.0,0.0,0.0,0.0,0.0,0.0,0.0,0.0,0.0,0.0,0.0,0.0,0.0,0.0,0.0,0.0,0.0,0.0,0.0,0.0,0.0,0.0,0.0,0.0,0.0,0.0,0.0,0.0,0.0,0.0,0.0,0.0,0.0,0.0,0.0,0.0,0.0,0.0,0.0,0.0,0.0,0.0,0.0,0.0,0.0,0.0,0.0,0.0,0.0,0.0,0.0,0.0,0.0,0.0,0.0,0.0,0.0,0.0,0.0,0.0,0.0,0.0,0.0,0.0,0.0,0.0,0.0,0.0,0.0,0.0,0.0,0.0,0.0,0.0,0.0,0.0,0.0,0.0,0.0,0.0,0.0,0.0,0.0,0.0,0.0,0.0,0.0,0.0,0.0,0.0,0.0,0.0,0.0,0.0,0.0,0.0,0.0,0.0,0.0,0.0,0.0,0.0,0.0,0.0,0.0,0.0,0.0,0.0,0.0,0.0,0.0,0.0,0.0,0.0,0.0,0.0,0.0,0.0,0.0,0.0,0.0,0.0,0.0,0.0,0.0,0.0,0.0,0.0,0.0,0.0,0.0,0.0,0.0,0.0,0.0,0.0,0.0,0.0,0.0,0.0,0.0,0.0,0.0,0.0,0.0,0.0,0.0,0.0,0.0,0.0,0.0,0.0,0.0,0.0,0.0,0.0,0.0,0.0,0.0,0.0,0.0,0.0,0.0,0.0,0.0,0.0,0.0,0.0,0.0,0.0,0.0,0.0,0.0,0.0,0.0,0.0,0.0,0.0,-2.0668,-2.0143,0.0,0.0,0.0,0.0,0.0,0.0,0.0,0.0,0.0,0.0,0.0,0.0,0.0,0.0,0.0,0.0,0.0,0.0,0.0,0.0,0.0,0.0,0.0,0.0,0.0,0.0,0.0,0.0,0.0,0.0,0.0,0.0,0.0,0.0,0.0,0.0,0.0,0.0,0.0,0.0,0.0,0.0,0.0,0.0,0.0,0.0,0.0,0.0,0.0,0.0,0.0,0.0,0.0,0.0,0.0,0.0,0.0,0.0,0.0,0.0,0.0,0.0,0.0,0.0,0.0,0.0,0.0,0.0,0.0,0.0,0.0,0.0,0.0,0.0,0.0,0.0,0.0,0.0,0.0,0.0,0.0,0.0,0.0,0.0,0.0,0.0,0.0,0.0,0.0,0.0,0.0,0.0,0.0,0.0,0.0,0.0,0.0,0.0,0.0,0.0,0.0,0.0,0.0,0.0,0.0,0.0,0.0,0.0,0.0,0.0,0.0,0.0,0.0,0.0,-2.2031,-2.1656,0.0,0.0,0.0,0.0,0.0,0.0,0.0,0.0,0.0,0.0,0.0,0.0,0.0,0.0,0.0,0.0,0.0,0.0,0.0,0.0,0.0,0.0,0.0,0.0,0.0,0.0,0.0,0.0,0.0,0.0,0.0,0.0,0.0,0.0,0.0,0.0,0.0,0.0,0.0,0.0,0.0,0.0,0.0,0.0,0.0,0.0,0.0,0.0,0.0,0.0,0.0,0.0,0.0,0.0,0.0,0.0,0.0,0.0,0.0,0.0,0.0,0.0,0.0,0.0,0.0,0.0,0.0,0.0,0.0,0.0,0.0,0.0,0.0,0.0,0.0,0.0,0.0,0.0,0.0,0.0,0.0,0.0,0.0,0.0,0.0,0.0,0.0,0.0,0.0,0.0,0.0,0.0,0.0,0.0,0.0,0.0,0.0,0.0,0.0,0.0,0.0,0.0,0.0,0.0,0.0,0.0,0.0,0.0,-2.175,-2.2356,-2.3068,-2.3302,-2.3868,-2.4561,-2.3554,-2.3519,-2.4256,-2.2874,0.0,0.0,0.0,0.0,0.0,0.0,0.0,0.0,0.0,0.0,0.0,0.0,0.0,0.0,0.0,0.0,0.0,0.0,0.0,0.0,0.0,0.0,0.0,0.0,0.0,0.0,0.0,0.0,0.0,0.0,0.0,0.0,0.0,0.0,0.0,0.0,0.0,0.0,-0.3579,-0.5521,-0.6895,-0.7729,0.0,0.0,0.0,0.0,0.0,0.0,0.0,0.0,0.0,0.0,0.0,0.0,0.0,0.0,0.0,0.0,0.0,0.0,0.0,0.0,0.0,0.0,0.0,0.0,0.0,0.0,0.0,0.0,0.0,0.0,0.0,0.0,0.0,0.0,0.0,0.0,0.0,0.0,0.0,0.0,0.0,0.0,0.0,0.0,-1.2748,-1.3459,0.0,0.0,0.0,0.0,0.0,0.0,0.0,0.0,0.0,0.0,0.0,0.0,0.0,-2.0012,-2.1009,-2.194,-2.2798,-2.3723,-2.4714,-2.5582,-2.6586,-2.6232,-2.6461,-2.7088,-2.6679,0.0,-2.4684,-2.4598,0.0,0.0,0.0,0.0,0.0,0.0,0.0,0.0,0.0,0.0,0.0,0.0,0.0,0.0,0.0,0.0,0.0,0.0,0.0,0.0,0.0,0.0,0.0,0.0,0.0,0.0,0.0,0.0,0.0,0.0,0.0,0.0,0.0,0.0,0.0,0.0,-0.1001,-0.179,-0.2438,-0.3858,-0.5215,-0.6675,-0.8426,-1.0503,-1.2796,-1.377,0.0,0.0,0.0,0.0,0.0,0.0,0.0,0.0,0.0,0.0,0.0,0.0,0.0,0.0,0.0,0.0,0.0,0.0,0.0,0.0,0.0,0.0,0.0,0.0,0.0,0.0,0.0,0.0,0.0,0.0,0.0,0.0,0.0,0.0,0.0,0.0,0.0,0.0,0.0,-1.2608,-1.3324,-1.3238,-1.3389,-1.3297,0.0,0.0,0.0,0.0,0.0,0.0,0.0,0.0,0.0,-2.0358,-2.0914,-2.1792,-2.3188,-2.3817,-2.4571,-2.5346,-2.5867,-2.6452,-2.6843,-2.6859,-2.7059,-2.7295,-2.7729,-2.7502,-2.6814,-2.6475,-2.6544,-2.6931,0.0,0.0,0.0,0.0,-3.0119,-3.0638,0.0,0.0,0.0,0.0,0.0,0.0,0.0,0.0,0.0,0.0,0.0,0.0,0.0,0.0,0.0,0.2758,0.0,0.0,0.0,0.0,0.0,0.0,0.0,0.0,0.0,0.0,0.0,0.0,0.0606,-0.0353,-0.1433,-0.2341,-0.3965,-0.5939,-0.7166,-0.9469,-1.2471,-1.3585,-1.433,0.0,0.0,0.0,0.0,0.0,0.0,0.0,0.0,0.0,0.0,0.0,0.0,0.0,0.0,0.0,0.0,0.0,0.0,0.0,0.0,0.0,0.0,0.0,0.0,0.0,0.0,0.0,0.0,0.0,0.0,0.0,0.0,0.0,0.0,0.0,0.0,0.0,0.0,-1.3383,-1.3895,-1.3367,-1.3933,-1.4098,0.0,0.0,0.0,0.0,0.0,0.0,-1.9325,-2.014,-2.1057,-2.203,-2.2374,-2.338,-2.4998,-2.5324,-2.588,-2.6655,-2.6892,-2.701,-2.7002,-2.7136,-2.7331,-2.7566,-2.8166,-2.8829,-2.9347,-2.8412,-2.8566,-2.9411,-2.97,-3.0116,-3.0604,-3.1295,-3.1878,-3.2237,0.0,0.0,0.0,0.0,0.0,0.0,0.0,0.0,0.0,0.0,0.0,0.0,0.0,0.0,0.3451,0.3889,0.3905,0.3951,0.0,0.0,0.0,0.0,0.0,0.0,0.0,0.0,0.0,0.2418,0.1239,0.0269,-0.0538,-0.1917,-0.3587,-0.5425,-0.6885,-0.9154,-1.1887,-1.2748,-1.3785,-1.4968,0.0,0.0,0.0,0.0,0.0,0.0,0.0,0.0,0.0,0.0,0.0,0.0,0.0,0.0,0.0,0.0,0.0,0.0,0.0,0.0,0.0,0.0,0.0,0.0,0.0,0.0,0.0,0.0,0.0,0.0,0.0,0.0,0.0,0.0,0.0,0.0,0.0,0.0,0.0,-1.4778,-1.5408,0.0,0.0,0.0,0.0,-1.8272,-1.8768,-1.9794,-2.1431,-2.1613,-2.2059,-2.301,-2.3354,-2.4179,-2.562,-2.5961,-2.6775,-2.806,-2.8169,-2.816,-2.8152,-2.7758,-2.807,-2.8909,-2.8643,-2.9874,-3.1886,-3.0353,-3.0087,-3.0697,-3.0223,-3.099,-3.2297,-3.1356,-3.2007,-3.3178,0.0,0.0,0.0,0.0,0.0,0.0,0.0,0.0,0.0,0.0,0.0,0.0,0.0,0.4521,0.5164,0.5351,0.5367,0.5402,0.5361,0.0,0.0,0.0,0.0,0.0,0.0,0.0,0.441,0.4323,0.2966,0.2015,0.1489,-0.061,-0.2431,-0.3986,-0.5543,-0.775,-1.0386,-1.1987,-1.3162,-1.4101,-1.5638,-1.6133,0.0,0.0,0.0,0.0,0.0,0.0,0.0,0.0,0.0,0.0,0.0,0.0,0.0,0.0,0.0,0.0,0.0,0.0,0.0,0.0,0.0,0.0,0.0,0.0,0.0,0.0,0.0,0.0,0.0,0.0,0.0,0.0,0.0,0.0,0.0,0.0,0.0,-1.4939,-1.6233,0.0,-1.6298,-1.7723,-1.9065,-1.9725,-2.096,-2.2081,-2.2893,-2.312,-2.3384,-2.3727,-2.4238,-2.506,-2.5945,-2.6463,-2.7165,-2.8186,-2.7938,-2.8182,-2.8668,-2.8392,-2.8688,-2.9627,-3.0058,-3.081,-3.1717,-3.2107,-3.2691,-3.3258,-3.3493,-3.3872,-3.4311,-3.3652,-3.3833,-3.4142,0.0,0.0,0.0,0.0,0.0,0.0,0.0,0.0,0.0,0.0,0.0,0.4483,0.4749,0.5706,0.6447,0.6781,0.689,0.7044,0.718,0.0,0.0,0.0,0.0,0.0,0.0,0.65,0.6214,0.615,0.4413,0.3204,0.2427,0.0655,-0.1052,-0.2749,-0.4291,-0.6241,-0.8393,-1.0468,-1.2111,-1.3567,-1.5498,-1.6196,-1.6097,0.0,0.0,0.0,0.0,0.0,0.0,0.0,0.0,0.0,0.0,0.0,0.0,0.0,0.0,0.0,0.0,0.0,0.0,0.0,0.0,0.0,0.0,0.0,0.0,0.0,0.0,0.0,0.0,0.0,0.0,0.0,0.0,0.0,0.0,-1.5544,-1.6073,-1.5309,-1.7064,-1.8081,-1.7165,-1.9325,-2.0934,-2.116,-2.2443,-2.3303,-2.3735,-2.422,-2.4468,-2.4468,-2.523,-2.5822,-2.6215,-2.6845,-2.736,-2.7989,-2.8095,-2.8201,-2.855,-2.8893,-2.9456,-3.0142,-3.1206,-3.1772,-3.22,-3.3471,-3.4197,-3.4651,-3.487,-3.512,-3.5416,-3.459,-3.4383,-3.4406,0.0,0.0,0.0,0.0,0.0,0.0,0.0,0.0,0.0,0.0,0.4616,0.5484,0.6342,0.6601,0.7181,0.8221,0.8415,0.8731,0.9233,0.961,0.0,0.0,0.0,0.0,0.9406,0.7672,0.6991,0.7558,0.5621,0.3828,0.2259,0.1672,0.0225,-0.1879,-0.3227,-0.4643,-0.5986,-0.8248,-1.0653,-1.327,-1.4934,-1.546,-1.538,0.0,0.0,0.0,0.0,0.0,0.0,0.0,0.0,0.0,0.0,0.0,0.0,0.0,0.0,0.0,0.0,0.0,0.0,0.0,0.0,0.0,0.0,0.0,0.0,0.0,0.0,0.0,0.0,0.0,0.0,0.0,0.0,0.0,-1.5931,-1.6586,-1.676,-1.6053,-1.8013,-1.932,-1.8698,-2.0819,-2.2321,-2.2703,-2.2952,-2.3413,-2.4049,-2.4842,-2.5221,-2.5107,-2.6056,-2.6544,-2.6612,-2.6942,-2.7185,-2.7569,-2.8543,-2.8496,-2.7876,-2.9325,-3.021,-3.0714,-3.1724,-3.2794,-3.3715,-3.4247,-3.4634,-3.4669,-3.4144,-3.4543,-3.5313,-3.3843,-3.3579,-3.3889,0.0,0.0,0.0,0.0,0.0,0.0,0.0,0.0,0.0,0.0,0.58,0.6932,0.6854,0.7724,0.8409,0.848,0.8751,0.8918,0.9098,0.0,0.0,0.0,0.0,0.0,0.9484,0.8835,0.8523,0.8477,0.6757,0.5547,0.4665,0.2712,0.1068,-0.0285,-0.2387,-0.3903,-0.5038,-0.7742,-0.9531,-1.0744,-1.3903,-1.5389,-1.5706,0.0,0.0,0.0,0.0,0.0,0.0,0.0,0.0,0.0,0.0,0.0,0.0,0.0,0.0,0.0,0.0,0.0,0.0,0.0,0.0,0.0,0.0,0.0,0.0,0.0,0.0,0.0,0.0,0.0,0.0,0.0,-1.6297,-1.6978,-1.6695,-1.7225,-1.7842,-1.8729,-1.9644,-2.079,-2.2097,-2.3186,-2.3903,-2.4094,-2.4396,-2.4668,-2.4857,-2.4751,-2.4876,-2.5399,-2.587,-2.6183,-2.6224,-2.6554,-2.6661,-2.679,-2.7452,-2.79,-2.8482,-3.025,-3.1055,-3.1256,-3.2261,-3.2739,-3.2583,-3.2882,-3.3182,-3.3625,-3.4323,-3.4772,-3.49,-3.4096,-3.3419,-3.2879,0.0,0.0,0.0,0.0,0.0,0.0,0.0,0.0,0.0,0.0,0.6059,0.7191,0.7394,0.822,0.8831,0.898,0.9057,0.9368,1.0012,0.0,0.0,0.0,0.0,1.048,1.0496,0.9882,0.9411,0.8954,0.7415,0.6234,0.5502,0.352,0.2185,0.1258,-0.102,-0.2495,-0.3429,-0.6006,-0.7744,-0.9006,-1.1812,-1.3762,-1.4977,-1.6182,-1.7,-1.7632,-1.8304,-1.8675,-1.909,-1.9784,0.0,0.0,0.0,0.0,0.0,0.0,0.0,0.0,0.0,0.0,0.0,0.0,0.0,0.0,0.0,0.0,0.0,0.0,0.0,0.0,0.0,0.0,0.0,0.0,-1.731,-1.7793,-1.769,-1.8078,-1.8722,-1.9991,-2.0849,-2.197,-2.3457,-2.4405,-2.4936,-2.4797,-2.4828,-2.4921,-2.5068,-2.5,-2.5059,-2.556,-2.5968,-2.6148,-2.5989,-2.6126,-2.6485,-2.6828,-2.735,-2.7958,-2.8884,-3.0445,-3.1168,-3.1266,-3.2263,-3.2394,-3.2002,-3.2353,-3.2485,-3.2632,0.0,0.0,0.0,0.0,-3.2994,-3.2454,0.0,0.0,0.0,0.0,0.0,0.0,0.0,0.0,0.0,0.0,0.0,0.6798,0.7886,0.8304,0.8835,0.9515,0.9415,0.9903,0.0,0.0,0.0,1.2488,1.2176,1.1919,1.1718,1.0666,0.9805,0.9214,0.7699,0.647,0.5553,0.4381,0.336,0.2505,0.0487,-0.0791,-0.1582,-0.3772,-0.5803,-0.7709,-0.9166,-1.1317,-1.3631,-1.4458,-1.5434,-1.651,-1.788,-1.8313,-1.8405,-1.9761,0.0,0.0,0.0,0.0,0.0,0.0,0.0,0.0,0.0,0.0,0.0,0.0,0.0,0.0,0.0,0.0,0.0,0.0,0.0,0.0,0.0,0.0,0.0,0.0,-1.8037,-1.8372,-1.8607,-1.8843,-1.9391,-2.0354,-2.1665,-2.2799,-2.3792,-2.4937,-2.553,-2.525,-2.4891,-2.4706,-2.5016,-2.5277,0.0,0.0,0.0,-2.6208,-2.5874,-2.5831,-2.624,-2.7092,-2.7576,-2.8369,-2.9255,-3.0379,-3.0751,-3.0777,-3.1873,-3.1995,-3.1611,-3.2054,-3.2041,-3.1857,-3.2822,-3.3235,-3.3212,-3.2615,-3.246,-3.2333,0.0,0.0,0.0,0.0,0.0,0.0,0.0,0.0,0.0,0.4138,0.5675,0.6857,0.7749,0.8403,0.8971,0.956,0.998,1.0567,0.0,0.0,1.1496,1.1336,1.0963,1.0711,1.0581,1.0212,0.9884,0.9538,0.8515,0.7559,0.6682,0.5657,0.4478,0.3189,0.161,0.0461,-0.0472,-0.2997,-0.4752,-0.5942,-0.7573,-1.0047,-1.296,-1.4616,-1.5791,-1.6729,-1.7748,-1.8424,-1.8945,-1.9703,-1.9925,-1.998,-2.0384,0.0,0.0,0.0,0.0,0.0,0.0,0.0,0.0,0.0,0.0,0.0,0.0,0.0,0.0,0.0,0.0,0.0,0.0,0.0,0.0,-1.8183,-1.853,-1.8674,-1.836,-1.8414,-1.9265,-2.1477,-2.1476,-2.2598,-2.5596,-2.5704,-2.5602,-2.5937,-2.5504,-2.5332,-2.5398,-2.491,-2.492,-2.5804,-2.563,-2.5557,-2.548,-2.5181,-2.5529,-2.6378,-2.6903,0.0,-2.8915,-3.0743,-3.1062,-3.0359,-3.144,-3.1575,-3.1072,-3.0743,-3.1088,-3.1823,-3.2408,-3.2902,-3.3178,-3.2441,-3.1924,-3.1414,0.0,0.0,0.0,0.0,0.0,0.0,0.0,0.0,0.0,0.0,0.5168,0.6423,0.7779,0.8354,0.898,0.961,1.0476,0.0,0.0,1.184,1.2057,1.1715,1.1411,1.1153,1.0929,1.0473,1.0031,0.9714,0.87,0.7912,0.7307,0.6128,0.4952,0.3883,0.2413,0.1463,0.0858,-0.1482,-0.3013,-0.3978,-0.5667,-0.7966,-1.0651,-1.2543,-1.4218,-1.5618,-1.6689,-1.745,-1.7997,-1.9188,-1.9652,-1.9967,-2.044,-2.0434,-2.0261,0.0,0.0,0.0,0.0,0.0,0.0,0.0,0.0,0.0,0.0,0.0,0.0,0.0,0.0,-1.7305,0.0,0.0,-1.8423,-1.8758,-1.8955,-1.8838,-1.8586,-1.8567,-1.9393,-2.1625,-2.1777,-2.2774,-2.5956,-2.6025,-2.6016,-2.6016,-2.5847,-2.5662,-2.5477,-2.4948,-2.4758,-2.5086,-2.5009,-2.4931,-2.4732,-2.4659,-2.5414,-2.6758,-2.6734,-2.772,-2.9494,-3.0297,-3.042,-3.0249,-3.0789,-3.0847,-3.0618,-3.0698,-3.1101,-3.1598,-3.1924,-3.2503,-3.2984,-3.2039,-3.1426,-3.1038,0.0,0.0,0.0,0.0,0.0,0.0,0.0,0.0,0.0,0.0,0.4381,0.5608,0.7629,0.8056,0.8631,0.0,0.0,0.0,0.0,1.2209,1.2646,1.2028,1.1784,1.1535,1.1264,1.0555,1.0045,0.971,0.8764,0.8084,0.7723,0.6519,0.5492,0.468,0.3229,0.2399,0.2014,-0.0056,-0.1446,-0.2384,-0.4155,-0.6092,-0.8102,-1.0065,-1.209,-1.4079,-1.5401,-1.6096,-1.6673,-1.8197,-1.8984,-1.9379,-2.0149,-2.0171,-1.9805,-1.9667,-1.9493,0.0,0.0,0.0,0.0,0.0,0.0,0.0,0.0,0.0,-1.7296,-1.828,-1.8401,-1.848,-1.8978,-1.91,-1.9142,-1.9376,-1.9305,-1.9083,-1.886,-1.8739,-1.9364,-2.1445,-2.184,-2.3012,-2.5583,-2.6097,-2.6182,-2.6067,-2.5866,-2.5694,-2.5613,-2.513,-2.4743,-2.4356,-2.4564,-2.4445,-2.4088,-2.4289,-2.5367,-2.7202,-2.6844,-2.7931,-3.0173,-2.9849,-2.9852,-3.0216,-3.0112,-3.0214,-3.0432,-3.0949,-3.1227,-3.132,-3.148,-3.1937,-3.2299,-3.1343,-3.0828,-3.0661,0.0,0.0,0.0,0.0,0.0,0.0,0.0,0.0,0.0,0.0,0.0,0.0,0.0,0.0,0.0,0.0,0.0,0.0,1.097,1.1768,1.1759,1.0613,1.0322,1.0142,1.0008,0.968,0.9501,0.9465,0.9106,0.8573,0.7871,0.761,0.6799,0.5609,0.4381,0.3448,0.2683,0.0446,-0.0892,-0.1789,-0.3803,-0.5359,-0.6639,-0.8323,-1.0622,-1.3127,-1.4417,-1.5105,-1.5613,-1.6773,-1.7271,-1.7705,-1.9755,-2.0107,-1.978,-1.9573,0.0,-1.8271,-1.7481,-1.7483,-1.7902,-1.8628,-1.8521,-1.8569,0.0,0.0,-2.0026,-1.9704,-2.0253,-2.0563,-1.9898,-1.994,-1.9905,-1.9702,-1.9507,-1.9218,-1.8835,-1.8409,-1.8991,-2.1219,-2.1632,-2.2757,-2.5508,-2.5586,-2.5732,-2.6247,-2.5846,-2.5648,-2.6178,-2.5558,-2.5064,-2.5013,-2.5004,-2.4651,-2.3909,-2.4003,-2.4904,-2.6845,-2.6794,-2.8008,-3.0205,-3.0148,-3.0125,-3.0193,-2.9923,-3.026,-3.0859,-3.0437,-3.0531,-3.0941,-3.0941,-3.0909,-3.0719,-3.0138,-2.9889,-2.9928,0.0,0.0,0.0,0.0,0.0,0.0,0.0,0.0,0.0,0.0,0.0,0.0,0.0,0.0,0.0,0.0,0.0,0.0,1.0545,1.0969,1.1016,1.0478,1.0344,1.0233,1.0131,0.9503,0.9354,0.9732,0.8883,0.8461,0.8402,0.783,0.7074,0.6091,0.5097,0.4443,0.3904,0.1765,0.0344,-0.0574,-0.2107,-0.3955,-0.584,-0.6737,-0.8679,-1.1132,-1.2876,-1.3831,0.0,0.0,-1.6388,-1.6907,-1.8068,-1.8445,-1.8422,-1.8115,-1.8054,0.0,-1.8138,-1.7928,-1.7897,0.0,-1.9086,-1.9261,-2.0238,-2.0303,-2.0245,-2.0561,-2.0733,-2.0801,-2.0196,-2.0132,-2.0046,0.0,-1.9384,-1.9305,-1.9187,-1.8833,-1.9199,-2.1053,-2.1031,-2.2066,-2.5142,-2.4983,-2.5099,-2.5942,-2.59,-2.596,-2.5954,-2.5666,-2.5286,-2.4783,-2.4871,-2.4593,-2.3806,-2.3998,-2.4796,-2.6147,-2.6703,-2.7934,-2.9555,-3.0204,-3.0499,-3.0679,-3.0559,-3.0683,-3.0984,-3.1222,-3.1199,-3.1104,-3.0973,-3.062,-3.0216,-2.9832,-2.9642,-2.9558,0.0,0.0,0.0,0.0,0.0,0.0,0.0,0.0,0.0,0.0,0.0,0.0,0.0,0.0,0.0,0.0,0.0,0.0,0.0,1.0508,1.0524,1.0493,1.0928,1.1186,1.1213,1.1126,1.1358,1.189,1.0894,1.0548,1.0885,1.022,0.9133,0.7671,0.6855,0.5887,0.4688,0.2717,0.1407,0.0528,-0.0988,-0.2804,-0.4604,-0.5478,-0.7021,-0.9103,-1.1393,-1.263,0.0,0.0,-1.5265,-1.5634,-1.6275,-1.6611,-1.68,-1.6673,-1.686,-1.7381,-1.8243,-1.8054,-1.79,-1.9236,-1.9532,-1.9729,-2.05,-2.0367,-2.0361,-2.1032,-2.0971,-2.0704,-2.0386,-2.0254,-2.0075,-1.9625,-1.9414,-1.9272,-1.9359,-1.9112,-1.948,-2.1016,-2.0444,-2.1063,-2.4141,-2.4306,-2.4507,-2.5247,-2.5842,-2.6109,-2.5925,-2.5907,-2.5432,-2.4745,-2.4936,-2.4651,-2.3963,-2.4053,-2.4735,-2.5693,-2.6819,-2.7945,-2.9176,-3.0204,-3.0789,-3.0838,-3.0696,-3.0726,-3.0738,-3.114,-3.1097,-3.0703,-3.0579,-3.0194,-2.9723,-2.9558,-2.933,-2.9229,0.0,0.0,0.0,0.0,0.0,0.0,0.0,0.0,0.0,0.0,0.0,0.0,0.0,0.0,0.0,0.0,0.0,0.0,0.0,1.0686,1.057,1.03,1.211,1.3141,1.3221,1.5295,1.6449,1.6588,1.6291,1.6151,1.6168,1.608,1.4225,1.0945,1.0329,0.8004,0.4415,0.2713,0.1818,0.1362,-0.1164,-0.2209,-0.2552,-0.4677,-0.6169,-0.7391,-1.006,0.0,0.0,0.0,-1.3378,-1.3362,-1.4725,-1.5197,0.0,-1.5536,-1.5314,-1.5474,-1.7535,0.0,-1.7485,-1.929,-1.9746,-1.9984,-2.0664,-2.084,-2.0997,-2.0996,-2.1125,-2.1007,-2.0333,-1.9938,-1.9822,-1.9815,-1.9347,-1.9038,-1.9325,-1.9112,-1.9473,-2.0887,-1.9763,-2.0026,0.0,-2.3528,-2.3999,-2.4317,-2.5238,-2.5925,-2.6591,-2.6245,-2.5874,-2.539,-2.5372,-2.4977,-2.4161,-2.4152,-2.4735,-2.5693,-2.702,-2.8143,-2.9176,-3.0408,-3.0779,-3.0521,-2.9925,-2.9881,-3.0098,-2.9593,-2.9388,-2.9364,-2.9573,-2.9314,-2.884,-2.9022,-2.8852,-2.8833,0.0,0.0,0.0,0.0,0.0,0.0,0.0,0.0,0.0,0.0,0.0,0.0,0.0,0.0,0.0,0.0,0.0,0.0,0.0,0.9818,1.0646,1.3053,1.3257,1.4288,1.6321,1.6128,1.6305,1.694,1.6166,1.6391,1.7516,1.7126,1.6654,1.5925,1.2889,1.0815,0.9335,0.5231,0.2991,0.2045,0.0466,-0.1246,-0.282,-0.3388,-0.4931,-0.6844,0.0,0.0,0.0,0.0,-1.2424,-1.2557,-1.3668,-1.4125,-1.4303,-1.4817,-1.568,-1.6548,-1.6987,0.0,-1.8444,-1.9729,-1.9525,-1.9492,-2.0891,-2.1019,-2.0767,-2.0763,-2.0658,-2.0357,-1.9801,-1.937,-1.9192,-1.9152,-1.919,-1.9246,-1.9325,-1.9112,-1.9139,-1.989,-1.9503,0.0,0.0,0.0,0.0,-2.4556,-2.5679,-2.6364,-2.6582,-2.6208,-2.5815,-2.539,-2.5302,-2.4987,-2.4449,-2.4538,-2.5206,-2.6147,-2.7789,-2.9195,-3.0554,-3.0861,-3.1065,-3.1297,-3.1129,-3.0939,-3.0773,-3.0604,-3.0398,-3.0187,-2.9915,-2.9658,-2.945,-2.9187,-2.9353,-2.9919,0.0,0.0,0.0,0.0,0.0,0.0,0.0,0.0,0.0,0.0,0.0,0.0,0.0,0.0,0.0,0.0,0.0,0.0,0.0,0.0,1.0409,1.4182,1.4681,1.6273,1.9238,1.9527,1.9924,2.05,1.9763,2.0099,2.1407,2.0757,2.0351,2.0046,1.7293,1.4601,1.1937,0.8558,0.5502,0.2809,0.1565,-0.0352,-0.2519,-0.2538,-0.4134,0.0,0.0,0.0,0.0,-1.1118,-1.1668,-1.1725,-1.2373,-1.2967,-1.3635,-1.4466,-1.5435,-1.637,-1.6887,-1.7476,-1.8135,-1.919,-1.9042,-1.8965,-1.9999,-2.0181,-2.0069,-2.0194,-2.0124,-1.9821,-1.9408,-1.9111,-1.8819,-1.8693,-1.8898,-1.9022,-1.9326,-1.9199,-1.9179,-1.9706,-1.9636,-1.9593,0.0,0.0,0.0,-2.4364,-2.5508,-2.6289,-2.66,-2.6188,-2.5816,-2.5264,-2.5173,-2.4939,-2.4637,-2.4833,-2.5586,-2.7084,-2.8536,-2.9935,-3.1185,-3.1036,-3.1027,-3.0979,-3.1077,-3.0858,-3.0467,-3.0662,-3.0501,-3.0151,-3.0072,-2.9887,-2.9757,-2.9699,-3.0369,-3.1287,0.0,0.0,0.0,0.0,0.0,0.0,0.0,0.0,0.0,0.0,0.0,0.0,0.0,0.0,0.0,0.0,0.0,0.0,0.0,0.0,0.0,1.3698,1.6292,1.8969,2.1777,2.5031,2.6783,2.6877,2.6578,2.68,2.7489,2.6638,2.52,2.3327,2.3159,1.9087,1.2352,1.2195,0.8816,0.3431,0.2003,0.0213,-0.1678,-0.2184,0.0,0.0,0.0,0.0,0.0,0.0,0.0,-1.1107,-1.1021,-1.1929,-1.3323,-1.4498,-1.4715,-1.4981,-1.7171,-1.7062,-1.6736,-1.8016,-1.8336,-1.8295,-1.8241,-1.859,-1.9018,-1.9338,-1.9513,-1.9521,0.0,0.0,-1.8853,-1.8397,-1.8469,-1.8688,-1.9304,-1.9312,-1.9597,0.0,0.0,0.0,0.0,0.0,0.0,-2.3858,-2.4721,-2.5621,-2.6573,-2.6267,-2.5764,-2.5153,-2.5107,-2.502,-2.4941,-2.5011,-2.6127,-2.8276,-2.9259,-3.0105,-3.0917,-3.1077,-3.0591,-2.963,-2.9898,-2.9659,-2.9167,-2.9684,-2.9573,-2.9143,-2.9873,-2.9853,-2.9561,-3.0493,-3.1708,-3.2793,0.0,0.0,0.0,0.0,0.0,0.0,0.0,0.0,0.0,0.0,0.0,0.0,0.0,0.0,0.0,0.0,0.0,0.0,0.0,0.0,0.0,0.0,0.0,0.0,0.0,0.0,0.0,0.0,0.0,2.7567,2.8957,2.824,2.7864,2.7736,2.5122,2.11,1.6036,1.2465,0.7981,0.3199,0.0,-0.0222,-0.1609,0.0,0.0,0.0,0.0,0.0,0.0,0.0,0.0,0.0,0.0,-1.3158,-1.4133,-1.4456,-1.5833,-1.7037,-1.6425,-1.6969,-1.7636,-1.7819,-1.7453,-1.7363,-1.8402,-1.8589,-1.8427,-1.818,-1.8443,-1.8722,0.0,0.0,0.0,-1.9111,-1.9297,0.0,-1.9948,-2.0102,0.0,-2.0259,0.0,-2.0378,-2.0149,-2.0823,0.0,0.0,-2.4589,-2.5816,-2.6695,-2.636,-2.5881,-2.5456,-2.5343,-2.5242,-2.5235,-2.5849,-2.6775,-2.8054,-2.8479,-2.9315,-3.0543,-3.0297,-3.0339,-3.0449,-3.0449,-3.0072,-2.9353,-2.9436,-2.9332,-2.8999,-2.9137,-2.9439,-2.9716,-3.0093,-3.0811,-3.1626,0.0,0.0,0.0,0.0,0.0,0.0,0.0,0.0,0.0,0.0,0.0,0.0,0.0,0.0,0.0,0.0,0.0,0.0,0.0,0.0,0.0,0.0,0.0,0.0,0.0,0.0,0.0,0.0,0.0,0.0,0.0,2.9063,2.9324,2.9887,2.5566,2.1305,1.7054,0.0,0.0,0.0,0.0,0.0,0.0,0.0,0.0,0.0,0.0,0.0,0.0,0.0,0.0,-1.2391,-1.2652,-1.3255,-1.3949,-1.4517,0.0,-1.6887,-1.6459,-1.69,-1.7361,-1.7278,-1.6885,-1.6698,-1.7026,-1.7334,-1.7349,-1.6847,-1.7092,0.0,-1.6979,-1.7819,-1.8512,0.0,0.0,0.0,-2.0236,-2.0217,-2.0352,0.0,-2.0653,0.0,-2.0316,-2.0566,-2.1408,-2.2973,-2.4168,-2.5128,-2.5977,-2.5909,-2.5708,-2.5391,-2.536,-2.5246,-2.5247,-2.6362,-2.7216,-2.7743,-2.8773,-2.957,-3.015,-3.0077,-2.9911,-2.9751,-2.9831,-2.9506,-2.8862,-2.8811,-2.87,-2.8574,-2.8648,-2.8924,-2.9239,-2.9764,-3.0321,-3.1048,0.0,0.0,0.0,0.0,0.0,0.0,0.0,0.0,0.0,0.0,0.0,0.0,0.0,0.0,0.0,0.0,0.0,0.0,0.0,0.0,0.0,0.0,0.0,0.0,0.0,0.0,0.0,0.0,0.0,0.0,0.0,0.0,0.0,0.0,0.0,0.0,0.0,0.0,0.0,0.0,0.0,0.0,0.0,0.0,0.0,0.0,0.0,0.0,0.0,0.0,-1.0903,-1.166,-1.2218,-1.2819,-1.3512,-1.465,-1.5276,-1.584,-1.6682,-1.6776,-1.6606,-1.6585,-1.6528,-1.6145,-1.5147,-1.5581,-1.6038,-1.5454,0.0,-1.5948,-1.5612,-1.7123,-1.8108,-1.7173,0.0,-2.0144,-2.0259,-2.0276,-2.0437,-2.0687,-2.0734,-2.0667,-2.0357,-2.0322,-2.1075,-2.2925,-2.3365,-2.404,-2.5138,-2.5358,-2.5481,-2.5266,-2.5246,-2.5257,-2.5068,-2.6281,-2.7085,-2.7524,-2.9113,-2.9876,-2.9831,-3.0059,-2.9617,-2.8799,-2.8963,-2.8687,-2.8109,-2.8109,-2.8059,-2.8069,-2.8239,-2.8363,-2.8545,-2.9482,-3.0188,-3.0726,0.0,0.0,0.0,0.0,0.0,0.0,0.0,0.0,0.0,0.0,-0.5778,-0.4159,0.0,0.0,0.0,0.0,0.0,0.0,0.0,0.0,0.0,0.0,0.0,0.0,0.0,0.0,0.0,0.0,0.0,0.0,0.0,0.0,0.0,0.0,0.0,0.0,0.0,0.0,0.0,0.0,0.0,0.0,0.0,0.0,0.0,0.0,0.0,0.0,0.0,0.0,-1.1013,-1.1962,-1.2587,-1.344,-1.4186,-1.4095,-1.5205,-1.6398,-1.5861,-1.6156,-1.6581,-1.6171,-1.6038,-1.5872,-1.5317,-1.5245,0.0,0.0,-1.475,-1.5347,-1.5175,-1.658,-1.79,-1.8456,-1.9343,-2.0204,-2.0874,-2.0972,-2.1031,0.0,-2.114,-2.0938,-2.0394,-2.0471,0.0,0.0,-2.2118,-2.4059,-2.6088,-2.5817,-2.5548,-2.5195,-2.5081,-2.5146,-2.5068,-2.4816,-2.5461,-2.6929,-2.7277,-2.8184,-2.9489,-2.9749,-2.9739,-2.9564,-2.9641,-2.9063,-2.8109,-2.8109,-2.7918,-2.7657,-2.7741,-2.8066,-2.8672,-2.9551,-2.9976,-3.0224,0.0,0.0,0.0,0.0,0.0,0.0,0.0,0.0,-1.0149,-0.9634,-0.8498,-0.7086,-0.5305,-0.3835,0.0,0.0,0.0,0.0,0.0,0.0,0.0,0.0,0.0,0.0,0.0,0.0,0.0,0.0,0.0,0.0,0.0,0.0,0.0,0.0,0.0,0.0,0.0,0.0,0.0,0.0,0.0,0.0,0.0,0.0,0.0,0.0,0.0,0.0,0.0,0.0,-1.0292,-1.1283,-1.2243,-1.2972,-1.3659,-1.426,-1.5212,-1.6049,-1.6394,-1.6566,-1.6653,-1.6345,-1.6085,-1.5655,-1.4881,0.0,0.0,0.0,-1.3884,-1.4269,-1.4183,-1.5445,0.0,-1.7329,-1.8361,-1.956,-2.0772,-2.0808,-2.0896,-2.1408,-2.1167,-2.0783,-2.0518,-2.031,-2.0476,-2.1048,-2.1878,-2.2963,-2.419,-2.4707,-2.5045,-2.4933,-2.4697,-2.468,-2.4772,-2.474,-2.5423,-2.6842,-2.7265,-2.8211,-2.9599,-2.9702,-2.9628,-2.934,-2.9416,-2.9012,-2.8217,-2.8083,-2.7888,-2.7761,-2.7536,-2.7644,-2.8032,-2.8864,-2.9408,-2.9883,0.0,0.0,0.0,0.0,0.0,0.0,0.0,-1.0996,-1.0846,-1.087,-1.0639,-0.9778,-0.7859,-0.6003,-0.4779,0.0,0.0,0.0,0.0,0.0,0.0,0.0,0.0,0.0,0.0,0.0,0.0,1.0632,0.0,0.0,0.0,0.0,0.0,0.0,0.0,0.0,0.0,0.0,0.0,0.0,0.0,0.0,0.0,0.0,0.0,0.0,0.0,0.0,0.0,0.0,-0.9503,-1.0486,-1.1626,-1.2326,-1.2977,-1.4095,-1.496,-1.5732,-1.6582,-1.6786,-1.6814,-1.6523,-1.6092,-1.5449,-1.4391,-1.4272,0.0,0.0,-1.3202,-1.3419,-1.3288,-1.4506,-1.5585,0.0,-1.7029,-1.8508,-2.0089,-2.0171,-2.0352,0.0,-2.1079,0.0,-2.0625,-2.004,0.0,-2.1394,-2.1553,-2.1924,-2.26,-2.3862,-2.4559,-2.4754,-2.4416,-2.4326,-2.4515,-2.4843,-2.56,-2.6812,-2.7557,-2.8554,-2.9792,-2.9792,-2.9541,-2.9114,-2.9328,-2.9009,-2.835,-2.8132,-2.7965,-2.7765,-2.7449,-2.7403,-2.7656,-2.8417,-2.9156,-2.9898,0.0,0.0,0.0,0.0,0.0,0.0,0.0,-1.1059,-1.1044,-1.1021,-1.0712,-1.0403,-1.0099,-0.8732,-0.7103,0.0,0.0,0.0,0.0,0.0,0.0,0.0,0.0,0.0,0.0,0.0,0.0,0.5906,0.5576,0.0,0.0,0.0,0.0,0.0,0.0,-0.3709,0.0,0.0,0.0,0.0,0.0,0.0,0.0,0.0,0.0,0.0,0.0,0.0,0.0,0.0,0.0,-0.9876,-1.0741,-1.1989,-1.2946,-1.2588,0.0,0.0,-1.514,-1.6034,-1.7043,-1.6368,-1.5576,-1.4699,-1.3747,0.0,0.0,-1.235,-1.3046,-1.3588,-1.2868,-1.4263,-1.5301,0.0,0.0,-1.7129,-1.896,-1.9257,-1.9703,-2.106,0.0,0.0,-2.0311,-1.9696,-1.9302,-1.9095,-1.9979,-2.1563,-2.3826,-2.4441,-2.4705,-2.4496,-2.4535,-2.4515,-2.4515,-2.4334,-2.5105,-2.6812,-2.7069,-2.8131,-2.9792,-2.9792,-2.9767,-2.9716,-2.9935,-2.9403,-2.8413,-2.8567,-2.8151,-2.7346,-2.7294,-2.7789,-2.8468,-2.9142,-2.9827,-3.0524,0.0,0.0,0.0,0.0,0.0,0.0,-1.1779,-1.1587,-1.1645,-1.2011,-1.2089,-1.2033,-1.1898,-1.0864,-0.9363,0.0,0.0,0.0,0.0,0.0,0.0,0.0,0.0,0.0,0.0,0.0,0.0,-0.1529,-0.1772,0.0,0.0,0.0,0.0,0.0,0.0,-0.5561,-0.5213,0.0,0.0,0.0,0.0,0.0,0.0,0.0,0.0,0.0,0.0,0.0,0.0,0.0,0.0,0.0,-0.9874,-1.0917,0.0,0.0,-1.4303,-1.5617,-1.559,-1.6544,-1.7355,-1.6075,-1.544,-1.4844,-1.3662,0.0,-1.3701,-1.3436,-1.386,-1.4358,-1.4497,-1.4588,-1.4678,0.0,0.0,0.0,-1.7921,-1.8039,-1.8604,-2.039,-2.0164,0.0,0.0,0.0,-1.8874,-1.9434,-2.0146,-2.136,-2.3213,-2.3393,-2.3413,-2.3487,-2.3476,-2.3703,-2.4149,-2.406,-2.4756,-2.6235,-2.6812,-2.7799,-2.904,-2.9689,-2.9744,-2.9492,-2.9781,-2.9494,-2.8762,-2.8601,-2.8326,-2.7952,-2.7533,-2.759,-2.8026,-2.9079,-2.969,-3.0129,0.0,0.0,0.0,0.0,0.0,-1.2948,-1.2081,-1.1944,-1.2035,-1.245,-1.2792,-1.2914,-1.2782,-1.2247,-1.1089,-0.9055,0.0,0.0,0.0,0.0,0.0,0.0,0.0,0.0,0.0,0.0,-0.4344,-0.5641,-0.5759,-0.6187,0.0,0.0,-0.7153,-0.6957,0.0,0.0,0.0,0.0,0.0,0.0,0.0,0.0,0.0,0.0,0.0,0.0,0.0,0.0,0.0,0.0,0.0,0.0,0.0,0.0,0.0,0.0,-1.3994,-1.5123,-1.547,-1.6468,-1.7096,-1.5947,-1.5335,-1.4648,0.0,0.0,-1.3552,-1.3485,-1.4237,-1.4922,-1.5084,-1.467,-1.4385,0.0,0.0,-1.4231,-1.6559,-1.6847,-1.762,-1.9744,0.0,-1.9269,-1.9594,-1.894,-1.8783,-1.9756,-2.0285,-2.1222,-2.2665,-2.2442,-2.2493,-2.292,-2.293,-2.3166,-2.367,-2.396,-2.4668,-2.5788,-2.6907,-2.7879,-2.8779,-2.9578,-2.9681,-2.9274,-2.949,-2.9261,0.0,-2.8486,-2.8281,-2.8085,-2.7693,-2.7709,-2.8208,-2.9142,-2.9766,-3.0326,0.0,0.0,0.0,0.0,0.0,0.0,0.0,-1.2015,-1.208,-1.1737,-1.211,-1.2525,-1.2755,-1.2702,-1.2218,-1.1316,0.0,0.0,0.0,0.0,0.0,0.0,0.0,0.0,0.0,0.0,-0.3951,-0.4824,-0.4882,-0.5447,-0.6448,-0.6734,-0.6948,-0.7011,0.0,0.0,0.0,0.0,0.0,0.0,0.0,0.0,0.0,0.0,0.0,0.0,0.0,0.0,0.0,0.0,0.0,0.0,0.0,0.0,0.0,0.0,-1.2529,-1.3951,-1.4307,-1.5212,-1.5989,-1.5732,-1.4926,-1.3988,0.0,-1.2759,-1.2542,-1.1927,-1.3608,-1.4818,-1.4022,-1.4464,-1.4558,-1.3664,0.0,0.0,-1.5016,-1.5764,-1.6945,0.0,0.0,-1.8974,-1.9279,-1.8897,-1.8899,-1.953,-2.0054,-2.0974,-2.2443,-2.2066,-2.2242,-2.3163,-2.3184,-2.3194,-2.3194,-2.403,-2.4897,-2.5788,-2.738,-2.8585,-2.9394,-2.9479,-2.9535,-2.9497,-2.9189,-2.8679,0.0,-2.8317,-2.8046,-2.7536,-2.7523,-2.8338,-2.9504,-2.9504,-3.0329,-3.1539,0.0,0.0,0.0,0.0,0.0,0.0,0.0,-1.2523,-1.2415,-1.211,-1.2707,-1.3141,-1.3058,-1.3026,-1.2896,-1.2405,0.0,0.0,0.0,0.0,0.0,0.0,0.0,0.0,0.0,0.0,-0.5303,-0.6248,-0.6005,-0.6226,-0.693,-0.7451,-0.7611,-0.7488,-0.7283,0.0,0.0,0.0,0.0,0.0,0.0,0.0,0.0,0.0,0.0,0.0,0.0,0.0,0.0,0.0,0.0,0.0,0.0,0.0,0.0,0.0,0.0,0.0,-1.3646,-1.5029,-1.6177,-1.5368,-1.4591,-1.3867,-1.3236,-1.2982,-1.3011,-1.3274,-1.4521,-1.5654,-1.5658,-1.5659,-1.5308,-1.4283,-1.3225,0.0,0.0,0.0,0.0,-1.8398,-1.8803,-1.8665,0.0,-1.8281,-1.8533,-1.9213,-1.9976,-2.0923,-2.1989,-2.218,-2.2418,-2.2708,-2.2408,-2.2397,-2.2708,-2.324,-2.387,-2.4432,-2.6205,-2.7138,-2.7456,-2.867,-2.8898,-2.8569,-2.8612,-2.8278,-2.7663,-2.773,-2.7693,-2.7523,-2.7523,-2.8091,-2.9093,-2.9518,-3.0315,-3.1188,0.0,0.0,0.0,0.0,0.0,0.0,0.0,-1.2995,-1.2781,-1.2374,-1.2668,-1.2943,-1.2997,-1.2916,-1.2849,-1.2857,0.0,0.0,0.0,0.0,0.0,0.0,0.0,0.0,0.0,-0.5519,-0.5635,-0.647,-0.6231,-0.6536,-0.7246,-0.7702,-0.7947,-0.7838,-0.7686,0.0,0.0,0.0,0.0,0.0,0.0,0.0,-0.718,0.0,0.0,0.0,0.0,0.0,0.0,0.0,0.0,0.0,0.0,0.0,0.0,0.0,-0.9942,0.0,0.0,-1.3913,-1.5111,-1.4592,-1.3884,0.0,-1.3238,-1.2934,-1.2968,-1.3822,-1.4784,-1.5736,-1.6178,-1.5693,-1.4989,-1.4223,-1.3259,-1.286,0.0,0.0,0.0,-1.7851,0.0,0.0,0.0,-1.792,-1.8414,-1.9239,-1.9985,-2.0866,-2.1772,-2.2087,-2.2309,-2.2464,-2.2014,-2.1834,-2.2126,-2.2735,-2.3275,-2.3753,-2.5657,-2.6683,-2.6938,-2.816,-2.8599,-2.8222,-2.7861,-2.7536,0.0,-2.6974,-2.6948,-2.7064,-2.7245,-2.7791,-2.8661,-2.9297,-2.9959,-3.0615,0.0,0.0,0.0,0.0,0.0,0.0,0.0,0.0,0.0,-1.2369,-1.2165,-1.2244,-1.2719,-1.242,-1.234,-1.2934,0.0,0.0,0.0,0.0,0.0,0.0,0.0,0.0,0.0,-0.5158,-0.5222,-0.5816,-0.5873,-0.6251,-0.7103,-0.748,-0.7787,-0.8016,-0.8212,0.0,0.0,0.0,0.0,0.0,0.0,0.0,0.0,0.0,0.0,0.0,0.0,0.0,0.0,0.0,0.0,0.0,0.0,0.0,0.0,0.0,0.0,0.0,0.0,-1.2204,0.0,0.0,0.0,0.0,-1.299,-1.2691,0.0,-1.3642,-1.4482,-1.5133,-1.5688,-1.475,-1.3812,-1.352,-1.2875,-1.2609,0.0,-1.4826,0.0,0.0,-1.7725,-1.7771,-1.7334,-1.7792,-1.8486,-1.9495,-2.0045,-2.0784,-2.1772,-2.1838,-2.1991,-2.2402,-2.185,-2.1606,-2.1638,-2.2435,-2.31,-2.3621,-2.5697,-2.6941,-2.7483,-2.8017,-2.8255,-2.8203,-2.7157,-2.6673,-2.6633,-2.6096,-2.606,-2.6356,-2.6742,-2.7502,-2.8382,-2.8832,-2.9411,-3.0046,0.0,0.0,0.0,0.0,0.0,0.0,0.0,0.0,0.0,0.0,-1.1853,-1.2101,-1.2079,-1.2166,-1.2343,0.0,0.0,0.0,0.0,0.0,0.0,0.0,0.0,0.0,0.0,-0.5661,-0.5579,-0.5889,-0.5613,-0.5628,-0.6012,-0.6405,-0.6795,-0.6945,-0.7134,0.0,0.0,0.0,0.0,0.0,0.0,0.0,0.0,0.0,0.0,0.0,-0.7058,-0.7235,0.0,0.0,0.0,0.0,0.0,0.0,0.0,0.0,-0.8483,-0.9383,-0.9851,0.0,-1.2667,-1.3094,-1.2934,-1.2748,0.0,-1.2597,-1.24,0.0,0.0,-1.4659,-1.5334,-1.4949,-1.4183,-1.3318,-1.2838,-1.2711,-1.3193,-1.5513,0.0,-1.7862,-1.786,-1.7767,-1.7366,-1.7539,-1.8216,-1.9478,-2.0129,-2.0866,-2.1772,-2.2139,-2.2324,-2.2413,-2.1811,-2.1696,-2.2064,-2.2579,-2.3052,-2.3663,-2.5298,-2.64,-2.6873,-2.6994,-2.7079,-2.7092,-2.6575,-2.6383,-2.637,-2.647,-2.6539,-2.66,-2.6708,-2.7457,-2.8566,-2.8679,-2.9357,-3.0247,0.0,0.0,0.0,0.0,0.0,0.0,0.0,0.0,0.0,0.0,0.0,0.0,0.0,0.0,0.0,0.0,0.0,0.0,0.0,0.0,0.0,0.0,0.0,0.0,-0.6794,-0.6565,-0.6288,-0.6051,-0.5832,-0.5832,-0.6288,-0.662,-0.6942,-0.7168,-0.725,0.0,0.0,0.0,0.0,0.0,-0.7016,0.0,0.0,0.0,0.0,0.0,-0.6864,-0.7059,0.0,-0.7044,-0.7159,-0.7143,0.0,0.0,0.0,0.0,-0.8078,-0.8864,-0.9148,-1.0356,-1.1652,-1.2154,-1.1947,-1.1752,-1.2171,0.0,0.0,0.0,0.0,-1.4892,-1.5609,-1.5146,-1.4508,-1.3957,-1.3585,-1.3693,0.0,0.0,-1.7055,-1.7355,-1.74,-1.7322,-1.7058,-1.7331,-1.8057,-1.93,-1.985,-2.0581,-2.1453,-2.1725,-2.1878,-2.2005,-2.1474,-2.1461,-2.2165,-2.208,-2.2433,-2.3273,-2.4274,-2.5224,-2.594,-2.6348,-2.6535,-2.6496,-2.6209,-2.6136,-2.6082,-2.5662,-2.5561,-2.5693,-2.5772,-2.6304,-2.7076,-2.7439,-2.7976,-2.8519,0.0,0.0,0.0,0.0,0.0,0.0,0.0,0.0,0.0,0.0,0.0,0.0,0.0,0.0,0.0,0.0,0.0,0.0,0.0,0.0,0.0,0.0,0.0,-0.8978,-0.7596,-0.7432,-0.7102,-0.644,-0.6244,-0.6329,-0.6936,-0.7152,-0.7419,-0.7714,-0.7627,-0.7631,0.0,0.0,-0.7381,-0.7993,-0.6914,0.0,0.0,0.0,0.0,0.0,0.0,0.0,0.0,-0.6609,-0.652,-0.6428,-0.6074,0.0,0.0,0.0,0.0,0.0,-0.8572,-0.9348,-1.026,-1.0871,-1.0779,-1.063,0.0,0.0,0.0,0.0,0.0,0.0,0.0,-1.5082,0.0,0.0,0.0,0.0,-1.6195,-1.6299,-1.6377,-1.6676,-1.6815,-1.6845,-1.6557,-1.7033,-1.7771,-1.8911,-1.9335,-2.0017,-2.0923,-2.0968,-2.1197,-2.1603,-2.109,-2.1239,-2.207,-2.1578,-2.1748,-2.271,-2.3335,-2.4078,-2.4976,-2.57,-2.5988,-2.5928,-2.5679,0.0,-2.5456,-2.4504,-2.4257,-2.4468,-2.4633,-2.4922,-2.5287,-2.5955,-2.6304,-2.638,0.0,0.0,0.0,0.0,0.0,0.0,0.0,0.0,0.0,0.0,0.0,0.0,0.0,0.0,0.0,0.0,0.0,0.0,0.0,0.0,0.0,0.0,-0.9652,-0.9117,-0.8341,-0.7522,-0.7188,-0.7267,-0.6423,-0.6175,-0.6443,-0.6544,-0.678,-0.6967,-0.7058,-0.7005,-0.6785,-0.7035,-0.7109,-0.7079,-0.7098,0.0,0.0,0.0,0.0,0.0,0.0,0.0,0.0,-0.7312,-0.7136,-0.6962,-0.6874,0.0,0.0,0.0,0.0,0.0,-0.7951,-0.8184,-0.8584,-1.0153,-1.0843,-1.1061,-1.1187,0.0,0.0,0.0,0.0,0.0,0.0,-1.3561,-1.3171,0.0,0.0,-1.4855,0.0,0.0,-1.6377,-1.6676,-1.6628,-1.6605,-1.6535,-1.6639,-1.7195,-1.8221,-1.8585,-1.9249,-2.0287,-2.0441,-2.086,-2.1592,-2.109,-2.1141,-2.1909,-2.1827,-2.2108,-2.2774,-2.3689,-2.4279,-2.4648,-2.4748,-2.4607,-2.4336,0.0,-2.3967,-2.3939,-2.4072,-2.4091,-2.4193,-2.4519,-2.4854,-2.5239,-2.5663,-2.6062,-2.638,0.0,0.0,0.0,0.0,0.0,0.0,0.0,0.0,0.0,0.0,0.0,0.0,0.0,0.0,0.0,0.0,0.0,0.0,0.0,0.0,0.0,-0.9804,-0.9805,-0.9429,-0.8556,-0.8044,-0.7617,-0.7275,-0.6345,-0.6178,-0.6595,-0.6483,-0.6514,-0.6599,-0.6544,-0.6521,-0.65,-0.6499,-0.655,-0.6673,0.0,0.0,0.0,0.0,0.0,0.0,0.0,0.0,0.0,0.0,-0.7139,-0.6877,-0.6786,0.0,0.0,0.0,0.0,0.0,-0.725,-0.7421,-0.7805,-0.8779,-0.9509,-1.0031,-1.0027,0.0,0.0,0.0,0.0,0.0,0.0,0.0,-1.3684,-1.4918,0.0,-1.5622,-1.6115,-1.6216,-1.6334,-1.6436,-1.6292,-1.6237,-1.6271,-1.6346,-1.6766,-1.7576,-1.8244,-1.9031,-1.9855,-2.0165,-2.0626,-2.1177,-2.083,-2.0971,-2.1514,-2.1238,-2.1607,-2.2674,-2.2824,-2.3336,-2.4071,-2.3912,-2.3784,-2.3794,0.0,-2.3863,-2.3821,-2.3638,-2.3695,-2.3863,-2.3887,-2.4114,-2.4462,-2.4834,-2.5068,-2.5272,0.0,0.0,0.0,0.0,0.0,0.0,0.0,0.0,0.0,0.0,0.0,0.0,0.0,0.0,0.0,0.0,0.0,0.0,0.0,0.0,-0.9854,-0.9483,-0.9772,-0.954,-0.8899,-0.8591,-0.813,-0.7348,-0.6334,-0.5996,-0.6392,-0.6151,-0.6077,-0.6163,-0.6066,-0.618,-0.6287,-0.6091,-0.6138,-0.6329,0.0,0.0,0.0,0.0,0.0,0.0,0.0,0.0,0.0,0.0,0.0,0.0,0.0,0.0,0.0,-0.6195,-0.6323,-0.65,-0.6536,-0.6706,-0.7021,-0.759,0.0,-0.8818,-0.9092,0.0,0.0,0.0,0.0,0.0,0.0,-1.4124,0.0,-1.5684,-1.6019,-1.6112,-1.6054,-1.6015,-1.6115,-1.6303,-1.5972,-1.5879,-1.6052,-1.6079,-1.635,-1.6968,-1.799,-1.8822,-1.9337,-1.99,-2.0407,-2.0731,-2.0531,-2.0595,-2.0986,-2.0554,-2.0897,-2.2104,-2.1832,-2.2192,-2.3041,-2.3082,-2.3122,-2.3266,-2.3518,-2.3681,-2.3639,-2.3083,-2.3126,-2.3447,-2.3333,-2.3538,-2.3967,-2.4219,-2.4302,-2.4302,0.0,0.0,0.0,0.0,0.0,0.0,0.0,0.0,0.0,0.0,0.0,0.0,0.0,0.0,0.0,0.0,0.0,0.0,0.0,0.0,-0.9513,-0.9395,-0.9091,-0.9182,-0.9868,-0.8893,-0.8288,-0.8207,-0.6521,-0.5524,-0.5048,-0.5056,-0.5191,-0.546,-0.5625,-0.5776,-0.5979,-0.615,-0.6221,-0.615,-0.6318,0.0,0.0,0.0,0.0,0.0,0.0,0.0,0.0,0.0,0.0,0.0,0.0,0.0,-0.5471,-0.5463,-0.5285,-0.522,-0.578,-0.5732,-0.5795,-0.6777,-0.751,0.0,-0.9222,-1.0835,0.0,0.0,0.0,0.0,0.0,-1.4558,-1.5398,-1.5778,-1.5845,-1.6048,-1.6607,-1.6156,-1.5892,-1.6444,-1.5625,-1.53,-1.5944,-1.581,-1.5936,-1.631,-1.7734,-1.8521,-1.8592,-1.9536,-2.0292,-2.0627,-2.0198,-2.0138,-2.0458,-2.0084,-2.0203,-2.0729,-2.1198,-2.1395,-2.1288,-2.2299,-2.2582,-2.2311,-2.2325,-2.2325,-2.2311,-2.2269,-2.2473,-2.2812,-2.3142,-2.3696,-2.4261,-2.4302,-2.4302,-2.4302,0.0,0.0,0.0,0.0,0.0,0.0,0.0,0.0,0.0,0.0,0.0,0.0,0.0,0.0,0.0,0.0,0.0,0.0,0.0,0.0,-0.9237,-0.919,-0.9064,-0.9038,-0.9095,-0.8549,-0.8284,-0.8284,-0.6858,-0.5881,-0.5305,-0.5148,-0.5144,-0.5301,-0.5322,-0.5443,-0.5546,-0.5755,-0.5887,-0.5894,-0.6836,-0.6771,0.0,0.0,0.0,0.0,0.0,0.0,0.0,0.0,-0.7101,-0.6523,0.0,-0.5899,-0.5371,-0.5371,-0.5191,-0.5109,-0.5605,-0.5639,-0.5681,-0.6319,0.0,0.0,0.0,0.0,0.0,0.0,0.0,0.0,0.0,0.0,-1.5585,-1.5331,-1.5537,-1.5724,-1.5848,-1.5819,-1.5937,-1.6116,-1.5701,-1.5516,-1.6009,-1.5647,-1.5682,-1.6416,-1.7535,-1.834,-1.8682,-1.9801,-2.0362,-2.0176,-2.0183,-2.019,-2.0072,-1.9622,-1.9735,-2.0447,-2.0822,-2.1217,-2.1615,-2.1975,-2.2172,-2.2184,-2.2184,-2.2184,-2.2231,-2.2434,-2.2478,-2.2527,-2.308,-2.3209,-2.3102,-2.3677,-2.3871,-2.3871,0.0,0.0,0.0,0.0,0.0,0.0,0.0,0.0,0.0,0.0,0.0,0.0,0.0,0.0,0.0,0.0,0.0,0.0,0.0,-0.9011,-0.9035,-0.9096,-0.9043,-0.8897,-0.8653,-0.8414,-0.8292,-0.8292,-0.7208,-0.6383,-0.5782,-0.5589,-0.5613,-0.5781,-0.5736,-0.5874,-0.6072,-0.6143,-0.6256,-0.6552,-0.7619,-0.7537,0.0,0.0,0.0,0.0,0.0,0.0,0.0,0.0,-0.8053,-0.7489,0.0,0.0,0.0,0.0,-0.566,-0.5776,-0.5697,-0.5847,-0.6007,0.0,0.0,0.0,0.0,0.0,0.0,0.0,-1.0813,0.0,0.0,0.0,0.0,-1.489,-1.5251,-1.5554,-1.5438,-1.5676,-1.5841,-1.6002,-1.5636,-1.5528,-1.5896,-1.5569,-1.57,-1.6664,-1.7687,-1.8499,-1.909,-2.0018,-2.0443,-2.0143,-2.003,-1.9876,-1.9715,-1.9259,-1.9376,-2.0085,-2.0534,-2.1121,-2.177,-2.1842,-2.2044,-2.2184,-2.2184,-2.2184,-2.2203,-2.2235,-2.2134,-2.2076,-2.2781,-2.2794,-2.2477,-2.3117,-2.3349,-2.3365,0.0,0.0,0.0,0.0,0.0,0.0,0.0,0.0,0.0,0.0,0.0,0.0,0.0,0.0,0.0,0.0,0.0,0.0,0.0,-0.882,-0.8901,-0.9084,-0.8917,-0.882,-0.882,-0.8471,-0.8292,-0.8288,-0.7435,-0.6692,-0.6197,-0.6306,-0.6609,-0.6877,-0.7024,-0.726,-0.757,-0.7336,-0.7636,-0.8254,-0.8508,-0.8652,-0.8725,0.0,0.0,0.0,0.0,0.0,0.0,0.0,-0.848,-0.8368,0.0,0.0,0.0,-0.6435,-0.6796,-0.7177,-0.5998,-0.6176,-0.6658,0.0,0.0,0.0,0.0,0.0,0.0,0.0,0.0,-1.4174,-1.4167,-1.4348,0.0,-1.4516,-1.4947,-1.5404,-1.5658,-1.5566,-1.5597,-1.5944,-1.5389,-1.5149,-1.5634,-1.5571,-1.5982,-1.701,-1.8162,-1.909,-1.9727,-2.0154,-2.0461,-2.056,-1.9622,-1.9156,-1.928,-1.8951,-1.9052,-1.9604,-2.0258,-2.0858,-2.1423,-2.1949,-2.2184,-2.2184,-2.2184,-2.2184,-2.2175,-2.1541,-2.1298,-2.1366,-2.2248,-2.258,-2.2602,-2.2718,-2.2776,-2.2776,0.0,0.0,0.0,0.0,0.0,0.0,0.0,0.0,0.0,0.0,0.0,0.0,0.0,0.0,0.0,0.0,0.0,0.0,0.0,-0.8755,-0.8792,-0.8727,-0.8787,-0.8767,-0.8645,-0.854,-0.8357,-0.8097,-0.7379,-0.7049,-0.7007,-0.6762,-0.6661,-0.6575,-0.6802,-0.6833,-0.678,-0.7015,-0.7263,-0.7493,-0.8475,-0.8366,-0.7913,0.0,0.0,0.0,0.0,0.0,0.0,0.0,0.0,0.0,-0.9061,0.0,0.0,-0.7602,-0.7058,-0.6521,-0.661,-0.6831,0.0,-0.6952,0.0,0.0,0.0,0.0,0.0,0.0,-1.2011,-1.3254,-1.3589,-1.4287,0.0,-1.4282,-1.4802,-1.5179,-1.5042,-1.5006,-1.5182,-1.5567,-1.5281,-1.5276,-1.5848,-1.5931,-1.6272,-1.7088,-1.8162,-1.9034,-1.9649,-2.0216,-2.041,-2.0133,-1.9517,-1.9171,-1.897,-1.8881,-1.9303,-2.0308,-2.051,-2.0858,-2.1423,-2.2044,-2.2324,-2.2324,-2.2324,-2.2098,-2.1662,-2.1075,-2.0971,-2.1212,-2.1817,-2.1749,-2.1421,-2.2067,-2.2311,-2.2311,0.0,0.0,0.0,0.0,0.0,0.0,0.0,0.0,0.0,0.0,0.0,0.0,0.0,0.0,0.0,0.0,0.0,0.0,0.0,0.0,-0.8674,-0.8572,-0.8731,-0.8808,-0.8779,-0.8706,-0.8593,-0.8446,-0.772,-0.7506,-0.7852,-0.7566,-0.7444,-0.7363,-0.7543,-0.7502,-0.7272,-0.7478,-0.7681,-0.7959,-0.8822,-0.8865,-0.8535,0.0,0.0,0.0,0.0,0.0,0.0,0.0,0.0,0.0,0.0,0.0,0.0,-0.8648,-0.8306,-0.7985,-0.7956,-0.8193,0.0,-0.8255,-0.8081,-0.7894,-0.7898,0.0,0.0,0.0,0.0,-1.3073,-1.3455,-1.419,0.0,-1.4304,-1.4732,-1.5078,-1.4925,-1.505,-1.5238,-1.5506,-1.5495,-1.5626,-1.5995,-1.6192,-1.6612,-1.7432,-1.8432,-1.9309,-1.9987,-2.0222,-2.031,-2.0077,-1.9418,-1.9053,-1.8905,-1.8893,-1.95,-2.066,-2.066,-2.1104,-2.1902,-2.2231,-2.2275,-2.2107,-2.2363,-2.2055,-2.1369,-2.1144,-2.0963,-2.089,-2.1342,-2.1258,-2.0973,-2.1568,-2.1794,-2.1794,0.0,0.0,0.0,0.0,0.0,0.0,0.0,0.0,0.0,0.0,0.0,0.0,0.0,0.0,0.0,0.0,0.0,0.0,0.0,0.0,-0.8568,-0.8568,-0.8833,-0.9013,-0.9092,-0.9021,-0.9017,-0.9096,-0.8308,-0.8151,-0.8597,-0.8571,-0.8627,-0.8775,-0.8792,-0.8694,-0.8507,-0.8337,-0.8526,-0.8994,-0.9363,-0.9678,-0.9887,-1.0178,0.0,0.0,0.0,0.0,0.0,0.0,0.0,0.0,-1.0814,-1.0651,-1.0487,-0.9593,-1.0088,-1.0666,-0.9473,0.0,0.0,-0.9539,-0.9233,0.0,-0.8246,-0.892,-0.9758,-0.9946,0.0,-1.3392,-1.3652,-1.4068,-1.4398,-1.4398,-1.4803,-1.5105,-1.5204,-1.5355,-1.5561,-1.5675,-1.588,-1.602,-1.6096,-1.6403,-1.7019,-1.7833,-1.87,-1.9562,-2.0431,-2.0182,-2.01,-2.0262,-1.9333,-1.8893,-1.8987,-1.8987,-1.9592,-2.0746,-2.0743,-2.1349,-2.2469,-2.2377,-2.2079,-2.1655,-2.2271,-2.2062,-2.1333,-2.1625,-2.1279,-2.0571,-2.1053,-2.1183,-2.1119,-2.1262,-2.1309,-2.1309,0.0,0.0,0.0,0.0,0.0,0.0,0.0,0.0,0.0,0.0,0.0,0.0,0.0,0.0,0.0,0.0,0.0,0.0,0.0,0.0,-0.8568,-0.8568,-0.9668,-0.9872,-0.9096,-0.9872,-0.9776,-0.8804,-0.852,-0.8597,-0.8767,0.0,0.0,-0.841,0.0,-0.8438,-0.813,-0.8089,-0.8242,-0.8479,-0.8707,-0.8861,-0.8932,-0.9464,-0.986,0.0,0.0,0.0,0.0,0.0,0.0,0.0,-1.1176,-1.103,-1.0873,-1.0876,-1.0357,-0.9813,-1.0035,-1.0018,0.0,0.0,-1.0428,-1.0107,-0.8533,-0.9178,-1.0159,-1.0317,-1.1358,-1.2619,-1.3561,-1.4068,-1.4398,-1.4398,-1.486,-1.5161,-1.5167,-1.5188,-1.5332,-1.57,-1.5646,-1.5803,-1.6211,-1.6621,-1.6968,-1.7364,-1.8172,-1.9034,-1.977,-1.961,-1.9726,-2.0262,-1.9431,-1.8999,-1.8987,-1.9105,-1.9512,-2.0194,-2.0188,-2.0583,-2.138,-2.1768,-2.1858,-2.1772,-2.1902,-2.2004,-2.2049,-2.2013,-2.1784,-2.1481,-2.1953,-2.1763,-2.1246,-2.1294,-2.1309,-2.1309,0.0,0.0,0.0,0.0,0.0,0.0,0.0,0.0,0.0,0.0,0.0,0.0,0.0,0.0,0.0,0.0,0.0,0.0,0.0,0.0,0.0,-1.023,-1.1084,-1.0983,-0.9969,-1.0617,-1.0189,-0.8901,-0.8818,0.0,0.0,0.0,0.0,-0.8249,0.0,-0.8095,-0.7694,-0.7776,-0.7815,-0.7934,-0.8281,-0.8384,-0.848,-0.8928,-0.9345,-0.9694,-1.012,0.0,0.0,0.0,0.0,0.0,0.0,0.0,-1.1133,-1.1155,-1.0819,-1.0465,-1.073,0.0,0.0,-1.1564,0.0,-1.0662,-0.9925,-0.9915,-1.0313,-1.1035,-1.1754,-1.2528,-1.3808,-1.4314,-1.4601,-1.4778,-1.5109,-1.5367,-1.5428,-1.5463,-1.5618,-1.5872,-1.5962,-1.6202,-1.6551,-1.683,-1.7176,-1.7442,-1.8172,-1.8967,-1.9835,-1.9549,-1.9737,-2.0413,-1.9552,-1.9105,-1.9105,-1.9223,-1.9708,-2.0584,-2.0576,-2.0899,-2.151,-2.1758,-2.2062,-2.2307,-2.2307,-2.2496,-2.2727,-2.2659,-2.258,-2.254,-2.2457,-2.2167,-2.1795,-2.1438,-2.1309,-2.1309,0.0,0.0,0.0,0.0,0.0,0.0,0.0,0.0,0.0,0.0,0.0,0.0,0.0,0.0,0.0,0.0,0.0,0.0,0.0,0.0,0.0,0.0,-1.2428,-1.2183,-1.1153,-1.1515,-1.0938,-0.9558,0.0,0.0,0.0,0.0,0.0,-0.8247,0.0,-0.7819,-0.7499,-0.7517,-0.7502,-0.7514,-0.7959,-0.8173,-0.8201,-0.8476,-0.8915,-0.9349,-0.9689,-1.0115,-1.0636,-1.1084,0.0,0.0,0.0,0.0,-1.1472,-1.122,-1.1212,-1.13,-1.1251,0.0,-1.227,-1.2718,-1.1893,0.0,-1.141,-1.087,-1.0702,-1.1837,-1.2272,-1.2869,-1.4139,-1.4566,-1.4899,-1.5205,-1.5393,-1.5599,-1.5781,-1.5961,-1.6067,-1.6105,-1.6403,-1.6751,-1.6908,-1.7107,-1.7373,-1.7706,-1.8307,-1.91,-2.0031,-1.9622,-1.9749,-2.061,-1.9728,-1.9223,-1.9223,-1.9368,-1.9952,-2.1042,-2.1286,-2.1602,-2.1989,-2.2106,-2.2381,-2.2743,-2.2844,-2.3081,-2.3385,-2.3385,-2.3503,-2.361,-2.2863,-2.2507,-2.2313,-2.1584,-2.1309,-2.134,0.0,0.0,0.0,0.0,0.0,0.0,0.0,0.0,0.0,0.0,0.0,0.0,0.0,0.0,0.0,0.0,0.0,0.0,-1.2534,0.0,0.0,-1.2,-1.3078,-1.3122,-1.2099,-1.2963,-1.2752,-1.1206,0.0,0.0,0.0,0.0,0.0,-0.8328,0.0,0.0,-0.7824,-0.745,-0.7465,-0.7573,-0.7878,-0.8072,-0.8201,-0.8476,-0.8915,-0.9349,-0.9345,-0.9946,-1.0636,-1.0636,-1.1413,0.0,0.0,0.0,-1.2231,-1.1974,-1.1511,-1.1079,0.0,0.0,-1.2461,0.0,-1.2821,-1.2674,0.0,0.0,-1.2095,0.0,-1.2504,-1.3021,-1.4139,-1.4741,-1.5151,-1.5591,-1.5594,-1.5798,-1.6295,-1.6186,-1.6122,-1.6281,-1.6621,-1.6908,-1.6908,-1.7373,-1.7638,-1.7706,-1.793,-1.8664,-2.0042,-1.9302,-1.9431,-2.0713,-1.989,-1.9368,-1.9368,-1.9512,-1.9862,-2.051,-2.1589,-2.2045,-2.2019,-2.2511,-2.2511,-2.2149,-2.2656,-2.3406,-2.4164,-2.4164,-2.4226,-2.4288,-2.3643,-2.2944,-2.2313,-2.1584,-2.1309,-2.134,0.0,0.0,0.0,0.0,0.0,0.0,0.0,0.0,0.0,0.0,0.0,0.0,0.0,0.0,0.0,-1.4088,-1.3568,-1.3222,-1.3222,-1.3213,-1.3322,-1.3438,-1.4214,-1.4111,-1.2813,-1.3442,-1.3043,0.0,0.0,0.0,0.0,-1.0099,-0.9426,0.0,0.0,0.0,0.0,-0.7592,-0.7588,-0.757,-0.7835,-0.8109,0.0,0.0,-0.934,-0.9937,-1.0463,-1.1149,-1.1826,-1.2095,-1.2528,-1.2966,-1.2966,0.0,0.0,0.0,-1.1699,0.0,-1.1541,-1.1843,-1.2303,0.0,-1.3224,-1.3191,-1.3097,0.0,-1.313,-1.3294,-1.3789,-1.4378,-1.4894,-1.5235,-1.5614,-1.6031,-1.6105,-1.6145,-1.6401,-1.6484,-1.6551,-1.663,-1.7038,-1.7373,-1.7373,-1.7784,-1.8056,-1.8056,-1.8586,-1.9194,-1.9882,-1.9636,-1.9773,-2.0433,-1.9826,-1.9512,-1.9512,-1.9656,-2.0156,-2.0993,-2.2077,-2.2563,-2.2527,-2.2772,-2.2743,-2.2541,-2.3069,-2.3653,-2.4302,-2.4533,-2.4839,-2.5049,-2.4321,-2.3851,-2.343,-2.2329,-2.1924,-2.1923,0.0,0.0,0.0,0.0,0.0,0.0,0.0,0.0,0.0,0.0,0.0,0.0,0.0,0.0,0.0,0.0,-1.3886,-1.3626,-1.3626,-1.4156,-1.4442,-1.4516,-1.501,-1.4676,-1.3461,-1.3907,0.0,0.0,0.0,0.0,-1.2287,-1.1298,-1.0963,0.0,-0.9366,-0.825,0.0,0.0,0.0,0.0,0.0,0.0,0.0,0.0,0.0,0.0,-1.1647,-1.2325,-1.2863,-1.323,-1.3449,-1.3646,-1.3808,-1.3762,0.0,0.0,0.0,0.0,0.0,0.0,-1.254,-1.3194,-1.3416,-1.3536,0.0,0.0,-1.399,0.0,-1.4992,-1.5643,-1.5884,-1.5974,-1.6223,-1.6804,-1.6784,-1.6687,-1.6786,-1.6958,-1.7038,-1.7185,-1.7588,-1.7842,-1.7842,-1.8124,-1.8337,-1.8337,-1.8921,-1.949,-1.9761,-1.9824,-1.9968,-2.0244,-1.985,-1.9656,-1.9656,-2.0003,-2.0584,-2.1417,-2.2402,-2.2888,-2.2888,-2.2888,-2.2888,-2.2947,-2.3392,-2.3867,-2.4343,-2.4719,-2.5169,-2.5551,-2.479,-2.4482,-2.4337,-2.3122,-2.2735,-2.2769,0.0,0.0,0.0,0.0,0.0,0.0,0.0,0.0,0.0,0.0,0.0,0.0,-1.4496,-1.4496,-1.4496,-1.4496,-1.3904,-1.3585,-1.3585,-1.3948,-1.4229,-1.4509,-1.4816,0.0,-1.4435,-1.4734,0.0,0.0,0.0,0.0,-1.4361,-1.3291,-1.2969,-1.3121,-1.0022,-0.8498,-0.8454,0.0,0.0,0.0,0.0,0.0,0.0,0.0,0.0,0.0,0.0,-1.2993,-1.3142,-1.323,-1.3761,-1.4398,-1.4894,-1.4778,-1.4455,0.0,0.0,0.0,0.0,-1.3098,0.0,-1.3197,0.0,0.0,0.0,0.0,-1.4482,-1.4915,-1.5567,-1.6296,-1.7115,-1.7115,-1.7107,-1.7819,-1.7433,-1.7318,-1.8101,-1.7722,-1.752,-1.7872,-1.8134,-1.8269,-1.8269,-1.8414,-1.8482,-1.8482,-1.8549,-1.8923,-1.9761,-1.9463,-1.9611,-2.0395,-1.9995,-1.9798,-1.9798,-2.0832,-2.1321,-2.1417,-2.2402,-2.2888,-2.2888,-2.2888,-2.2888,-2.2947,-2.3392,-2.3867,-2.4343,-2.4719,-2.5169,-2.5551,-2.479,-2.4482,-2.4401,-2.3689,-2.3602,-2.3852,0.0,0.0,0.0,0.0,0.0,0.0,0.0,0.0,0.0,0.0,0.0,0.0,0.0,-1.4636,-1.4522,-1.4522,-1.4155,-1.3844,-1.3671,-1.3937,-1.4135,-1.4242,-1.471,-1.4823,-1.4529,-1.481,0.0,0.0,0.0,-1.4235,-1.4522,-1.3442,-1.3045,-1.3153,-1.1492,-1.0311,-0.9522,-0.9224,0.0,0.0,0.0,0.0,0.0,0.0,0.0,0.0,-1.3597,-1.4329,-1.4936,-1.4936,-1.5297,-1.5808,-1.5978,-1.5997,-1.5797,-1.4952,0.0,0.0,0.0,0.0,0.0,-1.4698,-1.4515,-1.437,-1.4682,-1.475,-1.49,-1.5365,-1.6221,-1.7115,-1.7844,-1.7934,-1.7937,-1.8415,-1.8515,-1.8508,-1.8351,-1.8392,-1.8449,-1.8512,-1.8787,-1.8988,-1.9142,-1.9396,-1.9386,-1.9054,-1.9704,-1.9938,-1.9315,-2.0053,-2.0322,-1.9874,-1.9924,-1.9875,-1.9798,-2.093,-2.1513,-2.1561,-2.2618,-2.3112,-2.3037,-2.3037,-2.3037,-2.3082,-2.3794,-2.4199,-2.442,-2.4839,-2.5339,-2.5754,-2.5387,-2.5273,-2.5192,-2.4421,-2.4181,-2.429,0.0,0.0,0.0,0.0,0.0,0.0,0.0,0.0,0.0,0.0,0.0,0.0,0.0,0.0,-1.4736,-1.4536,-1.4436,-1.4249,-1.3972,-1.4236,-1.4335,-1.4235,-1.4796,-1.4923,-1.4529,0.0,0.0,0.0,0.0,0.0,0.0,-1.3665,-1.3399,-1.3411,-1.288,-1.1918,0.0,0.0,0.0,-1.0066,0.0,0.0,-1.1576,0.0,0.0,-1.4224,-1.5115,-1.5777,-1.6228,-1.6403,-1.6522,-1.6676,-1.6923,-1.7016,-1.6782,-1.5929,0.0,0.0,-1.4949,0.0,0.0,0.0,0.0,-1.5087,-1.5316,-1.5454,-1.5839,-1.6541,-1.726,-1.8123,-1.9012,-1.9252,-1.9349,-1.9263,-1.9478,-1.95,-1.9078,-1.9214,-1.9308,-1.925,-1.9441,-1.9639,-1.9726,-1.9977,-1.9966,-1.9573,-2.0291,-2.0313,-1.9261,-2.0262,-2.0514,-1.9758,-1.9926,-1.9978,-1.9862,-2.0828,-2.1354,-2.1354,-2.222,-2.2701,-2.2834,-2.2834,-2.2952,-2.3201,-2.3921,-2.4307,-2.4527,-2.5114,-2.5567,-2.5881,-2.5791,-2.5738,-2.5635,-2.5143,-2.5092,-2.5221,0.0,0.0,0.0,0.0,0.0,0.0,0.0,0.0,0.0,-1.661,0.0,0.0,0.0,0.0,0.0,-1.4583,-1.4796,-1.4843,-1.4556,-1.4803,-1.4836,-1.4543,-1.509,-1.513,-1.4556,0.0,0.0,0.0,0.0,0.0,0.0,0.0,-1.4088,-1.4088,-1.4088,-1.3188,-1.1655,0.0,-1.1663,-1.2245,0.0,-1.1855,-1.2753,0.0,-1.4797,-1.5028,-1.6714,-1.7106,-1.6948,-1.7492,-1.7155,-1.6784,0.0,0.0,0.0,0.0,0.0,0.0,0.0,0.0,0.0,0.0,0.0,0.0,-1.588,0.0,-1.7311,-1.8366,-1.8632,-1.9196,-2.0595,-2.1179,-2.1181,-2.045,-2.0328,-2.0256,-2.0298,-2.0156,-2.0126,-2.0118,-2.0205,-2.0205,-2.0194,-2.0118,-2.0118,-2.0107,-2.0161,-2.0009,-1.9675,-1.9983,-2.0169,-2.0028,-2.0131,-2.0131,-1.999,-2.0502,-2.0809,-2.0822,-2.1153,-2.1671,-2.2346,-2.2346,-2.2671,-2.3319,-2.3767,-2.4158,-2.4664,-2.5513,-2.5881,-2.5897,-2.5881,-2.5828,-2.5738,-2.5881,-2.6225,-2.6691,0.0,0.0,0.0,0.0,0.0,0.0,0.0,0.0,0.0,0.0,0.0,0.0,-1.5779,-1.5524,-1.5244,-1.4877,-1.4917,-1.493,-1.4843,-1.4917,-1.493,-1.4843,-1.5386,-1.5606,-1.5436,0.0,0.0,0.0,0.0,0.0,0.0,0.0,0.0,0.0,-1.4088,-1.3867,-1.3335,-1.2463,0.0,-1.2339,-1.2406,-1.2979,0.0,0.0,-1.5554,-1.5817,-1.6411,-1.6996,-1.7394,-1.7575,-1.7901,-1.8368,-1.8423,0.0,0.0,0.0,0.0,0.0,-1.7579,0.0,0.0,0.0,0.0,0.0,-1.696,0.0,-1.7619,-1.7836,-1.8602,-1.9403,-2.0101,-2.0895,-2.141,-2.1471,-2.1858,-2.186,-2.0975,-2.1575,-2.1812,-2.1152,-2.1742,-2.201,-2.147,-2.137,-2.1158,0.0,-2.106,-2.1098,-2.0338,-2.0576,-2.0605,-2.0386,-2.041,-2.0347,-2.0131,-2.0324,-2.0844,-2.1583,-2.1758,-2.2291,-2.3183,-2.3183,-2.3287,-2.3494,-2.4158,-2.4608,-2.4863,-2.5346,-2.5754,-2.6096,-2.599,-2.5937,-2.5937,-2.6189,-2.6349,-2.6573,0.0,0.0,0.0,0.0,0.0,0.0,0.0,0.0,0.0,0.0,0.0,0.0,-1.6074,-1.5972,-1.5872,-1.5705,-1.5464,-1.5378,-1.5504,-1.5398,-1.5362,-1.5332,-1.5708,-1.6003,-1.5964,0.0,0.0,0.0,0.0,0.0,0.0,0.0,0.0,0.0,0.0,0.0,0.0,0.0,0.0,0.0,-1.3662,0.0,0.0,-1.5814,-1.6253,-1.648,-1.6653,-1.7076,-1.7507,-1.7972,-1.8603,-1.9222,-1.8564,0.0,0.0,0.0,0.0,0.0,0.0,0.0,0.0,0.0,0.0,0.0,-1.7779,-1.8119,-1.8552,-1.8508,-1.9111,-1.99,-2.0572,-2.1315,-2.1855,-2.2053,-2.2744,-2.294,-2.1818,-2.2506,-2.2901,-2.2332,-2.2805,-2.3007,-2.258,-2.2356,-2.1957,-2.1451,-2.2051,-2.2092,-2.1427,-2.1104,-2.0822,-2.0649,-2.0599,-2.0511,-2.0347,-2.0274,-2.0557,-2.1175,-2.1368,-2.1928,-2.2763,-2.3031,-2.3284,-2.3581,-2.4405,-2.4808,-2.4942,-2.5497,-2.5917,-2.6168,-2.6115,-2.6063,-2.6026,-2.6241,-2.6453,-2.6724,0.0,0.0,0.0,0.0,0.0,0.0,0.0,0.0,0.0,0.0,-1.8303,-1.7377,-1.6863,-1.7011,-1.7148,-1.7148,-1.6531,-1.6211,-1.6642,-1.6217,-1.594,-1.6204,-1.6355,-1.6462,-1.6458,0.0,0.0,0.0,0.0,0.0,0.0,0.0,0.0,0.0,0.0,0.0,0.0,0.0,0.0,-1.4963,-1.4963,-1.5501,0.0,-1.6494,-1.6784,-1.7073,-1.7239,-1.7333,-1.7512,-1.8503,-1.9175,-1.9495,-1.8434,-1.8297,-1.8542,0.0,-1.7952,0.0,0.0,0.0,0.0,0.0,-1.8798,0.0,-1.8394,-1.8913,-1.9543,-1.964,-1.9846,-2.0341,-2.1363,-2.1957,-2.229,-2.238,-2.3071,-2.3378,-2.2719,-2.3161,-2.3513,-2.3501,-2.3564,-2.364,-2.3515,-2.3047,-2.2714,-2.2665,-2.3027,-2.3065,-2.259,-2.1692,-2.1069,-2.0822,-2.0785,-2.0662,-2.0511,-2.0261,-2.0215,-2.0314,-2.0625,-2.1132,-2.1829,-2.2488,-2.3071,-2.3638,-2.4461,-2.4863,-2.4942,-2.5791,-2.6168,-2.622,-2.622,-2.6115,-2.6063,-2.6222,-2.6573,-2.6928,0.0,0.0,0.0,0.0,0.0,0.0,0.0,0.0,0.0,0.0,-1.9751,-1.9681,-2.0186,-1.9969,-1.9852,-1.9852,-1.8602,-1.82,-1.875,-1.7366,-1.7099,-1.8417,-1.811,-1.794,-1.7972,-1.8951,0.0,0.0,0.0,0.0,0.0,0.0,0.0,0.0,0.0,0.0,0.0,0.0,0.0,-1.4963,-1.4777,-1.5311,-1.6224,-1.6494,-1.6784,-1.7073,-1.7239,-1.7613,-1.8041,-1.8773,-1.915,-1.9187,-1.8648,-1.8486,-1.853,-1.9161,0.0,0.0,0.0,0.0,0.0,-1.9495,-1.9228,0.0,-1.8845,-1.9046,-1.9154,-1.8839,-1.9463,-2.0215,-2.0727,-2.144,-2.2088,-2.2321,-2.2751,-2.3009,-2.2874,-2.3642,-2.4067,-2.3464,-2.4165,-2.4392,-2.3489,-2.3517,-2.338,-2.3053,-2.3682,-2.3764,-2.3083,-2.2855,-2.2215,-2.101,-2.0934,-2.0848,-2.0662,-2.0013,-2.0144,-2.103,-2.1035,-2.1532,-2.2544,-2.3131,-2.349,-2.3638,-2.4162,-2.4599,-2.4942,-2.5443,-2.5864,-2.622,-2.622,-2.6168,-2.6222,-2.6808,-2.6659,-2.6277,0.0,0.0,0.0,0.0,0.0,0.0,0.0,0.0,0.0,0.0,0.0,0.0,-2.1073,0.0,0.0,0.0,0.0,0.0,0.0,-1.9174,-1.8948,-1.9446,-1.9247,-1.9155,-1.933,-1.9869,-1.9875,0.0,0.0,0.0,0.0,0.0,0.0,0.0,0.0,0.0,0.0,0.0,-1.4588,-1.5129,-1.5033,0.0,-1.6407,-1.669,-1.6972,-1.7153,-1.7239,-1.78,-1.8464,-1.8653,-1.9008,-1.9411,-1.9197,-1.9183,-1.9379,-2.0098,-2.013,-1.9994,-2.0585,-2.0162,-1.9644,-2.0159,-2.0232,0.0,0.0,-2.0139,-2.0413,-1.9711,-2.0081,-2.0677,-2.1141,-2.1737,-2.2394,-2.2895,-2.3365,-2.3662,-2.3897,-2.4283,-2.44,-2.4066,-2.458,-2.4782,-2.4227,-2.4166,-2.417,-2.4305,-2.4256,-2.4041,-2.3671,-2.307,-2.2346,-2.145,-2.1277,-2.1131,-2.1033,-2.0334,-2.0464,-2.1465,-2.1307,-2.1765,-2.275,-2.3038,-2.3131,-2.3158,-2.3264,-2.3491,-2.3929,-2.4708,-2.5288,-2.569,-2.6071,-2.622,-2.6274,-2.6775,-2.6796,-2.6588,-2.6812,0.0,0.0,0.0,0.0,0.0,0.0,0.0,0.0,0.0,0.0,0.0,0.0,0.0,0.0,0.0,0.0,0.0,0.0,-2.1084,-2.0872,-2.068,-2.0563,-2.0486,-2.0512,-2.0753,-2.0797,0.0,0.0,0.0,0.0,0.0,0.0,0.0,0.0,0.0,0.0,0.0,0.0,-1.5473,0.0,-1.5993,-1.6683,-1.6885,-1.716,-1.7318,-1.7345,-1.798,-1.8795,-1.8431,-1.8988,-1.9859,-1.9622,-1.9893,-2.0391,-2.1205,-2.123,-2.1007,-2.1209,-2.0865,-2.0542,-2.0778,-2.1161,-2.1243,0.0,0.0,0.0,-2.077,-2.0761,-2.1055,-2.1521,-2.2038,-2.2609,-2.3288,-2.3852,-2.431,-2.4673,-2.4648,-2.4645,-2.4872,-2.4899,-2.4971,-2.4985,-2.4758,-2.4878,-2.555,-2.4751,-2.4226,-2.4095,-2.305,-2.2267,-2.1821,-2.1616,-2.1471,-2.1423,-2.0761,-2.0896,-2.1715,-2.1647,-2.1988,-2.2662,-2.269,-2.2634,-2.258,-2.2386,-2.2487,-2.29,-2.3974,-2.4685,-2.5176,-2.5922,-2.622,-2.6239,-2.6572,-2.6703,-2.6726,-2.7151,-2.5714,0.0,0.0,0.0,0.0,0.0,0.0,0.0,0.0,0.0,0.0,0.0,-2.6862,-2.6933,0.0,0.0,-2.4176,-2.5563,-2.3024,-2.2162,-2.3549,-2.3047,-2.2419,-2.1784,-2.2862,-2.3062,-2.2399,0.0,0.0,0.0,0.0,0.0,0.0,-1.7047,0.0,0.0,0.0,-1.5504,0.0,-1.626,-1.6572,0.0,-1.6979,-1.716,-1.7289,-1.7454,-1.8245,-1.9024,0.0,-1.9016,-2.027,-1.9757,-2.0098,-2.0974,-2.2134,-2.2081,-2.1891,-2.2822,-2.1898,-2.091,-2.2193,-2.1607,-2.0928,-2.1898,0.0,-2.1108,-2.0702,0.0,-2.0626,-2.0569,0.0,0.0,-2.2706,-2.3418,-2.3806,-2.3606,-2.4383,-2.5086,-2.5453,-2.5086,-2.4886,-2.5,-2.4989,-2.5174,-2.5784,-2.5278,-2.4661,-2.4146,-2.3399,-2.2623,-2.1821,-2.1746,-2.1664,-2.1423,-2.1176,-2.132,-2.1715,-2.2144,-2.2278,-2.2115,-2.2586,-2.2541,-2.21,-2.2263,-2.254,-2.2992,-2.3442,-2.4226,-2.5176,-2.5922,-2.622,-2.6239,-2.6572,-2.6021,-2.52,-2.7115,-2.6141,0.0,0.0,0.0,0.0,0.0,0.0,0.0,0.0,0.0,0.0,-2.755,-2.7555,-2.7517,-2.7687,-2.6811,-2.6172,-2.6174,-2.5236,0.0,0.0,-2.4544,-2.4143,-2.4065,-2.4036,-2.3987,-2.415,-2.3652,0.0,0.0,0.0,0.0,0.0,-1.8693,0.0,-1.6881,0.0,-1.6426,0.0,0.0,-1.6785,0.0,-1.7153,-1.7309,-1.7462,-1.7571,-1.8409,-1.929,0.0,-1.9725,0.0,0.0,0.0,0.0,-2.3276,-2.3361,-2.3316,-2.3709,-2.292,-2.2134,-2.306,-2.2777,-2.2421,-2.2857,-2.2898,-2.2709,-2.232,0.0,0.0,0.0,0.0,0.0,0.0,-2.3801,-2.4094,-2.3715,-2.4542,-2.5037,-2.4751,-2.5053,-2.5121,-2.4792,-2.5246,-2.5273,-2.4671,-2.4535,-2.4216,-2.3533,-2.3238,-2.2768,-2.2058,-2.2379,-2.2345,-2.1855,-2.1475,-2.1709,-2.263,-2.2436,-2.2446,-2.262,-2.2449,-2.2,-2.1387,-2.1103,-2.1299,-2.1867,-2.2419,-2.3111,-2.3999,-2.511,-2.5839,-2.6274,-2.6791,-2.6642,-2.6243,-2.7869,0.0,0.0,0.0,0.0,0.0,0.0,0.0,0.0,0.0,0.0,0.0,-2.791,-2.801,-2.8157,-2.8272,-2.8064,-2.7574,-2.6657,-2.6871,-2.6582,-2.5692,-2.5673,-2.5609,-2.5305,-2.4924,-2.4965,-2.5452,0.0,0.0,0.0,0.0,0.0,0.0,0.0,-1.9402,-1.837,0.0,-1.7741,-1.7697,-1.734,-1.7514,-1.8011,-1.7379,-1.7355,-1.7637,-1.7826,-1.8718,-1.9755,-1.9761,-2.0509,0.0,-2.2088,-2.2585,-2.3117,0.0,0.0,0.0,-2.4028,-2.3549,-2.3185,-2.363,-2.3659,-2.3597,-2.3728,-2.3857,-2.3818,-2.334,-2.2365,0.0,0.0,0.0,0.0,0.0,0.0,-2.3928,-2.3617,-2.4423,-2.498,-2.4595,-2.5324,-2.5699,-2.5338,-2.5562,-2.5352,-2.442,-2.403,-2.3571,-2.2944,-2.2797,-2.2538,-2.2091,-2.2606,-2.2634,-2.2184,-2.1872,-2.2146,-2.2951,-2.2523,-2.2387,-2.2546,-2.1972,-2.1394,-2.0798,-2.0329,-2.0512,-2.1135,-2.189,-2.254,-2.3179,-2.458,-2.5459,-2.6011,-2.669,-2.6948,-2.6943,-2.9894,-2.7972,0.0,0.0,0.0,0.0,0.0,0.0,0.0,0.0,-2.7544,-2.8515,-2.8997,-2.9308,-2.9687,-3.0098,-2.9004,-2.8281,-2.8232,-2.7471,-2.6535,-2.5421,-2.6656,-2.6543,-2.4972,-2.5886,-2.633,-2.6196,0.0,0.0,0.0,0.0,0.0,0.0,-2.2206,-2.1429,-2.0694,-1.9271,-1.9507,-2.0648,-1.948,-1.9372,-1.9701,0.0,-1.7362,-1.7959,-1.812,0.0,0.0,-2.0508,-2.1308,0.0,0.0,0.0,0.0,0.0,0.0,0.0,-2.3603,-2.342,-2.3534,-2.3918,-2.3875,-2.3893,-2.4386,-2.4121,-2.3591,-2.2775,-2.2151,-2.1774,-2.1787,0.0,0.0,0.0,0.0,0.0,0.0,-2.3937,-2.5019,-2.5676,-2.6174,-2.6648,-2.6974,-2.6036,-2.5563,-2.5892,-2.4226,-2.2994,-2.2437,-2.2069,-2.1821,-2.1793,-2.2105,-2.2198,-2.2184,-2.2498,-2.2467,-2.2147,-2.2414,-2.2069,-2.117,-2.1059,-2.0767,-2.0335,-2.0527,-2.0795,-2.1278,-2.2358,-2.2889,-2.3223,-2.4646,-2.5246,-2.5397,-2.6064,-2.63,-2.632,0.0,0.0,0.0,0.0,0.0,0.0,0.0,-2.6553,0.0,-2.7678,-2.8603,-2.9355,-2.9809,-2.999,-2.9932,-2.9795,-2.9385,-2.8779,-2.7939,-2.7702,-2.7416,-2.6765,-2.7362,-2.7321,-2.6676,-2.6713,-2.6819,-2.694,0.0,0.0,0.0,0.0,0.0,0.0,0.0,-2.2708,0.0,0.0,0.0,0.0,0.0,-1.9887,-1.9806,0.0,-1.8717,-1.8932,-1.8958,-1.9785,0.0,-2.1118,-2.1918,-2.2852,-2.3213,-2.3593,-2.3975,-2.3727,-2.3837,-2.3874,0.0,-2.303,-2.309,-2.3546,-2.3759,-2.3809,-2.3989,-2.3893,-2.37,-2.3291,-2.2481,-2.1897,-2.2242,0.0,0.0,0.0,0.0,0.0,0.0,-2.3611,-2.5018,-2.6017,-2.6477,-2.6558,-2.6155,-2.5902,-2.5377,-2.4433,-2.3865,-2.3271,-2.2583,-2.2785,-2.2653,-2.2091,-2.2387,-2.2352,-2.1949,-2.2217,-2.2426,-2.2511,-2.2509,-2.2229,-2.1668,-2.1249,-2.0757,-2.0185,-2.0239,-2.0663,-2.1325,-2.2037,-2.27,-2.3348,-2.4679,-2.5297,-2.5563,-2.6584,-2.6992,-2.7096,-3.2516,0.0,0.0,0.0,0.0,0.0,0.0,0.0,-2.8047,-2.8457,-2.9131,-2.9726,-3.0156,-3.0068,-2.9863,-2.959,-2.9407,-2.8918,-2.7934,-2.7924,-2.767,-2.7262,-2.7492,-2.7418,-2.6945,-2.6965,-2.7094,-2.7013,0.0,-2.6279,0.0,0.0,0.0,0.0,0.0,-2.3744,-2.3105,-2.2658,-2.2385,0.0,0.0,-2.139,0.0,0.0,-2.02,-1.9694,0.0,-2.0372,-2.1451,-2.1665,-2.2392,-2.3231,-2.3262,-2.3561,-2.3821,-2.3386,-2.3375,-2.3409,-2.2873,-2.2751,-2.2858,-2.3126,-2.3353,-2.3484,-2.3484,-2.355,-2.3535,-2.3254,-2.2689,-2.2312,-2.2764,0.0,0.0,0.0,0.0,0.0,0.0,-2.3526,-2.4841,-2.5673,-2.6385,-2.6605,-2.6126,-2.6366,-2.5821,-2.4057,-2.4095,-2.3703,-2.2505,-2.2786,-2.2781,-2.2245,-2.2421,-2.2387,-2.2091,-2.2356,-2.2517,-2.2556,-2.2357,-2.2004,-2.1538,-2.0916,-2.0441,-2.01,-2.0239,-2.0663,-2.1325,-2.207,-2.2732,-2.3425,-2.4793,-2.538,-2.5628,-2.6745,-2.7348,-2.7695,-3.3119,-3.2959,0.0,0.0,-2.8693,0.0,0.0,-2.7953,-2.8652,-2.8966,-2.9407,-2.9829,-3.0117,-2.9805,-2.9662,-2.9512,-2.9095,-2.8519,-2.8127,-2.7913,-2.7501,-2.6941,-2.7298,-2.6996,-2.5947,-2.6796,-2.7034,-2.6568,0.0,0.0,0.0,0.0,0.0,0.0,-2.4747,0.0,-2.4454,-2.328,-2.3454,-2.4454,-2.4262,-2.3645,-2.2941,-2.2818,-2.176,-2.0275,-2.0275,-2.1221,-2.2403,-2.2299,-2.2805,-2.3464,-2.2845,-2.3018,-2.3305,-2.2981,-2.3021,-2.305,-2.2533,-2.2674,-2.2943,-2.2738,-2.2827,-2.2967,-2.2955,-2.3083,-2.3128,-2.2788,-2.286,-2.3022,-2.3219,-2.2437,0.0,0.0,0.0,0.0,0.0,-2.3823,-2.4597,-2.4916,-2.601,-2.6774,-2.6916,-2.72,-2.6621,-2.4867,-2.4918,-2.4182,0.0,-2.2273,-2.2301,-2.2184,-2.2231,-2.2324,-2.2555,-2.2904,-2.282,-2.2346,-2.1994,-2.1452,-2.082,-2.0113,-1.9904,-2.01,-2.0462,-2.0828,-2.1278,-2.2435,-2.3059,-2.3442,-2.4923,-2.5545,-2.5711,-2.6584,-2.7391,-2.8055,-3.3684,-3.3845,-3.3621,0.0,-3.0498,-2.9352,0.0,0.0,0.0,-3.0467,-3.1106,-3.111,-3.0175,-3.0187,-2.9859,-2.9006,-2.8953,-2.8565,-2.7462,-2.7481,-2.7374,-2.6921,-2.7195,-2.7107,-2.6403,-2.6962,-2.7034,-2.6568,0.0,0.0,-2.6548,0.0,0.0,0.0,0.0,0.0,-2.4454,-2.4186,-2.4186,-2.4433,-2.4103,-2.3619,-2.3153,0.0,-2.2527,-2.1852,-2.1852,-2.209,-2.2414,-2.26,-2.28,-2.2943,-2.2742,-2.2833,-2.2958,-2.2538,-2.2573,-2.2728,-2.2143,-2.2202,-2.239,-2.2327,-2.2742,-2.305,0.0,-2.3006,-2.3329,-2.2911,-2.3245,-2.3341,-2.2656,-2.2764,0.0,0.0,0.0,0.0,0.0,-2.4841,-2.5923,-2.7181,-2.652,-2.6039,-2.6076,-2.5814,-2.5456,-2.5091,-2.5209,-2.4557,-2.2917,-2.3926,-2.3826,-2.2259,-2.2356,-2.2296,-2.1996,-2.2618,-2.2906,-2.2731,-2.2055,-2.1644,-2.1434,-2.0302,-1.9833,-1.9904,-2.0361,-2.0764,-2.1198,-2.2246,-2.292,-2.3442,-2.4859,-2.6027,-2.6951,-2.723,-2.7765,-2.8309,-3.3847,-3.4259,0.0,-3.4083,0.0,0.0,-3.1804,-3.2151,0.0,-3.2219,-3.2009,0.0,-3.0683,-2.9914,-2.9276,-2.8575,-2.8317,-2.7925,-2.7562,-2.7105,-2.6917,-2.7081,-2.6879,-2.6603,-2.634,-2.6785,-2.689,-2.6634,0.0,0.0,-2.6248,0.0,0.0,0.0,0.0,-2.454,-2.454,-2.47,-2.4711,-2.4498,-2.4451,-2.408,0.0,-2.3374,-2.3047,-2.267,-2.2613,-2.2537,-2.2546,-2.2495,-2.261,-2.2695,-2.217,-2.2301,-2.2515,-2.208,-2.2185,-2.2305,-2.2071,-2.2123,-2.2197,-2.2197,-2.2763,-2.3183,-2.2873,-2.3412,-2.3961,-2.376,-2.378,-2.3718,-2.3191,-2.2956,-2.2633,0.0,0.0,0.0,-2.4173,-2.5014,-2.5912,-2.692,-2.6909,-2.6505,-2.5836,-2.5608,-2.5536,-2.5536,-2.5899,-2.5501,0.0,-2.479,-2.4301,-2.2385,-2.2844,-2.2812,-2.2109,-2.3043,-2.3421,-2.3187,-2.2185,-2.1695,-2.165,-2.034,-1.9762,-1.9833,-2.0429,-2.0812,-2.1087,-2.2028,-2.2915,-2.379,-2.5313,-2.6328,-2.6956,-2.733,-2.7869,-2.8432,-3.401,-3.45,0.0,0.0,0.0,0.0,0.0,-3.3299,0.0,-3.3797,0.0,-3.1599,-3.1283,-2.958,-2.8564,-2.8594,-2.7482,-2.7094,-2.8017,-2.6682,-2.6329,-2.7139,-2.6325,-2.5913,-2.6,-2.6422,-2.666,-2.6615,0.0,0.0,0.0,0.0,0.0,0.0,0.0,0.0,0.0,-2.5031,-2.4999,-2.4586,-2.4988,-2.4584,-2.3758,-2.3808,-2.3459,-2.3007,-2.2867,-2.2865,-2.2715,-2.2215,-2.2298,-2.2409,-2.1532,-2.1661,-2.208,-2.1827,-2.1812,-2.1999,-2.2123,-2.2197,-2.2173,-2.2212,-2.2822,-2.3348,-2.3331,-2.4071,-2.4727,-2.4646,-2.4353,-2.4066,-2.3983,-2.3089,0.0,0.0,0.0,-2.336,-2.4068,-2.4761,-2.539,-2.5809,-2.6965,0.0,-2.6229,-2.6256,-2.6247,-2.6075,-2.6674,-2.6593,0.0,0.0,-2.4413,-2.2555,-2.3363,-2.3424,-2.2512,-2.3653,-2.3985,-2.3595,-2.2398,-2.1784,-2.165,-2.0393,-1.9852,-1.9904,-2.0597,-2.0926,-2.1023,-2.1844,-2.2886,-2.4097,-2.5497,-2.6175,-2.6377,-2.7009,-2.778,-2.8484,-3.5152,0.0,0.0,0.0,0.0,-3.6206,-3.6331,-3.6321,-3.5599,-3.3808,-3.3997,-3.3389,-3.1379,-3.0013,-2.9245,-2.9377,-2.767,-2.6867,-2.7355,-2.6414,-2.6139,-2.6668,-2.6165,-2.6087,-2.6444,-2.6911,-2.6974,-2.6615,0.0,0.0,0.0,0.0,0.0,0.0,0.0,0.0,-2.5115,-2.52,0.0,-2.5016,-2.5093,-2.4538,-2.3765,-2.4072,-2.3635,-2.2905,-2.3183,-2.3078,-2.273,-2.2161,-2.1987,-2.195,-2.1533,-2.1544,-2.1816,-2.1835,-2.1999,-2.2135,-2.2197,-2.2197,-2.2262,-2.2359,-2.2984,-2.3566,-2.3672,-2.4375,-2.4815,-2.4216,-2.4462,-2.4417,-2.3399,0.0,0.0,0.0,-2.3762,-2.4357,-2.4462,-2.4917,-2.5731,-2.7259,-2.6065,-2.5865,-2.7615,-2.721,-2.668,-2.6275,-2.705,-2.6788,0.0,0.0,-2.5477,0.0,-2.32,-2.3304,0.0,0.0,-2.3671,-2.3595,-2.2862,-2.2218,-2.1665,-2.0887,-2.0397,-2.0154,-2.0697,-2.1055,-2.1355,-2.1781,-2.2445,-2.3231,-2.3608,-2.4795,-2.6307,-2.6446,-2.7321,-2.8406,-3.5663,0.0,0.0,0.0,0.0,0.0,0.0,-3.6105,-3.5744,-3.5178,-3.395,-3.2671,-3.1505,-2.9932,-2.8925,-2.9035,-2.7955,-2.7261,-2.7194,-2.6563,-2.6238,-2.6232,-2.6217,-2.6308,-2.6561,-2.6975,-2.7245,-2.7315,-2.6791,0.0,0.0,0.0,0.0,0.0,0.0,-2.538,0.0,0.0,0.0,-2.512,-2.536,-2.4826,-2.4006,-2.4213,-2.3806,-2.3126,-2.3063,-2.2742,-2.2309,-2.2021,-2.1809,-2.1597,-2.1469,-2.16,-2.1812,-2.1874,-2.2061,-2.2197,-2.2197,-2.2274,-2.2328,-2.238,-2.302,-2.3648,-2.3755,-2.4357,-2.4812,-2.4531,-2.4425,-2.4112,-2.3136,-2.3458,-2.3673,-2.3378,-2.4015,-2.4582,-2.4582,-2.4774,-2.5371,-2.6615,-2.6128,-2.5962,-2.6747,-2.6745,-2.6616,-2.6394,-2.7021,-2.6601,0.0,0.0,-2.5575,0.0,0.0,0.0,-2.2603,0.0,-2.3881,-2.3523,-2.2981,-2.2338,-2.168,-2.1021,-2.0503,-2.0208,-2.0663,-2.1039,-2.1388,-2.2134,-2.2418,-2.2528,-2.3513,-2.4406,-2.5192,-2.6198,-2.7076,-2.7831,0.0,-3.5805,0.0,0.0,-3.5656,-3.5506,-3.5226,-3.4882,-3.492,-3.5621,-3.3387,-3.1683,-3.1661,-2.9898,-2.8727,-2.8981,-2.8119,-2.7499,-2.7378,-2.6758,-2.6335,-2.6238,-2.6462,-2.6535,-2.6699,-2.6999,-2.7304,-2.7536,-2.6853,0.0,0.0,0.0,0.0,0.0,0.0,0.0,0.0,0.0,-2.5928,-2.5278,-2.5428,-2.5017,-2.4292,-2.4203,-2.3821,-2.3236,-2.2891,-2.235,-2.182,-2.1832,-2.162,-2.1388,-2.1463,-2.1663,-2.1925,-2.1937,-2.2173,-2.2396,-2.2274,-2.2434,-2.2598,-2.251,-2.3111,-2.3724,-2.3764,-2.4312,-2.4805,-2.4704,-2.4152,-2.3543,-2.2989,-2.3536,0.0,-2.36,-2.3985,-2.4462,-2.4567,-2.4462,-2.4702,-2.5439,-2.6038,-2.6075,-2.5315,-2.5979,-2.6315,-2.5941,-2.6438,-2.6264,-2.5056,0.0,0.0,0.0,0.0,-2.3941,-2.3019,0.0,-2.4,-2.3451,-2.3031,-2.2416,-2.16,-2.1195,-2.0697,-2.0311,-2.0712,-2.1087,-2.1482,-2.2318,-2.2372,-2.2015,-2.3472,-2.3978,-2.4076,-2.5622,-2.6614,-2.7299,0.0,0.0,0.0,0.0,0.0,-3.4612,-3.4561,-3.3717,-3.3212,-3.3627,-3.2814,-3.2018,-3.1694,-3.0253,-2.9654,-3.0566,-2.8187,-2.6937,-2.7696,-2.6691,-2.645,-2.7278,-2.6817,-2.6813,-2.7309,-2.7221,-2.6792,-2.592,-2.6278,-2.6501,0.0,0.0,0.0,0.0,0.0,0.0,0.0,-2.6069,-2.5769,-2.5572,-2.5123,-2.4705,-2.4185,-2.4212,-2.3592,-2.281,-2.2877,-2.2228,-2.1469,-2.1631,-2.1596,-2.1451,-2.1737,-2.1862,-2.1937,-2.2123,-2.2641,-2.3094,-2.2531,-2.2858,-2.3282,-2.2787,-2.3188,-2.3727,-2.3842,-2.4365,-2.4675,-2.4109,-2.347,-2.296,-2.2902,-2.3156,-2.3585,-2.4101,-2.3941,-2.3924,-2.4492,-2.4088,-2.3954,-2.4642,-2.4835,-2.4765,-2.4519,-2.56,-2.5742,-2.4395,-2.5246,-2.5853,0.0,0.0,0.0,-2.4248,-2.4558,-2.4718,-2.4612,-2.3787,-2.3378,-2.3319,-2.326,-2.2596,-2.1429,-2.1747,-2.1418,-2.0597,-2.1039,-2.1433,-2.1768,-2.1923,-2.1936,-2.1827,-2.2049,-2.2852,-2.391,-2.412,-2.5464,-2.7227,0.0,0.0,0.0,0.0,0.0,0.0,0.0,-3.2636,-3.2117,-3.2256,-3.1847,-3.1551,-3.1414,-3.0552,-3.0146,-3.0547,-2.9167,-2.8203,-2.8023,-2.7529,-2.7184,-2.7014,-2.7067,-2.72,-2.7363,-2.6954,-2.6729,-2.6653,-2.6554,0.0,0.0,0.0,0.0,0.0,0.0,-2.664,-2.6496,-2.6302,-2.5835,-2.521,-2.5004,-2.4625,-2.4166,-2.3856,-2.3305,-2.2707,-2.253,-2.2015,-2.1463,-2.1737,-2.1737,-2.1726,-2.1862,-2.2223,-2.2628,-2.2689,-2.3039,-2.323,-2.2998,-2.2976,-2.2951,-2.2774,-2.2971,-2.3226,-2.3276,-2.3467,-2.3583,-2.3368,-2.3076,-2.2888,-2.2888,-2.3434,-2.3835,-2.3703,-2.3956,-2.4163,-2.4029,-2.3774,-2.3699,-2.3984,-2.4045,-2.3914,-2.3575,-2.4626,-2.5245,-2.4939,-2.6122,-2.6483,0.0,0.0,0.0,-2.5426,0.0,-2.3813,-2.4575,-2.3496,-2.2934,-2.2934,-2.2761,-2.2173,-2.1252,-2.1104,-2.0877,-2.063,-2.1324,-2.1678,-2.1797,-2.184,-2.1811,-2.1811,-2.2027,-2.2518,-2.3249,-2.3955,-2.4867,-2.5901,-3.6777,0.0,-3.4645,0.0,-3.2875,-3.2293,-3.2437,-3.1785,-3.1331,-3.1331,-3.1267,-3.1048,-3.0804,-3.0432,-3.0136,-2.9969,-2.9436,-2.881,-2.8163,-2.7975,-2.7678,-2.7162,-2.7324,0.0,-2.7164,-2.6584,-2.6316,-2.6376,-2.6155,0.0,0.0,0.0,0.0,0.0,-2.6611,-2.6577,-2.6232,-2.6071,-2.5589,-2.49,-2.4763,-2.4499,-2.4143,-2.3638,-2.319,-2.274,-2.2441,-2.1981,-2.1588,-2.1862,-2.1892,-2.1784,-2.2175,-2.2616,-2.311,-2.3124,-2.3358,-2.3524,-2.3191,-2.3057,-2.3013,-2.2782,-2.2822,-2.2888,-2.2888,-2.2888,-2.2888,-2.2888,-2.2888,-2.2888,-2.2888,-2.3493,-2.3894,-2.3614,0.0,-2.4223,-2.3939,-2.3729,-2.3595,-2.3595,-2.3954,-2.379,-2.2884,-2.4147,-2.4929,-2.4616,-2.5955,0.0,0.0,0.0,0.0,0.0,0.0,0.0,-2.4312,-2.3216,-2.2663,-2.2663,-2.2424,-2.1887,-2.1044,-2.0576,-2.0528,-2.078,-2.1462,-2.1797,-2.1797,-2.1797,-2.1797,-2.1827,-2.2096,-2.2402,-2.2808,-2.3699,-2.4342,-2.5015,-3.6033,-3.5208,-3.4297,-3.2962,-3.2228,-3.1772,-3.1772,-3.1365,-3.0999,-3.0999,-3.0999,-3.0703,-2.9895,-2.9609,-2.9404,-2.908,-2.8388,-2.7999,-2.7999,-2.7713,-2.7733,0.0,0.0,-2.7268,-2.6744,-2.6129,-2.5307,-2.4223,0.0,0.0,-2.4946,0.0,-2.5727,-2.5727,-2.5739,-2.5727,-2.5681,-2.5153,-2.4923,-2.4866,-2.4395,-2.42,-2.4143,-2.385,-2.3398,-2.2863,-2.2758,-2.2365,-2.1925,-2.2123,-2.1849,-2.162,-2.2745,-2.3088,-2.3094,-2.3114,-2.3714,-2.4143,-2.2935,-2.3209,-2.3746,-2.3062,-2.2902,-2.2888,-2.2888,-2.2888,-2.2888,-2.2888,-2.2888,-2.2888,-2.2888,-2.3112,-2.3541,-2.4159,0.0,-2.3849,-2.4477,-2.4029,-2.3595,-2.3595,-2.4777,-2.469,-2.2451,-2.4404,-2.4846,-2.2587,0.0,0.0,0.0,0.0,0.0,-2.3778,-2.377,0.0,-2.4212,-2.3136,-2.2615,-2.2615,-2.2601,-2.1972,-2.0779,-2.0449,-2.0583,-2.1134,-2.1524,-2.1738,-2.1797,-2.1797,-2.1797,-2.1827,-2.2096,-2.2402,-2.273,-2.3003,-2.3832,-2.4944,-3.6561,-3.5856,-3.5067,-3.3655,-3.2766,-3.2092,-3.1686,-3.1316,-3.0843,-3.0451,-3.0411,-3.0032,-2.8969,-2.9496,-2.9757,0.0,-2.8601,-2.8298,0.0,-2.7769,-2.7618,-2.7717,-2.7618,-2.7391,-2.7242,-2.6691,-2.6058,-2.5382,0.0,0.0,0.0,-2.5789,-2.587,-2.587,-2.587,-2.5662,-2.5315,-2.5217,-2.5036,-2.4783,-2.456,-2.4281,-2.4038,-2.3524,-2.2998,-2.2538,-2.2226,-2.2068,-2.1987,-2.2628,-2.2499,-2.2297,-2.3493,-2.3339,-2.2841,-2.3605,-2.3906,-2.3836,-2.3453,-2.3277,-2.3149,-2.2946,-2.2888,-2.2888,-2.2888,-2.2888,-2.2888,-2.2888,-2.2888,-2.2947,-2.3037,-2.3201,-2.3393,-2.3703,-2.3672,0.0,-2.3894,-2.3729,-2.3595,-2.3595,-2.3955,-2.3627,-2.2278,-2.3766,-2.4493,-2.3638,0.0,0.0,0.0,0.0,0.0,0.0,-2.3656,0.0,-2.3835,-2.2658,-2.2137,-2.2324,-2.1945,-2.1226,-2.0189,-2.0216,-2.0364,-2.0616,-2.137,-2.1694,-2.1664,-2.1708,-2.1738,-2.1768,-2.2027,-2.2375,-2.273,-2.3003,-2.3448,-2.4134,-3.5769,-3.5089,-3.4301,-3.2947,-3.222,-3.1705,-3.1178,-3.0771,-3.0421,-3.0066,-2.9882,-2.9444,-2.849,-2.9039,0.0,-2.8673,-2.8281,-2.8059,-2.8059,-2.7732,-2.7523,-2.7523,-2.7523,-2.7456,-2.7377,-2.704,0.0,-2.6308,-2.6251,-2.6106,-2.5929,-2.5929,-2.5804,-2.5529,-2.5529,-2.5343,-2.5028,-2.5028,-2.4926,-2.4778,-2.4424,-2.4214,-2.3896,-2.3258,-2.2971,-2.2807,-2.2454,-2.2519,-2.2774,-2.3086,-2.286,-2.2622,-2.3622,-2.3173,-2.2515,-2.3644,-2.3801,-2.3645,-2.3414,-2.3161,-2.2888,-2.2888,-2.2888,-2.2888,-2.2888,-2.2947,-2.2947,-2.2902,-2.2978,-2.3068,-2.3082,-2.3246,-2.3407,-2.3509,-2.3581,-2.3595,-2.3595,-2.3595,-2.3595,-2.3595,-2.3805,-2.3481,-2.2434,-2.3426,-2.3806,0.0,0.0,0.0,0.0,0.0,-2.4824,-2.446,-2.2935,-2.2386,-2.2853,-2.2145,-2.1888,-2.203,-2.1372,-2.0614,-1.9781,-2.0032,-2.0208,-2.033,-2.1214,-2.1603,-2.1634,-2.1664,-2.1664,-2.1724,-2.1998,-2.232,-2.2669,-2.296,-2.3265,-2.3695,-3.3991,-3.3313,-3.2523,-3.1373,-3.1121,-3.0867,-3.0419,-3.0019,-2.9811,-2.9757,-2.9491,-2.9057,-2.8454,-2.8389,-2.8179,-2.7642,0.0,0.0,-2.7536,-2.759,-2.7603,-2.7603,-2.7603,-2.7523,-2.7297,-2.7297,-2.7204,-2.695,-2.6883,-2.6476,-2.5824,-2.5755,-2.5441,-2.479,-2.479,-2.479,-2.479,-2.4754,-2.4731,-2.4767,-2.4213,-2.4034,-2.3904,-2.3132,-2.3174,-2.3617,-2.3276,-2.3526,-2.3877,-2.351,-2.2973,-2.2618,-2.3313,-2.2845,-2.225,-2.3217,-2.3564,-2.3501,-2.2953,-2.2872,-2.2888,-2.2888,-2.2888,-2.2888,-2.2902,-2.2992,-2.3082,-2.2933,-2.3112,-2.3275,-2.3171,-2.3334,-2.3509,-2.3509,-2.3566,-2.3595,-2.3595,-2.3595,-2.3595,-2.3595,-2.4163,0.0,-2.2812,-2.3273,-2.2932,0.0,0.0,0.0,0.0,0.0,-2.4491,-2.1954,-2.186,-2.172,-2.1375,-2.1616,-2.1746,-2.1779,-2.0932,-2.0259,-1.9717,-2.0012,-2.0181,-2.0277,-2.1055,-2.1479,-2.1664,-2.1603,-2.1603,-2.1708,-2.1998,-2.2275,-2.2556,-2.296,-2.3265,-2.3624,0.0,0.0,-3.3317,-3.263,-3.1976,-3.1335,-3.0827,-3.0433,-2.9982,-2.9578,-2.9457,-2.9174,-2.8596,-2.8529,-2.8475,-2.8341,-2.8145,-2.7947,-2.7947,-2.8197,-2.8327,-2.8327,-2.8327,-2.8327,-2.8249,-2.8249,-2.8026,-2.7524,-2.6718,-2.6171,-2.6045,-2.5511,-2.5182,-2.5052,-2.5052,-2.5052,-2.5028,-2.4554,-2.4457,-2.4536,-2.439,-2.4124,-2.3924,-2.4203,-2.4128,-2.3909,-2.3839,-2.3631,-2.351,-2.3891,-2.3402,-2.277,-2.3455,-2.323,-2.2821,-2.3454,-2.3403,-2.3045,-2.29,-2.2902,-2.2888,-2.2888,-2.2888,-2.2947,-2.3037,-2.3082,-2.3127,-2.3187,-2.3275,-2.3319,-2.3378,-2.3466,-2.3509,-2.3566,-2.361,-2.3595,-2.3595,-2.3595,-2.3595,0.0,-2.3672,-2.3482,-2.2768,-2.2747,-2.2833,0.0,0.0,-2.3029,-2.3768,-2.3798,-2.3063,-2.1511,-2.1564,-2.1365,-2.0957,-2.1131,-2.1375,-2.1793,-2.1321,-2.094,-2.0592,-2.0531,-2.0466,-2.0444,-2.099,-2.1294,-2.1402,-2.1433,-2.1464,-2.1509,-2.1882,-2.222,-2.2556,-2.296,-2.3265,-2.3624,-3.3521,-3.3334,-3.297,-3.2497,-3.1816,-3.1194,-3.07,-3.0131,-2.9627,-2.9285,-2.9114,-2.8926,-2.8627,-2.8587,-2.8587,-2.8587,-2.8406,-2.8341,-2.8341,-2.8536,-2.8587,-2.8587,-2.8587,-2.8651,-2.8844,-2.8844,-2.8766,-2.8597,-2.7999,-2.7524,-2.7178,-2.6841,-2.6321,-2.5664,-2.5664,-2.553,-2.5286,-2.4993,-2.4915,-2.5003,-2.4709,-2.4493,-2.4336,-2.4416,-2.4413,-2.4452,-2.4452,-2.4523,-2.4559,-2.4385,-2.3951,-2.354,-2.3382,-2.3117,-2.296,-2.3262,-2.3117,-2.2888,-2.2888,-2.2888,-2.2902,-2.2992,-2.2992,-2.3037,-2.3157,-2.326,-2.329,-2.3275,-2.3348,-2.3436,-2.3509,-2.3538,-2.3566,-2.3595,-2.3595,-2.3595,-2.3595,-2.3595,-2.3595,-2.3595,-2.3566,-2.3407,-2.3083,-2.2934,-2.289,-2.3049,-2.2859,0.0,-2.3053,-2.2602,-2.2194,-2.1771,-2.1615,-2.1275,-2.0785,-2.0934,-2.1143,-2.1379,-2.0907,-2.0599,-2.0431,-2.0247,-2.0237,-2.0357,-2.0893,-2.1199,-2.1262,-2.134,-2.1355,-2.1417,-2.1645,-2.2022,-2.2476,-2.273,-2.3109,-2.3547,-3.2398,-3.2342,-3.2176,-3.1781,-3.1321,-3.0851,-3.0372,-2.9713,-2.9289,-2.9162,-2.8908,-2.8716,-2.8716,-2.8716,-2.8716,-2.8716,-2.8716,-2.8716,-2.8651,-2.8716,-2.8716,-2.8716,-2.8716,-2.8908,-2.9162,-2.9162,-2.9289,-2.9602,-2.938,-2.8996,-2.837,-2.8147,-2.7394,-2.6299,-2.6299,-2.5967,-2.5526,-2.5451,-2.5447,-2.5426,-2.4988,-2.4812,-2.476,-2.4451,-2.4624,-2.5118,-2.5174,-2.5494,-2.5866,-2.4889,-2.4554,-2.4307,-2.338,-2.2975,-2.2888,-2.2888,-2.2888,-2.2888,-2.2888,-2.2902,-2.2947,-2.3082,-2.3127,-2.3171,-2.3275,-2.3422,-2.3466,-2.3363,-2.348,-2.3551,-2.3538,-2.3566,-2.3595,-2.3595,-2.3595,-2.3595,-2.3595,0.0,-2.3595,-2.3595,-2.3595,-2.3566,-2.3509,-2.3319,-2.3038,-2.2649,-2.2512,-2.2128,-2.1465,-2.1396,-2.164,-2.2156,-2.1676,-2.1146,-2.0712,-2.0898,-2.0933,-2.085,-2.0385,-2.0063,-1.998,-1.9834,-1.9908,-2.0204,-2.0794,-2.1103,-2.1183,-2.1262,-2.134,-2.1386,-2.1448,-2.1866,-2.2422,-2.2529,-2.295,-2.3494,-3.2398,-3.2064,-3.1796,-3.1724,-3.1321,-3.0851,-3.0372,-3.019,-2.996,-2.954,-2.9477,-2.9415,-2.9415,-2.9415,-2.9415,-2.9415,-2.9415,-2.9289,-2.9035,-2.9289,-2.9415,-2.9415,-2.9415,-2.9477,-2.954,-2.954,-2.954,-2.9602,-2.8436,-2.7863,-2.771,-2.6546,-2.5931,-2.5754,-2.5754,-2.5639,-2.5523,-2.5107,-2.4909,-2.4901,-2.4954,-2.4956,-2.5013,-2.5411,-2.566,-2.5784,-2.5893,-2.5731,-2.5526,-2.5429,-2.4788,-2.396,-2.3804,-2.3368,-2.2888,-2.2888,-2.2888,-2.2888,-2.2888,-2.2992,-2.3082,-2.3246,-2.3275,-2.3275,-2.3466,-2.3509,-2.3494,-2.3566,-2.3551,-2.361,-2.361,-2.3595,-2.3595,-2.3595,-2.3595,-2.3595,-2.3595,0.0,-2.3595,-2.3595,-2.3595,-2.3566,-2.3509,-2.3083,-2.2889,-2.3172,-2.2466,-2.2128,-2.2466,-2.1779,-2.1464,-2.1559,-2.108,-2.0791,-2.0699,-2.0898,-2.0836,-2.0574,-2.0708,-2.0585,-2.0226,-2.0239,-2.0294,-2.046,-2.0728,-2.0958,-2.1135,-2.1262,-2.1325,-2.134,-2.1648,-2.201,-2.2422,-2.2712,-2.3126,-2.3494,-3.2398,-3.2231,-3.2007,-3.1724,-3.1321,-3.0851,-3.0372,-3.0083,-2.9851,-2.9602,-2.9602,-2.9602,-2.9602,-2.9602,-2.9602,-2.9602,-2.9307,-2.9049,-2.8864,-2.9296,-2.9602,-2.9602,-2.9602,-2.9462,-2.9125,-2.8788,-2.8619,-2.8619,-2.8024,-2.769,-2.769,-2.7072,-2.6573,-2.6193,-2.6193,-2.602,-2.5714,-2.5435,-2.5378,-2.5401,-2.5438,-2.5508,-2.5508,-2.5784,-2.5948,-2.6002,-2.6056,-2.6034,-2.5945,-2.5681,-2.5315,-2.4849,-2.4515,-2.4196,-2.3844,-2.3557,-2.3209,-2.2992,-2.2992,-2.3127,-2.3246,-2.3363,-2.3407,-2.3407,-2.3523,-2.3566,-2.3566,-2.3595,-2.3595,-2.3595,-2.3595,-2.3595,-2.3595,-2.3595,-2.3595,-2.3595,-2.3595,-2.3595,-2.3595,-2.3595,-2.3595,-2.361,-2.3581,-2.3304,-2.3216,-2.3436,-2.274,-2.2314,-2.2374,-2.1732,-2.1423,-2.1423,-2.0947,-2.0699,-2.0699,-2.0447,-2.0385,-2.0481,-2.013,-2.0104,-2.0274,-2.0109,-2.0161,-2.0407,-2.0695,-2.086,-2.0958,-2.1183,-2.1309,-2.134,-2.1617,-2.1969,-2.233,-2.2712,-2.3077,-2.3407,-3.2136,-3.2151,-3.2041,-3.1667,-3.1447,-3.119,-3.0732,-3.0266,-2.9856,-2.9591,-2.9454,-2.935,-2.9195,-2.9181,-2.9181,-2.9181,-2.8759,-2.8478,-2.8478,-2.8914,-2.9181,-2.9181,-2.9181,-2.8956,-2.8493,-2.8015,-2.7776,-2.7776,-2.7621,-2.7551,-2.7551,-2.7411,-2.7037,-2.654,-2.654,-2.628,-2.5799,-2.5799,-2.5867,-2.5893,-2.5893,-2.5893,-2.5948,-2.5948,-2.6002,-2.6165,-2.6165,-2.6312,-2.6438,-2.6044,-2.5821,-2.5705,-2.5212,-2.4849,-2.4515,-2.4036,-2.3533,-2.3171,-2.3171,-2.3246,-2.3363,-2.3494,-2.3538,-2.3538,-2.361,-2.3595,-2.3595,-2.3595,-2.3595,-2.3595,-2.3595,-2.3595,-2.3595,-2.3595,0.0,-2.3595,-2.3595,-2.3595,-2.3595,-2.3595,-2.3595,-2.3595,-2.3595,-2.3566,-2.3538,-2.361,-2.3157,-2.274,-2.2314,-2.1955,-2.165,-2.1423,-2.1033,-2.0782,-2.0637,-2.007,-1.9893,-2.0048,-1.9458,-1.9492,-2.0091,-1.9884,-1.998,-2.0304,-2.0595,-2.0761,-2.0827,-2.1119,-2.1277,-2.134,-2.1648,-2.194,-2.2248,-2.266,-2.3028,-2.3313,-3.1336,-3.1459,-3.1459,-3.1405,-3.1927,-3.212,-3.1667,-3.1204,-3.0528,-2.952,-2.9047,-2.8535,-2.7973,-2.7902,-2.7902,-2.7902,-2.7874,-2.7846,-2.7846,-2.7888,-2.7902,-2.7902,-2.7902,-2.7888,-2.7846,-2.7804,-2.7776,-2.7776,-2.7172,-2.6877,-2.6863,-2.6301,-2.6034,-2.5979,-2.5979,-2.5951,-2.5909,-2.5909,-2.5881,-2.5893,-2.5893,-2.5948,-2.6111,-2.6111,-2.6179,-2.6272,-2.6418,-2.6457,-2.651,-2.6654,-2.63,-2.5778,-2.572,-2.4907,-2.3949,-2.3905,-2.361,-2.3275,-2.3275,-2.3363,-2.3494,-2.3566,-2.3595,-2.3595,-2.3595,-2.3595,-2.3595,-2.3595,-2.3595,-2.3595,-2.3595,-2.3595,-2.3595,-2.3595,0.0,0.0,-2.3595,-2.3595,-2.3595,-2.3595,-2.3595,-2.3595,-2.3595,-2.361,-2.3595,-2.3595,-2.3551,-2.3334,-2.2889,-2.2799,-2.2388,-2.1423,-2.1375,-2.109,-2.0508,-2.0038,-1.9483,-1.8845,-1.91,-1.9293,-1.9472,-1.969,-1.998,-2.0304,-2.046,-2.0628,-2.0827,-2.1023,-2.1199,-2.134,-2.1794,-2.2068,-2.2248,-2.273,-2.307,-2.3289,-3.0735,-3.0797,-3.0676,-3.0396,-3.0555,-3.0488,-2.9778,-2.9493,-2.9117,-2.8495,-2.8231,-2.8029,-2.7804,-2.7776,-2.7776,-2.7776,-2.7411,-2.7172,-2.7172,-2.6821,-2.6961,-2.7748,-2.7397,-2.7172,-2.7172,-2.6807,-2.661,-2.661,-2.6357,-2.6245,-2.6245,-2.6006,-2.5893,-2.5893,-2.5893,-2.5893,-2.5893,-2.5893,-2.5948,-2.6002,-2.6002,-2.6111,-2.6233,-2.6233,-2.6326,-2.6418,-2.6457,-2.6578,-2.6712,-2.6779,-2.662,-2.6402,-2.6402,-2.5843,-2.5068,-2.4297,-2.3776,-2.3422,-2.3422,-2.3494,-2.3566,-2.3595,-2.3595,-2.3595,-2.3595,-2.3595,-2.3595,-2.3595,-2.3595,-2.3595,-2.3595,-2.3595,-2.3595,-2.3595,0.0,-2.3595,-2.3595,-2.3595,-2.3595,-2.3595,-2.3595,-2.3595,-2.3595,-2.3595,-2.3595,-2.3595,-2.3334,-2.3068,-2.2889,-2.2558,-2.2374,-2.2342,-2.1653,-2.0899,-2.0059,-1.9434,-1.9084,-1.9003,-1.9219,-1.9455,-1.9675,-1.996,-2.0185,-2.0304,-2.0426,-2.0628,-2.0827,-2.1038,-2.1277,-2.1587,-2.1882,-2.2113,-2.2371,-2.2747,-2.302,-2.3193,-3.0058,-3.0104,-2.9986,-2.9659,-2.9682,-2.9535,-2.8931,-2.861,-2.8254,-2.7783,-2.7582,-2.7397,-2.72,-2.7186,-2.7186,-2.7186,-2.6778,-2.6526,-2.6526,-2.6132,-2.6287,-2.7158,-2.6764,-2.6526,-2.6526,-2.6104,-2.5893,-2.5893,-2.5893,-2.5893,-2.5893,-2.5893,-2.5893,-2.5893,-2.5893,-2.5893,-2.5893,-2.5948,-2.6002,-2.6111,-2.6165,-2.6218,-2.6379,-2.6379,-2.6472,-2.6578,-2.6578,-2.6567,-2.6474,-2.6474,-2.6344,-2.6184,-2.6236,-2.5871,-2.5223,-2.4263,-2.3763,-2.3509,-2.3538,-2.3566,-2.3595,-2.3595,-2.3595,-2.3595,-2.3595,-2.3595,-2.3595,-2.3595,-2.3595,-2.3595,-2.3595,-2.3595,-2.3595,-2.3595,-2.3595,-2.3595,-2.3595,-2.3595,-2.3595,-2.3595,-2.3595,-2.3595,-2.3595,-2.3595,-2.3595,-2.3595,-2.329,-2.3113,-2.3113,-2.2785,-2.2694,-2.2889,-2.1785,-2.0785,-1.9967,-1.9269,-1.8948,-1.9119,-1.9313,-1.9536,-1.9823,-2.015,-2.0304,-2.0304,-2.0426,-2.0628,-2.0827,-2.1038,-2.1294,-2.1603,-2.1811,-2.2044,-2.2304,-2.2632,-2.2876,-2.3102,-2.9273,-2.9396,-2.9396,-2.9396,-2.959,-2.9803,-2.9803,-2.9042,-2.8251,-2.7588,-2.7073,-2.6568,-2.595,-2.5879,-2.5879,-2.5879,-2.5879,-2.5879,-2.5879,-2.5879,-2.5879,-2.5879,-2.5879,-2.5893,-2.5893,-2.5893,-2.5893,-2.5893,-2.5893,-2.5893,-2.5893,-2.5893,-2.5893,-2.5893,-2.5893,-2.5893,-2.5893,-2.6056,-2.6111,-2.6111,-2.6218,-2.6365,-2.6496,-2.6496,-2.663,-2.6779,-2.6779,-2.6344,-2.5778,-2.5778,-2.5386,-2.4927,-2.4995,-2.4622,-2.4101,-2.3644,-2.3509,-2.3509,-2.3566,-2.3595,-2.3595,-2.3595,-2.3595,-2.3595,-2.3595,-2.3595,-2.3595,-2.3595,-2.3595,-2.3595,-2.3595,-2.3595,-2.3595,-2.3595,-2.3595,-2.3595,-2.3595,-2.3595,-2.3595,-2.3595,-2.3595,-2.3595,-2.3595,-2.3595,-2.3595,-2.3595,-2.3595,-2.3595,-2.3595,-2.3595,-2.3377,-2.2934,-2.1755,-2.0864,-2.0344,-1.9642,-1.9171,-1.8893,-1.9244,-1.9551,-1.9823,-2.015,-2.0304,-2.0304,-2.0426,-2.0628,-2.0827,-2.1038,-2.1199,-2.1325,-2.1603,-2.1827,-2.2027,-2.2304,-2.2712,-2.3095,-2.8673,-2.8704,-2.8704,-2.8704,-2.8774,-2.8697,-2.8429,-2.7884,-2.7321,-2.6866,-2.642,-2.5936,-2.5317,-2.5247,-2.5078,-2.4695,-2.4667,-2.4667,-2.4667,-2.4667,-2.4667,-2.4667,-2.543,-2.5893,-2.5893,-2.5893,-2.5893,-2.5893,-2.5893,-2.5893,-2.5893,-2.5893,-2.5893,-2.5893,-2.5893,-2.5948,-2.6056,-2.6056,-2.5977,-2.5735,-2.5787,-2.5877,-2.6017,-2.6017,-2.6068,-2.6083,-2.6083,-2.5662,-2.5125,-2.5125,-2.5058,-2.4922,-2.4643,-2.4456,-2.4252,-2.3717,-2.3566,-2.3566,-2.3595,-2.3595,-2.3595,-2.3595,-2.3595,-2.3595,-2.3595,-2.3595,-2.3595,-2.3595,-2.3595,-2.3595,-2.3595,-2.3595,-2.3595,-2.3595,-2.3595,-2.3595,-2.3595,-2.3595,-2.3595,-2.3595,-2.3595,-2.3595,-2.3595,-2.3595,-2.3595,-2.3595,-2.3595,-2.3595,-2.3595,-2.329,-2.3201,-2.3377,-2.2264,-2.1564,-2.1355,-1.9924,-1.9246,-1.9244,-1.9696,-1.9995,-2.015,-2.027,-2.0304,-2.0304,-2.0426,-2.0628,-2.0827,-2.1038,-2.1294,-2.1587,-2.1811,-2.2044,-2.2332,-2.2632,-2.2893,-2.3102,-2.7996,-2.8227,-2.8179,-2.7483,-2.7674,-2.7595,-2.6723,-2.6608,-2.6376,-2.564,-2.5533,-2.5289,-2.4737,-2.4667,-2.4526,-2.4146,-2.4118,-2.4118,-2.4118,-2.4118,-2.4118,-2.4118,-2.4769,-2.5177,-2.5177,-2.5177,-2.5177,-2.5177,-2.5177,-2.5177,-2.5177,-2.5177,-2.5216,-2.5202,-2.5202,-2.5307,-2.5426,-2.5464,-2.5369,-2.5229,-2.5293,-2.5394,-2.5429,-2.5415,-2.5415,-2.5429,-2.5415,-2.4994,-2.4457,-2.4519,-2.4487,-2.4349,-2.4133,-2.4045,-2.4,-2.3714,-2.3595,-2.3595,-2.3595,-2.3595,-2.3595,-2.3595,-2.3595,-2.3595,-2.3595,-2.3595,-2.3595,-2.3595,-2.3595,-2.3595,-2.3595,-2.3595,-2.3595,-2.3595,-2.3595,-2.3595,-2.3595,-2.3595,-2.3595,-2.3595,-2.3595,-2.3595,-2.3595,-2.3595,-2.3595,-2.3595,-2.3595,-2.349,-2.3251,-2.2978,-2.2935,-2.3236,-2.2327,-2.1836,-2.1822,-2.0857,-2.0146,-1.966,-1.996,-2.0185,-2.0304,-2.0304,-2.0304,-2.0304,-2.0527,-2.0695,-2.0827,-2.1055,-2.1371,-2.1724,-2.184,-2.2089,-2.2432,-2.2685,-2.2927,-2.3154,-2.7303,-2.7796,-2.7716,-2.6122,-2.6523,-2.6562,-2.5107,-2.5454,-2.5494,-2.436,-2.4653,-2.4727,-2.4103,-2.4033,-2.4005,-2.3949,-2.3949,-2.3949,-2.3949,-2.3949,-2.3949,-2.3949,-2.3949,-2.3949,-2.3949,-2.4047,-2.4118,-2.4118,-2.4118,-2.4118,-2.4118,-2.4118,-2.414,-2.4212,-2.4212,-2.4276,-2.4426,-2.4525,-2.4595,-2.4552,-2.4742,-2.4805,-2.4791,-2.4762,-2.4776,-2.4791,-2.4762,-2.4341,-2.3851,-2.4005,-2.3791,-2.3509,-2.3509,-2.3538,-2.3595,-2.3595,-2.3595,-2.3595,-2.3595,-2.3595,-2.3595,-2.3595,-2.3595,-2.3595,-2.3595,-2.3595,-2.3595,-2.3595,-2.3595,-2.3595,-2.3595,-2.3595,-2.3595,-2.3595,-2.3595,-2.358,-2.3535,-2.3565,-2.358,-2.352,-2.3565,-2.3595,-2.3595,-2.3595,-2.3595,-2.3595,-2.3595,-2.3355,-2.2787,-2.2798,-2.2768,-2.2709,-2.225,-2.1943,-2.1822,-2.2071,-2.1476,-2.01,-2.0161,-2.0246,-2.0304,-2.0304,-2.0304,-2.0304,-2.0662,-2.0794,-2.0827,-2.1215,-2.1562,-2.1807,-2.1807,-2.2153,-2.2592,-2.2681,-2.2929,-2.3295,-2.6595,-2.6718,-2.6718,-2.6336,-2.6428,-2.6428,-2.6092,-2.6031,-2.5791,-2.5068,-2.4983,-2.4545,-2.3421,-2.3308,-2.3112,-2.2634,-2.2592,-2.2592,-2.2592,-2.2592,-2.2592,-2.2592,-2.2592,-2.2592,-2.2592,-2.3611,-2.4118,-2.4118,-2.4118,-2.4118,-2.4118,-2.414,-2.4176,-2.4212,-2.4326,-2.4426,-2.4575,-2.4575,-2.4399,-2.4047,-2.4109,-2.4109,-2.4109,-2.4094,-2.4094,-2.4109,-2.4094,-2.3734,-2.3287,-2.3555,-2.3584,-2.3509,-2.3566,-2.361,-2.3595,-2.3595,-2.3595,-2.3595,-2.3595,-2.3595,-2.3595,-2.3595,-2.3595,-2.3595,-2.3595,-2.3595,-2.3595,-2.3595,-2.3595,-2.3595,-2.3595,-2.3595,-2.3595,-2.3595,-2.3595,-2.343,-2.2936,-2.3295,-2.3415,-2.2936,-2.3295,-2.3595,-2.3595,-2.3595,-2.3595,-2.3595,-2.3595,-2.3535,-2.34,-2.34,-2.3203,-2.2791,-2.3164,-2.2944,-2.2041,-2.2079,-2.1445,-2.0115,-2.0722,-2.0778,-2.0304,-2.0304,-2.0304,-2.0304,-2.0662,-2.0794,-2.0875,-2.1794,-2.2312,-2.258,-2.2718,-2.3358,-2.4083,-2.3808,-2.3816,-2.3944,-2.5872,-2.6149,-2.6135,-2.5284,-2.5651,-2.5758,-2.4792,-2.5041,-2.5014,-2.3927,-2.3985,-2.3716,-2.276,-2.2662,-2.2521,-2.2212,-2.2184,-2.2184,-2.2184,-2.2184,-2.2184,-2.2184,-2.2184,-2.2184,-2.2184,-2.2831,-2.3216,-2.3216,-2.3216,-2.3216,-2.3314,-2.3334,-2.3396,-2.3521,-2.3603,-2.3698,-2.3778,-2.3778,-2.3638,-2.3441,-2.3441,-2.3441,-2.3441,-2.3441,-2.3441,-2.3441,-2.3487,-2.3405,-2.329,-2.3466,-2.3494,-2.3566,-2.361,-2.3595,-2.3595,-2.3595,-2.3595,-2.3595,-2.3595,-2.3595,-2.3595,-2.3595,-2.3595,-2.3595,-2.3595,-2.3595,-2.3595,-2.3595,-2.3595,-2.3595,-2.3595,-2.3595,-2.3505,-2.3206,-2.34,-2.3266,-2.2338,-2.3011,-2.337,-2.2783,-2.3221,-2.3595,-2.3595,-2.3595,-2.3595,-2.3595,-2.3653,-2.3561,-2.3245,-2.3272,-2.3205,-2.2899,-2.3314,-2.3203,-2.2592,-2.2952,-2.2639,-2.1627,-2.1409,-2.127,-2.126,-2.126,-2.1312,-2.1404,-2.1686,-2.1859,-2.1993,-2.28,-2.3243,-2.3483,-2.3731,-2.4228,-2.4773,-2.4635,-2.4698,-2.4786,-2.5149,-2.5626,-2.5584,-2.4164,-2.4701,-2.4821,-2.3139,-2.375,-2.3903,-2.2465,-2.2752,-2.2859,-2.2255,-2.2184,-2.2184,-2.2184,-2.2184,-2.2184,-2.2184,-2.2184,-2.2184,-2.2184,-2.2184,-2.2184,-2.2184,-2.2184,-2.2184,-2.2184,-2.2184,-2.2278,-2.2417,-2.2417,-2.2583,-2.2809,-2.2795,-2.2872,-2.2888,-2.2888,-2.2888,-2.2888,-2.2888,-2.2888,-2.2888,-2.2888,-2.2902,-2.2947,-2.3037,-2.3246,-2.3509,-2.3494,-2.3566,-2.3595,-2.3595,-2.3595,-2.3595,-2.3595,-2.3595,-2.3595,-2.3595,-2.3595,-2.3595,-2.3595,-2.3595,-2.3595,-2.3595,-2.3595,-2.3595,-2.3595,-2.3595,-2.3595,-2.3595,-2.352,-2.3266,-2.2798,-2.3011,-2.2906,-2.1844,-2.2697,-2.3251,-2.2783,-2.3221,-2.3595,-2.3595,-2.3595,-2.3595,-2.3638,-2.3739,-2.3556,-2.3039,-2.3106,-2.3143,-2.3021,-2.3239,-2.3305,-2.3127,-2.3815,-2.3917,-2.3456,-2.2332,-2.2024,-2.2455,-2.2385,-2.2437,-2.2623,-2.2844,-2.306,-2.3323,-2.3833,-2.4215,-2.4473,-2.4692,-2.5039,-2.5397,-2.5264,-2.5497,-2.5702,-2.4441,-2.4533,-2.4533,-2.425,-2.4161,-2.3949,-2.3683,-2.3758,-2.3558,-2.2749,-2.2895,-2.2859,-2.2255,-2.2184,-2.2184,-2.2184,-2.2184,-2.2184,-2.2184,-2.2184,-2.2184,-2.2184,-2.2184,-2.2184,-2.2184,-2.2184,-2.2184,-2.2184,-2.2184,-2.2278,-2.2417,-2.2509,-2.2675,-2.2795,-2.2872,-2.2902,-2.2888,-2.2888,-2.2888,-2.2888,-2.2888,-2.2888,-2.2888,-2.2888,-2.2992,-2.3082,-2.3082,-2.3246,-2.3509,-2.3566,-2.3595,-2.3595,-2.3595,-2.3595,-2.3595,-2.3595,-2.3595,-2.3595,-2.3595,-2.3595,-2.3595,-2.3595,-2.3595,-2.3595,-2.3595,-2.3595,-2.3595,-2.3595,-2.3595,-2.3595,-2.3595,-2.3161,-2.2813,-2.2724,-2.2263,-2.1904,-2.1724,-2.2338,-2.2813,-2.2724,-2.3221,-2.3595,-2.3595,-2.3595,-2.3653,-2.3739,-2.3797,-2.3794,-2.3846,-2.3846,-2.3614,-2.3102,-2.3723,-2.3836,-2.3262,-2.3394,-2.3686,-2.4164,-2.3979,-2.364,-2.3148,-2.2738,-2.2586,-2.2623,-2.2988,-2.3307,-2.36,-2.4444,-2.5096,-2.5569,-2.5552,-2.615,-2.6847,-2.5778,-2.5913,-2.6446,-2.4302,-2.4302,-2.4302,-2.4302,-2.4009,-2.3797,-2.3797,-2.36,-2.3269,-2.2783,-2.2815,-2.2701,-2.2259,-2.2184,-2.2184,-2.2184,-2.2184,-2.2184,-2.2184,-2.2184,-2.2184,-2.2184,-2.2184,-2.2184,-2.2184,-2.2278,-2.2324,-2.2324,-2.2324,-2.2431,-2.2629,-2.2689,-2.2781,-2.2872,-2.2902,-2.2888,-2.2888,-2.2888,-2.2888,-2.2888,-2.2888,-2.2888,-2.2888,-2.2888,-2.2992,-2.3127,-2.326,-2.3422,-2.3566,-2.361,-2.3595,-2.3595,-2.3595,-2.3595,-2.3595,-2.3595,-2.3595,-2.3595,-2.3595,-2.3595,-2.3595,-2.3595,-2.3595,-2.3595,-2.3595,-2.3595,-2.3595,-2.3595,-2.3595,-2.3595,-2.3595,-2.337,-2.3071,-2.2727,-2.2712,-2.2544,-2.1849,-2.2589,-2.3191,-2.3191,-2.343,-2.3638,-2.3696,-2.3696,-2.3782,-2.3882,-2.3982,-2.4024,-2.4124,-2.4151,-2.4055,-2.3774,-2.4081,-2.4138,-2.3871,-2.3871,-2.421,-2.4856,-2.4487,-2.4348,-2.441,-2.4199,-2.4262,-2.4485,-2.43,-2.4388,-2.4769,-2.5278,-2.5761,-2.6151,-2.6283,-2.6779,-2.7282,-2.6394,-2.638,-2.6721]}]]